GFSGL_con_mucape_003.txt.gz
CAPE
620 499 187 87 97 179 149 125 274 384 427 433 306 315 467 529 637 772 760 719 523 844 832 691 810 941 194 390 857 902 917 1181 985 442 258 385 508 1249 549 1461 1637 1873 1091
383 366 160 208 233 136 157 136 187 214 334 375 389 640 520 533 967 665 701 658 737 618 434 364 176 98 404 286 393 934 938 858 831 635 511 455 1115 1510 1457 2004 1391 1169 1375
292 335 223 300 334 385 384 213 159 136 311 393 632 648 602 645 635 774 785 710 796 564 393 323 125 79 45 0 29 767 884 906 682 728 611 661 588 836 1458 1947 2029 1606 1681
125 32 118 301 569 546 516 350 447 516 568 650 724 729 574 642 774 860 830 835 701 595 486 303 127 17 31 0 42 56 72 523 692 616 907 719 633 694 1040 695 1109 1348 1235
175 184 270 411 637 764 679 617 552 533 479 591 897 750 425 621 400 874 930 722 744 681 516 450 152 17 1 0 0 15 23 99 6 849 704 798 571 492 431 622 720 1744 1716
523 445 405 435 606 787 800 701 666 618 737 903 555 787 937 453 205 306 246 564 778 685 533 386 423 150 12 29 0 3 13 2 8 92 760 780 925 651 450 397 1111 1327 1551
718 721 624 688 901 945 659 573 581 830 1328 1201 667 647 946 1276 233 301 248 400 702 840 763 603 305 283 157 51 0 1 4 23 5 0 12 275 648 725 596 900 1354 1331 1472
869 873 826 842 914 942 880 862 1101 1023 1367 1222 949 1031 1072 873 195 265 199 435 720 1006 1104 1024 780 355 293 11 0 3 2 0 0 0 44 5 310 884 966 441 1417 1310 1793
934 1011 1014 897 1010 1083 1097 1251 1320 1276 875 931 1154 1166 1405 1573 504 231 197 532 974 1057 1066 1094 783 357 157 17 0 0 0 0 0 0 0 0 4 182 420 1300 485 1674 1416
1278 1002 951 905 998 1066 1333 1206 1216 1490 744 574 574 841 784 1499 880 174 146 400 1221 831 947 921 252 103 39 27 9 10 0 0 0 0 0 0 3 64 96 322 1383 604 1216
962 882 1365 1162 1714 1409 1438 905 1315 1182 1236 1081 643 1228 1121 893 368 192 36 405 431 535 571 529 191 132 26 34 13 0 0 0 0 3 0 110 517 630 675 521 592 1021 657
1722 1282 1519 1967 1083 523 1766 1580 1385 1321 1197 933 563 593 96 380 241 205 71 17 46 0 45 82 322 23 18 36 57 51 56 4 14 93 100 349 697 713 681 887 743 905 725
2196 2406 1939 1573 891 800 1647 1751 1085 1471 1176 196 415 339 491 242 384 42 69 59 0 0 46 18 17 65 31 5 43 55 52 10 0 5 33 31 54 282 1218 1071 972 1134 1068
2383 1928 1926 2039 1712 1478 1633 1005 807 584 343 239 268 463 170 566 139 22 8 0 0 5 35 22 73 48 1 6 52 32 15 7 5 0 5 23 19 34 91 94 483 716 1044
1626 1259 1037 852 1194 1218 1271 560 417 110 48 85 116 138 88 131 0 0 0 0 0 0 0 377 20 0 1 16 43 63 17 0 0 10 0 4 4 26 14 74 114 631 927
1188 1034 692 597 514 366 374 70 67 1 0 0 1 0 0 0 0 0 0 0 0 0 0 17 10 0 0 3 49 37 53 32 8 0 0 1 2 11 29 12 99 123 68
1108 720 454 142 243 651 746 789 423 0 0 0 0 0 0 0 0 0 0 0 0 0 13 11 0 0 0 0 43 64 33 64 17 25 0 21 0 0 2 6 3 10 3
717 201 268 342 629 854 587 413 382 293 89 20 0 0 0 0 0 0 0 0 3 5 11 0 0 0 1 0 14 51 44 63 48 42 19 2 47 11 0 0 2 2 7
538 652 738 660 482 160 68 0 0 0 0 0 0 0 0 0 0 0 0 3 1 1 0 0 0 0 3 17 10 22 43 33 28 8 24 21 28 22 57 68 0 0 1
464 282 413 399 198 106 10 1 1 0 5 0 0 0 0 0 1 9 0 0 0 1 5 2 0 0 0 4 11 8 8 19 18 19 22 8 19 36 41 127 118 117 89
364 385 124 224 29 0 0 0 0 8 0 0 0 0 0 0 0 0 0 0 1 2 2 1 1 3 17 19 19 19 19 7 15 8 13 8 2 2 4 1 37 46 61
287 315 279 123 36 30 22 16 6 0 0 0 0 0 0 0 0 0 0 0 0 0 0 0 0 0 0 4 10 6 8 10 6 0 5 0 0 5 11 16 1 1 19
52 49 10 17 14 2 0 6 9 7 11 8 0 0 0 0 0 0 0 0 1 0 0 0 0 0 0 0 0 0 0 0 0 0 0 0 0 0 0 0 2 10 3
10 5 2 10 4 0 0 3 5 0 1 0 1 0 2 0 9 0 0 0 0 0 0 0 0 0 0 0 0 0 0 0 0 0 0 0 0 0 0 0 0 0 0
1 0 0 0 0 0 0 0 1 0 0 0 0 0 0 0 0 0 0 0 0 0 0 0 0 0 0 0 0 0 0 0 0 0 0 0 0 0 0 0 0 0 0
0 0 1 0 0 0 0 0 1 0 0 0 0 0 0 0 0 0 0 0 0 0 0 0 0 0 0 0 0 0 0 0 0 0 0 0 0 0 0 0 0 0 0

GFSGL_con_mucape_006.txt.gz
CAPE
1476 1764 1511 702 824 1345 1072 1030 1119 1512 1471 1396 1297 1168 1087 986 1161 900 972 746 481 674 651 532 599 323 66 3 1 5 9 11 44 7 101 284 476 339 469 903 795 772 770
1295 1775 1573 1251 953 919 1066 951 1106 1289 1463 1418 1413 1248 941 972 974 693 760 765 738 673 755 677 581 116 154 3 0 7 12 1 38 59 70 261 360 313 190 247 471 375 314
1190 926 1361 1363 1294 1393 1317 1295 1259 1282 1318 1436 1342 1181 989 1053 1134 969 944 769 913 936 869 674 560 306 149 14 2 3 8 2 16 48 36 200 289 326 294 453 211 167 297
589 842 1422 1510 1500 1346 1651 1776 1444 1607 1595 1491 1482 1436 1201 1189 1153 967 853 797 686 878 925 707 668 501 260 5 4 4 4 0 0 17 29 29 238 238 292 165 367 595 586
996 1112 1518 1799 1671 1756 1846 1649 1611 1735 1549 1758 1604 1483 1438 1205 602 996 784 904 1008 962 1039 783 652 585 245 89 15 1 2 0 0 7 5 18 5 236 264 114 257 321 463
616 1109 1648 1711 1654 1613 1927 2117 1964 2031 1852 1804 1482 1463 1451 940 216 181 499 1064 1031 980 913 833 681 508 465 227 101 54 11 15 0 0 0 0 0 11 249 225 144 300 302
1404 1392 1536 1661 1685 1908 1887 1945 2056 1813 1955 1917 1682 1485 1499 1310 679 198 385 680 861 824 952 930 547 543 338 203 189 71 18 1 6 0 0 0 0 0 102 229 149 113 133
1703 1663 1655 1789 1809 2048 2032 2027 2206 2193 2194 1828 1576 1642 1485 1127 567 152 157 650 848 893 969 819 507 483 512 316 138 79 58 0 1 8 0 0 0 0 8 136 175 86 316
1588 1766 1799 1795 1919 2008 2139 1962 2180 1943 1948 1746 1675 1535 1237 1346 412 327 122 643 753 742 1054 759 628 353 318 74 30 43 1 0 8 0 1 0 0 0 0 1 100 77 123
1502 1823 1963 1986 2148 2129 2043 2018 1773 2105 1476 994 1015 1291 1264 1339 283 115 55 12 99 426 772 755 436 88 59 27 7 15 3 23 0 0 9 40 4 0 0 1 1 135 0
1726 1934 2087 2249 2551 2549 2614 2312 1917 1145 845 1418 1416 1341 1289 1014 342 74 69 54 154 436 140 208 478 41 21 17 8 17 3 11 0 4 89 121 47 0 0 0 6 324 40
2696 2469 2674 2857 1904 1268 2350 1940 1521 1891 1383 1227 1275 777 391 507 149 55 110 56 43 70 123 185 240 4 40 36 0 26 20 13 0 0 87 131 135 43 1 84 9 108 318
3040 3266 3113 2953 2622 2486 2159 1780 1903 1250 1250 1279 924 418 185 261 583 62 36 10 0 0 120 33 20 28 59 1 14 20 8 1 0 0 1 184 174 152 107 292 254 114 143
3244 3433 3068 2714 2643 2439 1623 1762 958 1352 731 714 391 737 686 667 32 17 0 0 0 0 0 1 35 1 0 0 19 43 19 2 10 12 0 4 9 18 111 156 321 349 244
3238 2920 2872 2249 2136 1612 802 305 516 271 76 67 8 7 0 47 0 0 0 0 0 0 0 15 120 0 0 0 12 56 46 19 26 20 0 0 6 15 18 19 142 207 233
2212 1883 1593 1454 474 1290 180 75 68 57 29 17 1 0 0 0 0 0 0 0 0 0 0 24 4 0 0 0 0 58 44 40 25 32 16 16 0 0 12 23 9 11 8
1738 1549 1047 275 810 1006 902 759 414 109 77 0 0 0 0 0 0 0 0 0 0 0 1 0 0 0 0 0 0 40 54 54 43 24 0 32 65 0 0 1 0 3 40
991 279 539 614 669 952 692 499 421 501 147 8 0 0 0 0 0 0 0 0 1 0 0 0 0 0 0 2 13 14 43 43 43 36 24 12 28 56 66 0 4 8 2
497 472 612 765 479 340 226 127 64 18 1 1 0 0 1 0 0 0 0 0 0 0 0 1 1 0 3 6 25 37 24 20 36 42 31 29 19 37 58 51 53 8 0
447 78 305 689 118 202 46 15 1 0 0 0 0 0 0 0 0 0 0 0 0 0 0 2 2 4 4 6 15 16 16 15 17 16 25 15 20 6 4 6 39 32 21
270 228 154 523 85 11 0 0 0 0 17 4 0 0 0 0 0 0 0 0 0 0 0 0 0 0 0 0 6 13 16 8 15 9 3 5 1 9 8 9 0 53 2
144 110 134 329 54 82 53 57 3 0 2 1 1 0 0 0 0 0 0 0 0 0 0 0 0 0 0 0 0 0 0 0 0 3 0 0 0 0 0 3 1 4 0
187 79 48 28 19 5 6 6 0 0 11 6 8 0 0 0 0 0 0 10 17 1 0 0 0 0 0 0 0 0 0 0 0 0 0 0 0 0 0 0 0 0 4
5 0 1 3 6 1 1 0 0 0 0 0 3 0 1 8 2 0 0 3 2 0 0 0 0 0 0 0 0 0 0 0 0 0 0 0 0 0 0 0 0 0 0
0 10 13 9 16 7 2 0 0 1 0 0 0 0 0 0 0 0 0 0 0 0 0 0 0 0 0 0 0 0 0 0 0 0 0 0 0 0 0 0 0 0 0
6 4 0 0 3 0 0 0 0 0 0 0 0 0 0 0 0 0 0 0 0 0 0 0 0 0 0 0 0 0 0 0 0 0 0 0 0 0 0 0 0 0 0

GFSGL_con_mucape_009.txt.gz
CAPE
604 476 491 639 387 205 133 28 35 116 354 303 264 192 137 204 303 344 158 131 121 191 151 117 90 50 0 0 0 0 0 0 4 1 0 0 5 16 20 335 246 136 106
757 538 583 13 8 151 77 30 24 69 116 179 139 212 197 128 156 169 109 88 153 121 182 144 173 120 86 0 0 0 0 0 4 0 0 0 0 4 6 96 116 155 345
384 738 257 127 23 38 106 52 54 61 53 9 109 144 128 129 133 172 312 204 219 102 213 268 221 167 160 111 0 0 0 0 0 0 1 0 1 0 3 32 110 106 118
526 453 291 176 109 151 180 196 208 203 143 271 439 283 227 326 307 403 366 311 218 133 237 465 313 248 208 168 123 38 0 0 0 0 0 1 0 0 4 8 44 116 156
585 404 249 182 211 300 331 433 465 197 373 327 381 394 283 483 544 174 139 271 271 257 402 318 384 289 409 208 110 60 35 14 6 12 0 2 1 0 0 0 0 77 115
437 330 362 359 329 361 317 399 374 244 353 597 333 239 324 426 428 283 174 76 185 244 210 246 333 300 162 216 236 260 134 78 63 48 0 17 6 0 0 0 1 36 39
290 265 216 266 282 368 460 585 842 706 721 197 425 516 267 467 625 290 204 43 64 140 259 214 136 238 222 130 54 87 139 158 125 56 11 3 0 0 0 0 0 1 20
422 390 283 400 495 532 636 673 682 741 353 418 585 327 490 600 505 325 101 75 71 199 314 374 351 262 179 88 16 14 3 16 30 32 35 19 8 0 0 0 0 0 3
576 411 542 524 505 652 880 893 774 802 604 664 646 400 526 414 204 93 28 6 5 6 11 73 183 159 24 19 25 3 0 0 6 12 11 18 1 1 0 0 0 0 0
662 609 811 788 830 952 1024 1111 1075 721 556 658 436 427 256 138 140 32 1 7 15 5 61 31 4 6 0 10 23 22 0 0 0 0 0 0 2 13 5 0 0 0 0
690 975 1118 1153 1146 1131 1149 1147 950 898 687 392 189 424 319 231 100 11 2 27 11 17 17 2 0 4 0 21 59 6 0 3 0 1 0 1 2 182 34 1 0 0 3
1005 1146 1402 1486 1374 1349 1364 1236 1020 733 408 151 364 367 265 87 19 17 3 33 32 1 0 0 6 15 0 29 11 0 11 23 2 0 0 0 98 176 179 10 1 0 0
1576 1582 1783 1806 1749 1457 1316 985 664 451 261 108 208 260 123 34 33 1 5 10 4 0 0 1 10 11 10 0 0 0 14 19 6 0 0 0 6 85 342 46 0 0 0
517 1368 1131 1534 1572 1234 767 535 494 415 297 169 111 52 26 9 4 14 2 0 0 0 0 2 19 4 0 0 0 0 20 13 0 18 22 6 0 9 176 183 209 40 20
5 21 697 1306 1063 722 578 532 347 137 24 48 9 22 10 0 0 0 0 0 0 0 0 1 0 0 0 0 0 0 19 21 29 88 24 40 0 0 10 132 147 162 178
10 370 772 817 806 499 429 253 212 86 75 59 21 14 0 0 0 0 0 0 0 0 0 0 0 0 0 0 0 0 1 28 22 28 4 33 37 0 3 12 25 54 109
869 576 437 267 211 237 163 141 126 65 59 58 12 0 0 0 0 0 0 0 0 0 0 0 0 0 0 0 0 0 2 15 20 15 19 20 13 0 0 0 1 5 6
547 395 290 190 234 187 268 194 127 79 25 0 0 0 0 0 0 2 0 0 0 0 0 0 0 0 2 0 3 5 12 12 28 37 20 34 32 11 0 0 10 0 1
441 301 191 297 239 197 179 95 26 9 1 0 0 0 0 0 0 0 3 0 0 0 0 0 1 0 2 3 3 5 10 15 15 10 7 21 29 20 7 0 0 0 0
308 53 354 314 193 65 15 0 0 0 0 0 0 0 0 0 0 0 0 0 0 0 0 0 0 0 0 0 0 2 6 0 8 8 7 5 3 17 23 4 36 2 33
241 122 21 35 40 11 0 0 0 0 0 0 0 0 0 0 0 0 0 0 0 0 0 0 0 0 0 0 0 0 0 0 0 0 0 0 0 0 3 25 14 3 0
250 158 64 49 39 0 3 0 0 0 0 0 0 0 0 0 0 0 0 0 0 0 0 0 0 0 0 0 0 0 0 0 0 0 0 0 0 0 0 0 0 11 6
152 81 84 80 15 5 11 10 3 4 2 2 0 0 0 0 0 0 0 0 0 0 0 0 0 0 0 0 0 0 0 0 0 0 0 0 0 0 0 0 0 0 0
47 46 22 9 2 9 2 3 0 4 5 0 0 0 0 0 0 0 0 0 0 0 0 0 0 0 0 0 0 0 0 0 0 0 0 0 0 0 0 0 0 0 0
7 0 0 0 0 0 0 0 0 0 0 0 0 0 0 0 0 0 0 0 0 0 0 0 0 0 0 0 0 0 0 0 0 0 0 0 0 0 0 0 0 0 0
2 12 14 8 2 0 0 0 0 0 0 0 0 0 0 0 0 0 0 0 0 0 0 0 0 0 0 0 0 0 0 0 0 0 0 0 0 0 0 0 0 0 0

GFSGL_con_mucape_012.txt.gz
CAPE
470 247 92 76 25 22 19 0 0 0 3 41 64 33 2 0 3 23 26 55 0 0 66 56 37 24 23 26 0 0 0 0 0 0 0 0 0 0 0 0 0 11 75
562 353 356 161 194 127 80 43 5 7 46 49 21 9 0 11 8 2 1 3 35 41 67 57 52 45 56 57 46 37 0 0 0 0 0 0 0 0 0 0 1 1 49
595 513 441 285 382 255 90 51 13 16 4 5 0 0 0 19 28 9 0 32 54 65 73 77 59 76 84 86 72 71 48 22 10 0 0 0 0 0 0 0 0 0 11
1176 945 619 405 123 19 85 65 8 15 2 4 0 0 99 74 57 102 124 162 120 112 103 65 63 104 116 87 81 56 39 19 5 0 0 1 0 0 0 0 0 0 0
1265 1173 910 353 185 64 33 48 31 36 67 56 52 155 146 77 64 205 94 48 92 86 74 99 86 77 147 110 67 56 47 27 0 1 1 2 1 0 0 0 0 5 0
1313 1200 795 376 280 96 81 102 149 191 300 127 218 307 168 44 140 148 79 71 32 28 46 54 64 97 136 172 153 80 49 35 9 39 17 4 10 0 0 0 0 10 0
1403 1100 529 426 346 210 146 204 281 308 324 288 243 409 178 147 79 236 114 49 53 19 15 25 42 71 77 90 85 10 0 16 50 43 22 17 6 13 41 0 0 0 0
1186 726 487 420 354 280 180 244 273 366 485 606 600 213 418 146 254 277 95 23 12 1 16 16 7 15 29 18 0 0 0 0 0 0 2 5 4 7 8 27 0 0 0
1190 567 450 494 368 249 238 323 418 517 680 580 434 281 229 249 230 103 49 9 21 0 0 7 4 0 0 0 0 0 0 0 0 0 4 13 3 1 3 3 0 0 0
1086 786 486 409 278 237 328 493 632 658 660 630 378 237 74 97 142 72 52 38 0 13 19 11 0 0 0 0 0 0 0 0 0 0 1 0 1 0 10 3 0 0 2
1124 643 365 375 362 394 538 678 758 743 667 528 404 36 3 34 70 27 0 2 12 3 2 0 0 0 0 0 0 0 0 0 0 0 1 8 0 3 3 10 28 40 20
525 281 535 533 683 668 774 837 780 639 656 490 381 74 10 58 76 36 38 6 0 0 0 0 0 0 0 1 0 0 0 0 0 8 6 0 0 0 5 118 171 65 0
555 445 452 195 294 362 845 1114 748 594 502 358 194 25 51 109 73 42 24 0 0 0 0 0 0 0 0 1 0 0 0 0 3 5 14 1 0 0 4 170 130 14 1
445 144 28 11 32 20 120 838 823 557 278 125 102 169 88 29 0 18 0 0 0 0 0 0 0 1 3 0 0 0 0 0 5 7 5 0 0 0 0 78 186 92 5
93 37 5 24 166 386 458 525 487 307 107 25 23 0 0 0 0 0 0 0 0 0 0 2 0 6 3 0 0 0 0 0 5 0 2 0 0 0 0 4 220 196 44
208 15 0 4 285 575 472 413 296 202 50 0 0 0 0 0 0 0 0 0 0 0 0 0 0 0 0 0 0 0 1 0 0 3 7 10 0 2 0 0 5 232 303
1 0 10 391 453 410 211 241 107 22 0 0 0 30 1 0 0 0 0 0 1 0 0 0 0 0 0 0 0 0 1 5 7 0 2 0 0 0 0 0 0 5 137
416 418 299 196 130 159 162 94 29 27 45 36 8 0 0 0 0 0 0 0 4 0 0 0 0 0 0 0 0 2 2 7 15 6 0 0 0 0 0 0 12 0 0
343 178 153 204 234 217 107 47 51 58 55 32 0 0 0 0 0 0 0 1 6 0 0 0 0 0 0 0 0 0 0 0 0 2 0 0 0 0 3 2 0 0 11
119 83 129 161 138 80 65 48 34 21 6 0 0 0 0 0 0 0 0 0 0 0 0 0 0 0 0 0 0 0 0 0 0 0 0 0 0 0 0 0 0 0 7
140 83 62 159 96 48 51 21 0 0 0 0 0 0 0 0 0 0 0 0 0 0 0 0 0 0 0 0 0 0 0 0 0 0 0 0 0 0 0 0 2 28 20
157 168 139 108 101 64 2 1 6 0 0 0 6 0 0 0 0 0 0 0 0 0 0 0 0 0 0 0 0 0 0 0 0 0 0 0 0 0 0 0 0 0 9
93 101 103 90 79 25 4 6 16 17 11 16 6 1 1 0 0 0 0 0 0 0 0 0 0 0 0 0 0 0 0 0 0 0 0 0 0 0 0 0 0 0 0
99 122 69 36 46 22 9 8 2 0 0 14 4 2 0 0 0 0 0 0 0 0 0 0 0 0 0 0 0 0 0 0 0 0 0 0 0 0 0 0 0 0 0
6 4 1 0 0 0 0 0 0 0 0 0 0 0 0 0 0 0 0 0 0 0 0 0 0 0 0 0 0 0 0 0 0 0 0 0 0 0 0 0 0 0 0
10 11 9 4 13 13 11 0 0 0 0 0 0 0 0 0 0 0 0 0 0 0 0 0 0 0 0 0 0 0 0 0 0 0 0 0 0 0 0 0 0 0 0

GFSGL_con_mucape_015.txt.gz
CAPE
1309 1797 1437 89 42 0 1 18 15 1 0 0 0 0 0 0 0 0 0 0 0 0 0 0 5 32 41 39 27 14 0 0 0 0 0 0 0 0 0 0 0 0 0
1422 1617 747 204 79 98 8 5 0 0 0 0 5 12 0 0 0 0 0 0 0 5 34 29 32 35 41 57 62 57 62 58 23 0 0 0 0 0 0 0 0 0 0
1387 1429 444 218 78 66 49 5 5 0 0 0 18 0 0 0 0 0 0 0 0 13 25 45 60 46 9 38 64 72 86 88 53 25 0 0 0 0 0 0 0 0 0
1287 1439 849 418 233 87 110 49 31 16 0 0 11 0 0 0 18 22 0 15 44 8 0 52 82 40 29 48 79 99 126 101 60 52 4 0 0 0 0 0 0 0 0
1333 1515 1332 677 334 139 247 265 76 37 11 52 21 21 3 24 125 36 0 35 14 15 42 55 42 51 96 67 78 120 123 101 45 30 17 0 0 0 0 0 0 0 0
1430 1438 1043 220 390 130 285 10 49 37 10 24 118 100 81 132 168 14 67 54 52 32 5 19 12 19 31 54 185 252 189 116 67 35 0 0 0 0 0 0 0 0 0
1405 1351 1124 487 174 42 76 71 31 41 25 120 200 239 164 221 116 41 44 79 63 54 17 16 11 14 6 12 37 53 44 50 57 27 4 0 0 1 0 0 0 0 0
1335 1318 1085 351 260 234 163 318 85 91 139 236 338 356 358 363 139 52 94 83 64 9 0 1 0 0 0 2 17 0 0 0 0 2 5 0 0 2 8 0 2 0 8
1284 1304 1143 450 438 199 159 411 302 207 277 330 404 497 497 234 86 65 43 46 3 7 8 0 0 2 12 3 0 0 0 0 0 0 0 0 0 10 1 2 0 0 0
1281 1369 1255 860 434 280 341 419 468 267 328 370 470 508 342 206 72 52 22 48 48 5 0 0 0 0 0 0 0 0 0 0 0 0 0 0 10 9 0 0 5 0 8
1440 1288 1063 805 467 609 507 489 401 286 330 495 493 402 327 172 58 25 58 26 0 4 0 0 0 0 0 0 0 0 0 0 0 0 0 0 0 0 0 2 1 1 2
1440 1295 1271 790 527 555 433 195 78 37 99 431 322 310 270 174 33 54 46 9 0 0 0 0 0 0 0 0 0 0 0 0 0 0 0 5 0 0 0 3 0 35 9
1254 1111 1105 577 391 297 134 55 14 3 21 326 287 227 124 30 24 47 64 51 9 0 0 0 0 0 0 0 2 2 0 0 0 0 0 0 0 0 0 0 3 23 21
921 831 445 266 212 0 2 32 34 30 184 201 235 174 42 92 66 62 33 8 0 0 0 0 0 0 0 3 1 0 0 0 0 0 0 0 0 0 0 0 0 6 13
525 315 296 168 49 34 15 56 86 144 140 176 90 53 78 40 18 0 0 0 0 0 0 0 0 0 2 0 0 0 0 0 3 6 6 1 0 0 0 0 0 19 39
226 107 28 3 2 0 0 23 151 140 124 72 5 0 0 0 0 0 0 0 0 0 0 0 0 0 0 0 0 0 1 3 2 0 0 0 0 0 2 9 0 3 84
56 13 15 0 0 109 208 223 154 30 40 15 0 0 0 0 0 0 0 0 0 0 0 0 0 0 0 0 0 0 0 0 4 4 2 0 0 0 0 1 21 0 2
0 0 12 69 122 109 110 64 46 34 1 0 0 0 0 0 0 0 0 0 0 0 0 1 2 0 0 0 0 0 0 0 0 0 0 0 0 0 0 6 0 21 0
216 249 199 142 141 118 80 41 7 3 3 0 0 0 0 0 0 0 0 0 0 0 0 0 0 0 0 0 0 0 0 0 0 0 0 0 0 0 0 13 19 0 0
125 92 101 164 164 102 62 35 22 6 4 0 0 0 0 0 0 0 0 0 0 0 0 0 0 0 0 0 0 0 0 0 0 0 0 0 0 0 0 0 13 11 15
114 68 108 143 170 83 36 18 13 17 0 0 0 0 0 0 0 0 0 0 0 0 0 0 0 0 0 0 0 0 0 0 0 0 0 0 0 0 0 0 0 0 13
215 100 91 150 134 82 78 13 7 11 2 0 1 10 1 0 0 0 0 0 0 0 0 0 0 0 0 0 0 0 0 0 0 0 0 0 0 0 0 0 0 0 0
334 273 279 221 126 121 70 22 7 13 10 9 22 23 9 1 0 0 0 0 0 0 0 0 0 0 0 0 0 0 0 0 0 0 0 0 0 0 0 0 0 0 0
202 180 161 125 110 101 70 23 17 7 13 13 9 22 4 2 0 0 0 0 0 0 0 0 0 0 0 0 0 0 0 0 0 0 0 0 0 0 0 0 0 0 0
76 64 115 136 108 59 45 18 0 0 0 0 0 4 0 0 0 0 0 0 0 0 0 0 0 0 0 0 0 0 0 0 0 0 0 0 0 0 0 0 0 0 0
4 11 10 11 13 14 1 11 11 6 0 0 0 0 0 0 0 0 0 0 0 0 0 0 0 0 0 0 0 0 0 0 0 0 0 0 0 0 0 0 0 0 0

GFSGL_con_mucape_018.txt.gz
CAPE
983 1064 1158 1317 888 0 28 11 0 0 0 0 2 0 0 0 0 0 0 0 0 0 0 0 0 2 18 29 33 23 0 0 0 0 0 0 0 0 0 0 0 0 0
1069 1024 1027 1296 964 0 13 16 0 0 1 0 0 0 0 0 4 0 0 0 0 0 0 0 0 13 21 39 27 19 0 15 18 1 0 0 0 0 0 0 0 0 0
1228 1173 1063 1232 906 143 14 41 37 23 0 0 0 0 6 3 1 0 0 0 0 0 22 14 0 14 15 10 0 3 10 31 58 52 0 0 0 0 0 0 0 0 0
1293 1300 1321 1170 678 36 12 14 31 23 0 1 0 2 9 0 3 0 3 0 0 11 28 0 0 3 20 5 0 2 14 26 44 34 0 0 0 5 0 0 0 0 0
1313 1266 1345 1293 859 394 113 58 31 10 15 25 6 9 13 0 5 9 46 22 0 15 0 0 0 0 0 0 12 36 14 23 28 33 10 3 2 3 1 0 2 0 0
1320 1262 1211 1255 1038 615 234 1 0 0 91 94 61 66 34 54 59 70 132 24 36 43 28 11 0 0 0 2 39 43 88 57 43 40 3 4 4 2 1 3 2 1 2
1319 1299 1286 1243 1056 832 341 50 47 50 223 145 126 98 113 178 164 184 205 36 13 49 20 29 0 0 0 1 0 4 25 48 77 88 27 6 7 1 9 10 5 1 0
1344 1293 1284 1280 1237 978 532 294 83 32 33 60 138 105 196 287 267 207 123 57 52 44 10 0 0 0 0 0 0 0 2 5 1 0 2 0 4 8 12 5 6 4 0
1267 1251 1228 1238 1186 1014 565 345 170 18 11 109 154 146 208 334 359 251 82 29 21 21 1 0 0 0 0 0 0 0 0 0 0 0 0 0 0 0 0 4 3 0 0
1138 1157 1170 1222 1211 964 675 358 242 23 58 105 174 124 152 219 256 92 78 15 17 14 1 0 0 0 0 0 0 0 0 0 0 0 0 0 0 0 5 8 11 0 0
1061 1195 1231 1171 999 871 784 520 220 72 193 199 125 77 120 115 98 106 44 33 19 8 0 0 0 0 0 0 0 0 0 0 0 0 0 0 0 0 0 0 3 9 0
1232 1260 1155 1034 980 866 646 590 302 321 215 182 62 3 1 20 85 113 34 1 11 12 0 0 0 0 0 0 0 0 0 0 0 0 0 0 0 0 0 0 0 0 5
1332 1236 1144 979 871 709 396 306 321 101 2 0 13 25 57 94 70 43 10 49 40 25 0 0 0 0 0 0 0 0 0 0 0 0 0 0 0 0 0 0 0 0 1
1196 1036 956 760 817 375 133 216 95 1 6 28 39 23 31 51 38 27 59 69 25 0 0 0 0 0 0 0 0 0 0 0 0 0 0 0 0 0 0 0 10 0 1
896 762 653 622 426 360 286 0 0 3 16 33 36 84 83 47 57 47 46 0 0 0 0 0 0 0 0 0 0 0 0 0 0 0 0 0 0 0 0 0 1 0 0
649 395 190 60 205 156 108 44 27 18 98 94 73 62 13 24 12 0 0 0 0 0 0 0 0 0 0 0 0 0 0 0 0 0 0 0 0 0 0 0 1 0 0
73 105 85 0 0 0 0 10 7 60 117 77 39 1 0 0 0 0 0 0 0 0 0 0 0 0 0 0 0 0 0 0 0 0 0 0 0 0 0 0 14 0 0
182 72 0 0 0 1 93 113 94 76 22 3 0 0 0 0 0 0 0 0 0 0 0 0 0 0 0 0 0 0 0 0 0 0 0 0 0 0 0 0 11 22 0
0 0 12 48 93 88 71 74 59 27 6 0 0 0 0 0 0 0 0 0 0 0 0 0 0 0 0 0 0 0 0 0 0 0 0 0 0 0 0 0 9 24 29
101 177 150 97 75 85 95 65 27 20 2 0 0 0 0 0 0 0 0 0 0 0 0 0 0 0 0 0 0 0 0 0 0 0 0 0 0 0 0 0 0 4 17
176 56 84 89 107 93 58 23 29 5 0 0 0 0 0 0 0 0 0 0 0 0 0 0 0 0 0 0 0 0 0 0 0 0 0 0 0 0 0 0 0 8 2
176 207 122 126 154 123 40 45 1 0 0 0 0 0 0 0 0 0 0 0 0 0 0 0 0 0 0 0 0 0 0 0 0 0 0 0 0 0 0 0 0 0 1
283 254 202 168 173 126 72 79 42 20 0 0 0 0 0 0 0 0 0 0 0 0 0 0 0 0 0 0 0 0 0 0 0 0 0 0 0 0 0 0 0 0 0
162 170 169 132 109 118 77 41 21 4 4 3 0 4 16 15 0 0 0 0 0 0 0 0 0 0 0 0 0 0 0 0 0 0 0 0 0 0 0 0 0 0 0
80 113 97 44 43 80 52 44 34 22 0 2 5 9 16 25 0 0 0 0 0 0 0 0 0 0 0 0 0 0 0 0 0 0 0 0 0 0 0 0 0 0 0
0 0 2 0 2 30 61 69 70 24 10 9 4 2 1 3 0 0 0 0 0 0 0 0 0 0 0 0 0 0 0 0 0 0 0 0 0 0 0 0 0 0 0

GFSGL_con_mucape_021.txt.gz
CAPE
2362 2491 2461 1804 1311 1311 1089 87 1 22 94 302 257 198 283 288 249 290 253 174 235 300 296 308 382 349 181 165 169 155 116 82 47 0 6 6 3 5 23 46 1 0 0
2248 2352 1932 967 954 1101 780 92 30 27 13 59 193 269 317 327 267 332 299 102 258 291 205 365 379 242 455 696 463 393 200 188 120 63 50 53 63 66 124 146 106 0 0
2071 1690 1342 698 851 1065 133 21 2 17 32 33 90 273 260 328 353 393 309 310 288 209 292 391 418 419 448 606 537 205 137 177 147 85 58 44 70 53 32 102 102 63 7
1905 1588 948 651 807 901 151 0 8 0 0 15 16 65 238 427 373 308 277 362 387 361 384 490 552 277 299 436 413 355 330 276 220 77 70 56 59 88 52 40 54 41 34
2152 1661 1129 1000 880 992 665 539 297 72 22 16 5 36 131 240 223 274 319 522 756 652 555 605 418 262 120 56 118 142 214 171 122 127 106 73 58 47 64 66 49 57 100
1996 1660 1207 1196 1146 1130 1047 752 493 333 260 90 9 27 177 182 32 0 217 724 891 746 670 631 500 70 49 0 14 25 56 172 234 272 144 124 133 197 83 73 45 14 13
1981 1570 1189 1240 1258 1273 1308 1134 856 543 359 95 55 114 303 360 65 36 49 619 954 860 790 721 476 122 28 45 8 0 6 0 34 119 77 87 119 131 101 26 26 36 37
1885 1271 1114 1194 1187 1214 1276 1311 1117 799 466 263 196 352 365 584 158 101 140 450 736 801 785 742 407 205 44 6 24 31 48 40 60 8 11 12 7 3 11 27 16 13 32
1769 1223 1148 1185 1152 1193 1251 1159 1006 556 327 182 275 430 516 850 175 113 67 76 93 154 428 182 45 21 0 0 0 4 13 2 1 0 0 0 0 0 0 0 0 46 27
1828 1366 1122 1225 1230 1284 1294 1170 849 530 360 288 283 361 324 639 118 52 50 38 50 54 15 22 39 2 0 0 0 1 3 2 2 0 0 4 4 1 0 2 6 52 48
1746 1315 1123 1206 1274 1236 1143 1094 767 562 426 461 503 709 276 320 52 44 45 23 40 59 34 35 22 0 0 0 0 2 3 0 0 0 1 3 0 5 6 11 19 38 84
1137 1128 1174 1201 1178 1061 995 958 720 686 703 871 572 140 388 465 76 55 47 100 60 32 129 53 21 0 0 0 0 0 0 0 0 1 1 0 0 0 0 0 0 2 19
1350 1123 1053 1020 976 921 927 945 889 871 978 787 149 172 267 130 43 49 83 28 2 16 46 34 0 0 0 0 0 0 0 0 0 0 0 0 0 0 0 0 0 3 11
1065 1005 969 944 854 797 755 673 627 568 509 304 136 144 156 36 41 44 20 2 18 26 32 0 0 0 0 0 0 0 0 0 0 0 0 0 0 0 0 0 0 0 0
902 884 796 645 603 526 363 339 272 177 83 76 150 151 124 222 81 11 15 18 10 2 0 0 0 0 1 0 0 0 0 0 0 0 0 0 0 0 0 0 0 0 0
547 464 415 353 273 271 216 86 78 31 7 20 63 104 70 32 9 12 9 0 0 0 0 0 0 0 0 0 0 0 0 0 0 0 0 0 0 0 0 0 0 1 0
233 3 11 5 0 1 0 0 0 0 63 58 43 66 33 25 4 0 0 0 0 0 0 0 0 0 0 0 0 0 0 0 0 0 0 0 0 0 0 0 0 5 0
14 7 17 0 0 0 2 12 16 58 42 20 30 6 1 1 0 0 0 0 0 0 0 0 0 0 0 0 0 0 0 0 0 0 0 0 0 0 0 0 0 0 0
62 0 0 0 52 43 65 37 16 17 3 0 1 0 0 0 0 0 0 0 0 0 0 0 0 0 0 0 0 0 0 0 0 0 0 0 0 0 0 0 0 3 1
117 65 214 367 117 131 72 34 29 13 11 0 0 0 0 0 0 0 0 0 0 0 0 0 0 0 0 0 0 0 0 0 0 0 0 0 0 0 0 0 0 2 1
356 197 68 227 260 220 186 116 40 13 0 0 0 0 0 0 0 0 0 0 0 0 0 0 0 0 0 0 0 0 0 0 0 0 0 0 0 0 0 0 0 2 2
218 243 237 264 254 208 216 155 94 71 32 3 0 0 0 0 0 0 0 0 0 0 1 2 0 0 0 0 0 0 0 0 0 0 0 0 0 0 0 0 0 0 0
297 369 333 335 357 198 164 231 165 73 40 10 7 0 0 0 0 0 0 0 0 0 0 0 0 0 0 0 0 0 0 0 0 0 0 0 0 0 0 0 0 0 0
239 277 336 348 281 272 335 280 145 29 25 17 11 5 20 20 8 1 0 0 0 0 0 0 0 0 0 0 0 0 0 0 0 0 0 0 0 0 0 0 0 0 0
93 157 196 266 273 279 260 235 53 12 12 36 18 27 38 38 14 0 0 0 0 0 0 0 0 0 0 0 0 0 0 0 0 0 0 0 0 0 0 0 0 0 0
0 1 28 118 176 209 234 192 74 76 78 25 23 32 30 24 19 7 0 0 0 0 0 0 0 0 0 0 0 0 0 0 0 0 0 0 0 0 0 0 0 0 0

GFSGL_con_mucape_024.txt.gz
CAPE
3335 3494 3730 2929 2933 3104 2861 2536 1840 1032 809 936 1018 637 726 443 525 688 440 81 190 289 268 247 312 457 207 97 103 123 102 61 15 2 8 24 43 86 59 59 55 72 15
3273 3941 3259 3181 3081 2967 2625 1815 1101 732 485 693 601 734 692 658 661 569 441 97 238 307 252 320 365 249 393 559 131 273 152 192 109 275 236 23 351 103 98 180 138 33 17
2616 2737 3107 2970 2749 2319 1939 1285 497 398 331 122 430 487 470 602 906 800 528 329 323 293 313 396 386 365 446 344 255 123 108 204 169 148 71 12 29 70 160 163 148 315 30
2415 2593 3442 2970 2731 2358 2117 889 449 352 357 327 89 480 717 754 592 429 552 516 430 417 539 604 558 477 455 379 337 282 283 225 294 146 112 116 99 136 269 98 87 61 39
2506 2595 3077 3507 2176 1921 2540 1446 1041 776 445 198 180 239 479 392 225 526 522 527 601 745 735 674 709 615 495 212 192 255 478 198 125 104 78 110 128 339 428 148 49 58 197
2747 2838 3058 2772 1877 2360 1952 1427 971 909 715 414 286 271 410 201 0 25 424 496 597 893 881 815 782 613 198 76 17 4 23 87 128 99 43 295 302 231 126 106 66 58 68
3236 3197 3056 2740 2145 1893 1753 1308 1392 1042 856 874 646 417 386 390 31 17 37 397 553 1150 1089 1199 889 586 222 398 173 29 3 10 3 83 140 182 144 159 201 224 72 50 30
3262 3208 3047 2732 2194 1992 1935 1444 1216 1279 1329 1307 1017 705 689 469 323 198 33 365 813 1124 222 167 203 236 876 342 209 186 152 135 172 142 172 135 102 65 31 11 25 24 25
3112 3067 2883 2368 2256 1986 1890 1616 1215 1276 1310 1317 1052 783 1112 961 470 415 171 440 575 114 97 94 101 103 66 26 75 88 111 122 18 0 0 0 0 0 0 13 8 23 56
2879 2832 2565 2349 2270 2119 1639 1769 1421 1269 1134 989 927 1218 672 1043 510 518 283 641 330 153 93 47 13 23 13 18 24 60 83 72 67 17 10 7 5 27 6 20 14 104 136
2714 2630 2529 2409 2161 2039 1642 1497 1292 1221 928 889 897 1031 1044 1155 1018 494 183 232 193 258 118 35 49 11 4 5 11 7 39 0 0 2 6 3 17 29 54 118 85 55 40
2781 2615 2324 2053 1662 1373 1428 1400 1099 949 789 887 1182 1372 1304 1265 461 197 60 35 131 182 194 390 258 77 6 0 0 0 0 0 0 10 2 6 16 17 12 2 0 1 6
2687 2378 1874 1391 1482 1234 1132 1059 969 905 922 1138 1443 1159 1084 763 351 133 94 24 62 208 158 127 89 35 0 0 0 0 0 0 16 1 0 6 3 1 0 23 40 78 118
2186 1747 1443 1255 1081 1009 1018 1049 1050 1041 903 1002 1217 886 537 270 64 36 34 40 39 2 43 64 40 15 0 0 0 0 1 8 0 0 0 0 0 1 2 0 0 0 19
1704 1581 1179 1220 900 1027 919 964 739 668 595 966 440 441 396 314 274 31 17 170 132 53 45 61 10 3 12 20 29 26 8 0 0 0 0 0 0 0 0 0 0 2 35
1641 1431 1150 1094 942 833 318 272 234 204 248 131 107 272 128 193 122 14 19 18 15 8 0 2 48 60 40 39 26 11 1 0 0 0 0 0 0 0 0 0 0 5 25
1268 1071 694 590 562 448 180 42 0 0 1 0 13 17 9 34 41 31 7 0 0 0 0 1 13 24 24 19 5 0 0 0 0 0 0 0 0 0 0 0 0 7 20
180 0 213 165 57 82 58 53 89 53 3 7 17 17 29 15 2 0 0 0 0 0 0 2 10 16 14 0 0 0 0 0 0 0 0 0 0 0 0 0 0 8 10
170 40 19 33 82 37 169 381 264 139 61 0 3 0 0 0 0 0 0 0 0 0 0 0 0 2 0 0 0 0 0 0 0 0 0 0 0 0 0 0 0 0 1
190 36 26 100 204 350 405 227 145 178 133 42 0 1 0 0 0 0 0 0 0 0 0 0 0 0 0 0 0 0 0 0 0 0 0 0 0 0 0 0 0 0 16
263 192 19 110 95 122 172 195 190 197 199 209 185 33 0 0 0 0 0 0 0 0 0 0 0 2 2 0 0 0 0 0 0 0 0 0 0 0 0 0 0 0 0
279 181 137 220 255 246 290 309 291 237 264 226 168 0 0 0 8 7 5 0 0 0 0 1 3 1 0 0 0 0 0 0 0 0 0 0 0 0 0 0 0 0 0
326 374 327 340 293 145 280 297 309 322 270 203 72 19 0 1 1 22 8 0 0 0 0 0 0 0 0 0 0 0 0 0 0 0 0 0 0 0 0 0 0 0 0
314 334 342 390 396 366 340 373 362 129 211 44 47 20 19 1 24 44 16 10 4 0 0 0 0 0 0 0 0 0 0 0 0 0 0 0 0 0 0 0 0 0 0
93 133 184 255 336 285 349 402 427 371 133 44 25 23 31 25 23 44 32 15 10 4 0 0 0 0 0 0 0 0 0 0 0 0 0 0 0 0 0 0 0 0 0
15 35 76 120 198 291 367 385 413 317 133 28 57 43 40 45 49 41 36 13 10 7 1 0 0 0 0 0 0 0 0 0 0 0 0 0 0 0 0 0 0 0 0

GFSGL_con_mucape_027.txt.gz
CAPE
4436 4444 4383 4386 4116 4476 4001 4178 4025 3621 2597 1914 1882 1641 1550 966 1128 1369 1190 445 474 675 402 505 758 756 83 46 307 694 514 351 85 135 77 206 954 873 557 430 116 349 68
3954 4477 4398 4515 4327 4137 4291 4215 4231 3532 2788 2086 1927 1592 1302 1147 1080 1180 840 368 352 462 756 941 403 110 945 1298 262 991 216 501 59 683 291 109 590 771 905 1001 361 53 87
3619 3673 4398 4566 4400 4235 4425 4398 4109 3316 2508 1699 1844 1599 1038 1014 1161 1253 1011 956 696 363 365 397 361 435 1057 583 673 610 62 533 593 268 78 20 141 126 159 596 478 203 216
2649 3257 4221 4568 4557 4395 4630 4302 3892 2937 2299 1714 1542 1506 978 1043 693 1006 685 682 543 530 394 815 506 590 1091 1336 1179 1397 1179 442 420 127 209 175 209 334 187 265 111 107 87
3428 3686 4298 4737 4749 4776 4371 4141 3359 2813 1543 1564 1536 632 594 279 431 1125 846 640 789 532 772 586 1161 1034 438 281 378 803 1392 337 110 89 127 109 57 347 205 113 95 102 156
3925 4063 4435 4828 4783 4537 4143 4175 3150 2160 1561 1426 1060 434 471 510 380 323 746 541 1169 1194 1276 1349 1317 488 485 145 134 95 75 337 575 106 118 102 356 157 104 46 40 9 15
4486 4336 4688 4844 4751 4167 3588 3632 3033 2342 1698 1460 1035 737 766 996 780 508 297 612 975 1336 1349 1502 1158 888 188 170 153 145 82 48 24 176 223 276 382 420 377 351 233 91 24
4431 4597 4784 4651 4297 3634 3347 3651 3245 2442 1854 1123 1147 1066 1094 1188 1032 736 404 621 1136 1324 1345 1327 1212 616 308 119 108 114 134 223 558 245 315 294 435 235 61 50 93 40 30
4364 4658 4513 4204 4105 3575 2751 3104 3081 2693 1804 1458 1221 1147 1244 1320 1137 917 523 447 696 1355 1509 795 589 280 96 20 5 6 48 290 171 63 25 0 0 0 0 0 1 28 33
4202 4318 4174 4036 3614 3029 2778 2787 2912 2387 1926 1264 1088 1222 1041 1226 1067 1044 688 1725 1507 915 1431 951 194 156 22 2 23 66 86 297 295 295 132 30 12 14 1 27 61 64 89
3522 3502 3707 3192 3311 3118 2974 2766 2082 1639 1186 1205 942 905 981 1057 1344 741 544 1536 1313 1536 954 642 236 36 34 25 19 87 73 42 92 30 8 7 65 71 54 147 263 92 50
3746 3088 3118 3235 2843 2608 2403 2068 1756 1714 1493 1316 1164 1077 1720 1900 823 592 582 574 599 787 623 259 142 285 115 12 7 0 0 0 0 0 13 43 15 16 18 24 146 124 21
3756 3718 3639 3220 2469 2433 1749 1565 1204 1332 1174 1194 1015 1820 1710 1565 1045 571 456 241 209 49 308 417 291 230 78 15 9 0 0 0 0 27 33 10 4 4 95 25 105 239 214
3406 3080 2403 1974 1907 1697 1242 1462 1258 1128 1172 1205 1201 1313 1365 1505 950 215 123 17 11 27 73 121 44 101 26 0 0 0 0 2 24 4 0 0 0 0 0 0 0 0 0
2422 2194 1848 1759 1682 1254 1010 912 1167 837 886 1219 956 876 763 697 434 119 61 7 7 40 223 330 109 60 41 46 22 87 22 52 26 10 1 0 0 0 0 0 0 0 9
2098 1829 1333 1166 993 948 610 672 577 391 345 285 257 290 70 165 155 59 6 18 63 106 111 200 126 137 195 328 236 65 124 24 15 9 0 0 0 0 0 0 0 0 18
1880 1537 1397 1225 1224 989 753 413 170 34 2 2 0 0 2 16 82 37 3 1 12 0 0 0 35 138 343 106 33 14 21 20 10 0 0 0 0 0 0 0 0 0 21
1302 690 1092 718 643 509 367 305 116 4 0 0 0 0 0 0 1 0 0 0 0 0 0 0 3 144 46 24 23 18 15 11 3 0 0 0 0 0 0 0 0 0 4
372 385 345 131 60 34 49 84 89 58 57 0 0 0 2 2 0 0 0 0 0 0 0 1 2 3 3 4 5 6 4 0 0 0 0 0 0 0 0 0 0 0 0
257 47 26 96 30 10 118 198 144 119 74 3 0 0 0 0 0 0 0 0 0 0 0 0 0 0 0 1 3 1 0 0 0 0 0 0 0 0 0 0 0 0 0
283 0 0 121 133 223 220 156 94 113 145 101 83 10 0 0 2 14 7 0 0 0 0 0 0 0 0 0 0 0 0 0 0 0 0 0 0 0 0 0 0 0 0
237 68 75 165 134 236 358 428 450 201 285 184 60 16 3 0 21 18 12 0 3 1 0 0 0 1 0 0 0 0 0 0 0 0 0 0 0 0 0 0 0 0 0
251 195 154 304 86 63 170 240 362 410 274 236 11 10 7 0 0 13 10 8 13 8 2 0 0 0 0 0 0 0 0 0 0 0 0 0 0 0 0 0 0 0 0
161 217 276 371 225 350 452 355 404 75 139 196 175 24 13 3 15 22 15 17 18 11 2 0 0 0 0 0 0 0 0 0 0 0 0 0 0 0 0 0 0 0 0
120 91 150 193 253 175 119 158 272 242 142 148 139 49 65 40 13 24 25 24 27 16 10 2 0 0 0 0 0 0 0 0 0 0 0 0 0 0 0 0 0 0 0
61 49 61 88 140 249 145 238 302 251 170 190 37 98 49 52 32 34 41 23 30 27 11 7 1 0 0 0 0 0 0 0 0 0 0 0 0 0 0 0 0 0 0

GFSGL_con_mucape_030.txt.gz
CAPE
4274 4267 4255 4198 4370 3864 3580 3270 3449 3234 2815 2164 1950 1759 1807 1705 1546 1336 1136 1113 1039 956 568 706 459 760 444 407 663 498 447 235 118 65 150 177 451 526 398 482 360 73 55
4105 4146 4270 4331 4312 4233 3392 3868 3857 3226 2902 2061 1928 1854 1619 1485 1407 1323 837 489 974 1050 957 1025 820 626 1011 1119 733 790 592 528 220 196 216 334 223 590 869 579 482 44 58
3795 3998 4173 4199 4176 4030 3955 3239 3725 3594 3179 2167 1972 1761 1657 1332 1298 1119 1036 854 909 398 932 930 830 892 1056 629 757 776 586 406 334 199 250 265 124 224 190 342 256 302 120
3395 3653 3916 4185 4099 3934 3950 3837 3865 3940 3402 2329 1970 1741 1483 1218 1265 1099 1182 1121 827 736 852 852 922 1028 1069 957 800 406 409 384 223 125 103 98 208 253 168 99 49 69 39
2892 3368 3852 4286 4208 4224 4053 4072 3958 3945 3472 2578 1936 1714 1356 771 1071 997 1128 991 884 792 777 873 908 1073 728 461 647 805 208 156 66 55 3 2 10 12 0 2 35 35 23
2482 3118 3528 4037 4383 4426 4331 4270 3978 3852 3244 2560 1799 1417 1146 649 468 283 906 866 973 891 866 1211 1180 667 369 209 88 32 71 52 49 44 36 6 1 81 91 51 45 0 0
3013 3030 3509 4218 4460 4438 4453 4217 4060 3734 3079 2264 1796 1260 880 803 593 403 623 752 801 856 1086 1240 1303 851 614 337 155 39 45 33 18 46 14 3 55 124 144 99 64 15 3
3624 3616 4005 4427 4587 4573 4458 4228 4014 3607 2686 2347 1942 1476 1045 1143 810 602 553 593 717 1123 853 1301 1285 1351 776 509 223 180 202 244 108 40 23 42 69 117 158 46 1 0 0
3680 4583 4502 4623 4723 4577 4313 4064 3565 3326 2827 2644 2266 1337 1208 1336 934 855 596 564 702 861 789 1191 1268 1442 1041 505 196 219 217 94 64 52 60 86 64 34 18 10 0 0 0
4314 4427 4752 4795 4658 4418 4070 3702 3840 3496 2572 2405 2262 1459 1128 1217 940 799 779 694 637 705 1075 998 693 1038 669 318 94 192 121 129 320 289 217 87 49 6 2 18 21 26 37
4454 4697 4762 4694 4650 4426 3709 3235 3114 2899 2649 2335 2063 1485 1511 1038 1115 814 679 671 1012 1043 839 971 1181 717 459 296 47 110 184 117 75 36 38 0 0 34 55 96 84 53 73
4420 4563 4512 4512 3486 3642 2920 2625 2425 2233 1974 1604 1348 1443 1149 1026 901 1044 827 721 652 1026 1119 1081 809 548 228 91 76 17 0 0 0 0 0 0 7 32 33 20 79 64 30
4249 4178 3777 3521 3250 2747 2390 2350 1834 1498 1388 1467 1528 1075 1094 1733 1531 931 850 548 603 586 358 240 257 165 278 194 89 41 20 0 0 0 0 4 5 18 7 0 28 179 213
3879 3801 3579 2937 2392 2271 1879 1585 1431 1192 1421 1373 1357 1663 1896 1685 867 453 304 184 245 371 274 59 25 42 36 46 31 13 0 0 12 62 18 3 7 4 0 0 0 0 0
3542 2665 2302 2001 1741 1412 1454 1457 1279 1076 1031 1320 1451 1653 1530 1274 925 282 141 13 0 0 65 120 101 46 11 2 10 40 14 23 24 27 35 18 0 0 0 0 0 0 0
2303 2148 1783 1589 1462 1304 1291 1215 992 748 741 879 768 656 411 386 155 5 0 0 0 17 52 769 580 457 245 118 182 136 97 38 27 36 41 0 0 0 0 0 0 0 0
1845 1779 1573 1476 1283 933 748 668 497 284 231 205 263 244 27 0 2 31 0 0 40 57 157 247 209 241 246 300 301 43 12 12 13 19 14 7 0 0 0 0 0 0 0
2052 1501 1530 1524 1424 1366 921 502 65 1 0 0 3 0 0 0 0 0 0 0 0 0 0 0 76 251 334 406 22 21 15 5 5 2 0 0 0 1 0 0 0 0 0
1799 1593 1149 1020 908 702 657 449 64 31 0 0 0 0 0 0 0 0 0 0 0 3 3 23 14 7 7 5 4 3 0 0 0 0 0 0 3 0 0 0 0 0 0
662 473 495 448 191 294 232 149 168 106 0 0 0 0 0 0 0 0 0 0 0 0 0 0 0 0 0 0 0 0 0 0 0 7 5 0 0 0 0 0 0 0 0
232 57 5 230 128 87 260 316 187 87 48 8 2 0 0 0 0 0 0 2 0 0 7 0 0 0 0 0 0 0 0 0 0 0 0 0 0 0 0 0 0 0 0
148 27 78 100 150 684 426 433 281 82 121 106 49 13 2 1 6 31 33 34 18 19 2 11 0 4 6 0 0 0 0 0 0 0 0 0 0 0 0 0 0 0 0
300 95 168 262 157 44 150 68 180 63 38 9 16 17 18 9 7 61 27 25 7 38 30 5 3 3 0 0 0 0 0 0 0 0 0 0 0 0 0 0 0 0 0
155 185 322 355 49 173 221 41 134 28 33 30 28 36 16 19 9 57 30 37 37 13 26 6 0 0 0 0 0 0 0 0 0 0 0 0 0 0 0 0 0 0 0
237 64 177 245 163 59 76 67 129 222 128 113 36 26 37 21 6 16 44 22 43 47 21 0 0 0 0 0 0 0 0 0 0 0 0 0 0 0 0 0 0 0 0
66 41 38 56 53 102 182 138 263 239 52 166 64 40 42 24 21 33 35 27 20 33 24 5 0 0 0 0 0 0 0 0 0 0 0 0 0 0 0 0 0 0 0

GFSGL_con_mucape_033.txt.gz
CAPE
2674 2587 2773 2893 2828 2529 2452 2650 2092 1641 1733 1375 1450 1438 1205 980 598 522 259 309 415 63 202 72 198 104 16 0 30 4 3 0 0 0 0 35 89 56 65 37 31 6 10
2929 3017 2944 2943 3252 3158 2634 2316 2199 2166 1705 1394 1397 1421 1205 1065 812 600 423 307 166 380 199 73 21 11 0 0 15 18 28 13 4 0 12 25 42 10 37 13 98 81 11
3028 3214 3315 3223 3133 3435 3194 2745 2346 2349 2026 1638 1340 1300 1137 981 883 582 428 325 429 313 262 111 102 34 112 142 205 106 137 64 56 35 14 25 29 37 16 48 44 42 32
3185 3268 3322 3365 3334 3344 3503 3041 2935 2723 2371 2045 1634 1467 1253 1034 1007 872 673 417 263 390 403 334 235 124 132 204 16 29 81 68 70 71 50 30 7 9 19 0 0 0 0
2933 3258 3238 3380 3455 3506 3455 3449 2923 3010 2737 2427 2077 1759 1321 1010 967 825 765 627 489 406 402 333 311 318 350 324 146 36 49 74 40 2 0 0 0 0 5 16 16 0 0
2617 2988 3183 3173 3560 3559 3504 3423 3366 2788 3029 2875 2501 2197 1754 1464 1284 1028 703 666 598 634 384 404 339 530 650 580 399 261 152 68 38 0 0 0 0 2 10 6 1 0 0
1560 2531 2947 3184 3394 3537 3519 3434 3442 3338 3265 3315 3153 2938 2535 2030 1652 1115 778 607 732 751 494 410 568 338 356 430 390 271 188 63 22 15 0 0 0 0 9 16 12 0 0
1823 2116 2749 2924 3413 3641 3587 3543 3474 3435 3401 3394 3260 3076 2673 2908 1748 1026 618 700 777 691 644 695 531 579 504 404 372 252 243 96 26 26 2 13 0 5 30 43 43 0 0
1860 2148 2728 2998 3393 3706 3717 3723 3615 3574 3452 3334 3131 3141 2274 2493 1497 987 676 560 565 614 564 730 690 655 531 518 498 369 227 176 71 46 27 24 29 64 110 109 3 22 2
1685 2381 2552 3035 3487 3898 3816 3844 3707 3587 3458 3260 2707 2253 1927 1676 1181 785 684 518 660 586 490 477 474 442 502 583 448 297 224 139 53 140 165 88 51 45 0 3 19 17 20
2597 3433 3468 3701 3981 4059 3978 3859 3738 3363 3138 2901 2451 1965 1444 1414 1263 990 741 659 646 845 729 629 490 473 401 483 380 275 129 87 119 144 138 88 0 0 0 11 27 49 43
3753 4160 4258 4248 4179 4154 3972 3677 3212 2987 2754 2530 2147 1688 1295 1177 1146 968 789 710 594 628 739 568 457 418 552 395 265 172 77 30 22 26 0 0 0 0 0 4 4 19 33
4265 4203 4205 4191 4139 4090 3774 3123 2419 2635 2471 2124 1926 1440 1184 1022 901 720 740 757 797 778 713 608 440 310 214 159 173 141 57 17 0 0 0 0 0 4 2 4 1 0 0
4054 3993 3903 3804 3782 3499 2878 2173 2097 2115 1987 1784 1428 1069 976 821 973 877 976 976 902 695 623 568 296 148 7 48 62 59 2 0 0 0 5 8 0 0 0 0 0 0 0
3788 3604 3420 3434 3050 2563 2122 1873 1674 1477 1296 1229 999 1065 986 938 919 772 477 366 279 311 277 166 18 0 0 0 3 8 10 15 6 10 19 8 0 0 0 0 0 0 0
2651 2415 2507 2034 2084 2053 1718 1240 1161 1107 1082 1046 1068 1015 923 846 672 279 5 0 0 0 0 18 54 50 25 40 50 89 54 29 16 15 12 9 0 0 0 0 0 0 0
1691 1592 1870 1731 1577 1128 1229 1152 995 804 958 834 1008 979 706 570 260 0 0 0 0 0 0 15 95 19 1 38 107 84 43 24 17 2 0 0 0 0 0 0 0 0 0
1516 1565 1561 1392 1138 1085 1111 1005 785 596 588 581 473 267 3 0 0 0 0 0 0 0 0 0 0 0 0 0 0 0 0 0 0 1 4 1 0 0 0 0 0 0 0
1414 1397 1280 986 955 914 867 659 408 286 98 57 101 38 0 0 0 0 0 0 0 0 0 0 0 0 0 0 0 0 0 0 0 0 0 0 0 0 0 0 0 0 0
1396 1274 1292 1369 1058 643 227 12 0 0 0 0 0 0 0 0 0 0 0 0 0 0 0 0 0 0 0 0 0 0 0 0 0 0 0 0 0 0 0 0 0 0 0
651 510 609 530 398 414 310 160 30 7 1 0 0 0 0 0 0 0 0 0 0 0 0 0 0 0 0 0 0 0 0 0 0 0 0 0 0 0 0 0 0 0 0
177 182 36 10 9 21 30 86 66 58 24 0 3 0 0 0 0 0 0 0 0 0 0 0 0 0 0 0 0 0 0 0 0 0 0 0 0 0 0 0 0 0 0
2 18 88 81 36 89 68 86 62 54 19 32 54 45 11 2 0 0 1 2 4 3 0 0 0 0 0 0 0 0 0 0 0 0 0 0 0 0 0 0 0 0 0
71 27 84 46 75 76 70 52 64 36 46 60 34 59 44 25 9 4 1 0 0 0 0 0 0 0 0 0 0 0 0 0 0 0 0 0 0 0 0 0 0 0 0
85 69 38 60 68 42 53 56 48 22 29 25 10 18 36 23 1 10 3 2 9 0 0 0 0 0 0 0 0 0 0 0 0 0 0 0 0 0 0 0 0 0 0
72 206 137 106 79 75 61 70 57 66 31 34 36 31 25 17 9 9 11 8 1 0 0 0 0 0 0 0 0 0 0 0 0 0 0 0 0 0 0 0 0 0 0

GFSGL_con_mucape_036.txt.gz
CAPE
1474 1591 1491 1219 1071 1456 1972 2319 1890 1426 1384 1235 1032 869 658 634 687 512 188 77 19 10 71 16 0 0 0 0 0 0 0 0 0 0 0 1 9 24 29 42 11 0 4
1642 1699 1771 1620 1522 1247 1449 1845 2398 2212 1469 1523 1460 1097 916 839 796 694 240 139 143 64 84 147 19 14 8 0 0 0 0 0 0 0 2 7 3 12 0 1 17 52 48
1841 1882 2041 2119 2075 1877 1690 1575 2049 2312 2056 1533 1554 1283 1207 997 942 833 266 198 171 178 192 81 132 43 29 6 0 0 7 30 19 5 0 0 2 22 18 16 22 2 1
2136 2086 2089 2256 2456 2411 2253 1945 1852 2063 2259 1717 1599 1560 1488 1467 1277 956 643 379 273 235 95 189 180 86 41 3 11 22 70 54 60 30 5 6 5 3 0 8 9 2 0
2475 2408 2336 2386 2551 2666 2755 2633 2285 2016 2003 2004 1897 1691 1514 1330 1285 1224 1060 786 455 302 240 297 330 169 80 45 15 126 59 45 46 56 61 11 0 0 0 0 10 25 25
2486 2676 2687 2760 2787 2732 2863 3025 2715 2487 2281 2114 1961 1807 1649 1616 1557 1410 1266 1031 969 810 321 245 339 378 331 200 84 179 231 75 91 115 108 44 0 0 0 0 26 13 5
2383 2657 2802 2939 2989 2968 2903 3066 3066 2745 2713 2678 2427 2261 2173 2190 2034 1850 1649 1502 1266 1094 438 222 255 420 358 355 428 537 462 300 144 91 62 18 0 0 0 0 0 12 4
2474 2585 2899 2992 2980 3054 3113 3073 3077 2958 2861 2833 2814 2806 2772 2718 2615 2532 2370 2263 1973 932 477 371 474 594 467 473 319 349 402 358 163 96 64 43 54 26 42 7 15 47 10
1883 2410 2617 2890 2896 3136 3149 3124 3075 3084 3063 3000 2972 2849 2919 2930 2963 2882 2274 1678 1150 773 608 659 878 798 628 535 393 374 309 184 81 149 102 57 48 86 109 63 19 6 0
1627 1719 2396 2798 2904 3071 3198 3185 3148 3164 3092 3126 3130 3119 3224 3275 3069 2571 1624 1040 725 721 782 697 739 753 671 586 488 425 257 113 169 172 108 138 139 120 102 1 0 0 1
1307 1528 1643 2531 2724 3052 3229 3236 3238 3216 3260 3277 3277 3004 2489 3061 2726 1735 1006 780 468 323 362 519 616 335 425 392 370 194 143 186 173 84 106 153 113 9 0 0 0 3 4
1235 1433 1848 2379 2677 3018 3319 3348 3324 3306 3475 3413 2985 2294 2133 2139 1596 1085 825 754 673 668 705 648 562 576 498 436 413 305 239 153 83 43 46 0 0 0 0 0 4 1 11
1731 1994 2140 2522 2927 3414 3380 3174 3376 3297 3406 2800 2662 1987 1854 1501 1173 787 876 808 831 797 675 644 629 530 350 268 173 147 158 132 45 0 0 0 0 0 0 0 0 0 0
2263 3243 3376 3333 3352 3346 3303 3204 3300 2656 2711 2092 1904 1867 1513 956 877 805 760 720 714 693 732 696 538 560 167 13 33 80 95 71 7 0 0 0 4 5 0 0 0 0 0
3419 3300 3324 3146 3091 3123 3353 3260 2829 1975 1692 1220 1855 1374 1085 990 758 633 628 700 755 705 476 368 347 107 0 0 0 2 17 0 0 0 0 0 0 0 0 0 0 0 0
3174 3282 2939 2746 2470 2410 2500 2175 1444 1330 1418 1502 1355 1015 796 648 648 643 366 185 27 68 22 13 16 0 0 0 0 0 1 10 7 0 0 0 0 0 0 0 0 0 0
2876 2583 2409 2045 1561 1217 929 203 401 732 807 781 761 791 744 590 396 92 0 0 0 0 0 0 0 0 0 0 0 26 68 41 21 15 0 0 0 1 0 0 0 0 0
1610 1505 1572 1451 1138 860 652 409 615 669 678 590 673 555 481 381 101 0 0 0 0 0 0 0 0 0 0 0 0 0 0 0 0 0 1 1 0 0 0 0 0 0 0
889 524 880 758 579 581 633 600 630 700 533 587 332 55 19 0 0 0 0 0 0 0 0 0 0 0 0 0 0 0 0 0 0 0 0 0 0 0 0 0 0 0 0
600 657 655 764 814 834 716 563 459 352 260 151 83 16 0 0 0 0 0 0 0 0 0 0 0 0 0 0 0 0 0 0 0 0 0 0 0 0 0 0 0 0 0
948 905 703 724 784 793 607 361 175 37 1 0 1 0 0 0 0 0 0 0 0 0 0 0 0 0 0 0 0 0 0 0 0 0 0 0 0 0 0 0 0 0 0
302 660 685 663 500 255 55 15 0 0 0 0 0 0 0 0 0 0 0 0 0 0 0 0 0 0 0 0 0 0 0 0 0 0 0 0 0 0 0 0 0 0 0
194 55 138 218 246 195 117 86 51 45 33 5 3 2 0 0 0 0 0 0 0 0 0 0 0 0 0 0 0 0 0 0 0 0 0 0 0 0 0 0 0 0 0
32 38 54 47 43 46 18 15 62 98 76 45 33 29 25 9 0 0 0 0 0 0 0 0 0 0 0 0 0 0 0 0 0 0 0 0 0 0 0 0 0 0 0
0 18 34 20 5 15 17 17 36 110 70 73 52 30 46 29 4 3 0 0 0 0 0 0 0 0 0 0 0 0 0 0 0 0 0 0 0 0 0 0 0 0 0
35 49 48 57 36 36 31 49 63 52 39 67 68 82 90 80 45 32 0 2 4 2 0 0 0 0 0 0 0 0 0 0 0 0 0 0 0 0 0 0 0 0 0

GFSGL_con_mucape_042.txt.gz
CAPE
539 657 714 681 632 620 667 710 759 751 602 455 763 897 1047 1204 941 993 620 507 88 30 0 0 0 0 0 0 0 0 0 0 0 0 0 0 0 0 0 0 0 8 0
338 717 801 799 713 668 671 670 722 821 752 432 693 903 844 1095 809 998 790 573 249 178 0 0 0 0 0 0 0 0 0 0 0 0 0 0 0 0 0 0 0 0 9
380 580 769 847 850 795 762 844 736 822 812 516 749 949 816 1008 784 775 824 653 402 290 182 1 0 0 0 0 0 0 0 0 0 0 4 2 0 1 0 0 0 0 0
418 605 678 798 834 925 1008 1071 1121 961 904 674 913 1081 1070 975 1039 902 942 853 702 474 423 215 43 0 2 0 0 0 1 7 13 11 2 14 26 15 0 0 0 0 0
523 641 815 788 770 801 857 987 1129 1293 1096 900 828 1191 1111 1168 1203 1200 1106 1223 1287 931 769 792 609 346 198 13 6 0 0 6 3 18 16 21 28 24 27 18 7 2 0
684 710 888 976 986 906 866 838 905 1242 1424 1174 1037 1039 1265 1351 1268 1244 1318 1370 1527 1333 1397 1351 1037 739 496 176 56 31 28 25 11 19 40 28 31 55 41 36 4 20 13
815 854 929 1081 1193 1169 1089 979 907 889 1167 1411 1250 1135 1154 1410 1719 1630 1512 1566 1681 1589 1686 1704 1356 843 740 516 146 65 178 203 156 63 36 77 74 83 53 46 5 8 1
957 993 1093 1219 1263 1380 1368 1330 1254 1086 941 1057 1276 1255 1212 1235 1510 1758 1867 1748 1620 1573 1652 1666 1371 1212 1200 825 189 133 162 300 279 154 99 91 55 51 19 5 1 7 0
1207 1269 1328 1478 1453 1452 1616 1684 1626 1568 1456 1294 1298 1309 1256 1289 1241 1229 1310 1416 1526 1625 1672 1738 1823 1354 920 875 283 158 125 309 324 185 107 74 74 67 5 7 6 1 0
1381 1549 1584 1644 1673 1615 1706 1867 1917 1950 1962 1858 1683 1499 1504 1536 1575 1509 1316 1415 1625 1751 1879 2136 1701 1288 836 399 218 143 409 361 135 104 95 3 6 0 3 0 0 0 0
1136 1577 1772 1931 1949 1926 1882 1911 2056 2086 2248 2258 2121 1947 1798 1707 1878 1868 1713 1663 1806 2115 2139 1932 1403 884 587 384 407 560 500 246 233 114 43 8 2 2 0 0 0 0 0
1028 1549 1767 1988 2204 2201 2219 2239 2296 2317 2406 2489 2333 2212 2097 1963 2156 2024 2072 2135 2202 1873 1364 1221 763 421 280 337 420 409 371 261 96 19 0 4 1 0 0 0 0 0 0
973 1198 1658 1978 2170 2383 2548 2644 2585 2579 2531 2556 2456 2264 2121 2150 2400 2095 2227 1926 1476 897 708 325 120 107 132 197 223 271 210 68 7 4 6 0 0 0 0 0 0 0 0
625 912 1135 1260 1904 2332 2632 2748 2797 2776 2741 2936 2865 2647 2551 2450 2127 2000 1767 1007 899 439 153 123 130 292 391 382 298 172 72 4 0 0 0 0 0 0 0 0 0 0 0
1536 1521 1421 1199 1300 2014 2430 2657 2812 2635 2823 2801 2685 2560 2806 1956 1477 961 163 144 451 196 186 242 260 365 208 53 28 6 0 0 0 0 0 0 0 0 0 0 0 0 0
2309 2053 1889 1764 1718 1859 1987 2187 2329 2486 2313 2534 2673 2548 1844 1487 1248 351 36 187 249 160 281 316 295 188 92 19 0 0 0 0 0 0 0 0 0 0 0 0 0 0 0
2875 2782 2685 2552 2366 2216 2028 1888 1681 1771 2170 2459 2340 1384 661 0 1 44 1 4 185 234 312 267 273 107 1 0 0 0 0 0 0 0 0 0 0 0 0 0 0 0 0
2224 2075 2129 2361 2414 2223 2171 2181 2106 1632 1169 1074 745 283 79 0 32 8 0 141 218 262 226 241 147 0 0 0 0 0 0 0 0 0 0 0 0 0 0 0 0 0 0
952 1133 1284 1277 999 1008 1040 947 568 155 58 68 38 1 1 0 68 174 215 246 275 240 80 0 0 0 0 0 0 0 0 0 0 0 0 0 0 0 0 0 0 0 0
718 551 397 318 787 543 100 24 11 26 3 2 0 14 64 151 248 262 242 105 7 0 0 0 0 0 0 0 0 0 0 0 0 0 0 0 0 0 0 0 0 0 0
353 281 397 248 53 0 0 0 0 1 0 0 3 35 167 255 146 50 0 0 0 0 0 0 0 0 0 0 0 0 0 0 0 0 0 0 0 0 0 0 0 0 0
100 18 0 0 25 28 2 5 45 40 85 89 130 188 157 21 0 0 0 0 0 0 0 0 0 0 0 0 0 0 0 0 0 0 0 0 0 0 0 0 0 0 0
198 188 216 253 205 146 160 102 45 98 149 152 119 65 1 0 0 0 0 0 0 0 0 0 0 0 0 0 0 0 0 0 0 0 0 0 0 0 0 0 0 0 0
95 70 96 31 26 6 0 8 58 82 107 108 61 18 0 0 0 0 0 0 0 0 0 0 0 0 0 0 0 0 0 0 0 0 0 0 0 0 0 0 0 0 0
28 59 100 80 67 75 67 50 40 42 78 94 90 43 4 0 0 1 1 0 0 0 0 0 0 0 0 0 0 0 0 0 0 0 0 0 0 0 0 0 0 0 0
9 9 27 63 64 63 36 10 37 33 33 8 14 18 48 30 6 17 13 11 0 0 0 0 0 0 0 0 0 0 0 0 0 0 0 0 0 0 0 0 0 0 0

GFSGL_con_mucape_045.txt.gz
CAPE
1522 1637 1728 1726 1828 1990 2011 2138 2147 2308 2424 2408 2248 2382 2394 2223 2095 1810 1535 1077 648 537 240 252 242 198 29 72 51 5 0 0 0 0 0 8 113 269 121 242 233 269 79
1457 1671 1768 1922 1974 1992 2050 2108 2162 2220 2330 2430 2453 2244 2258 2220 2146 1859 1604 1158 905 716 515 315 231 125 254 229 97 210 25 25 6 175 28 22 145 288 326 347 70 0 0
1437 1616 1871 1957 1949 1993 2055 2191 2242 2189 2242 2202 2264 2409 2161 2178 2081 1904 1766 1465 1038 879 678 571 400 279 273 229 179 123 137 183 139 10 0 47 51 40 98 142 82 4 9
1335 1528 1719 1868 1962 1963 2074 2197 2249 2238 2223 2282 2267 2369 2446 2332 2066 1817 1696 1627 1319 1018 840 755 617 438 383 486 352 325 281 253 222 175 98 38 85 86 53 36 37 42 41
1551 1585 1766 2081 2183 2215 2249 2245 2303 2371 2220 2282 2203 2234 2352 2343 1825 2107 1867 1732 1558 1302 1084 883 777 560 336 393 263 431 569 356 209 213 159 12 23 3 89 139 120 67 35
1639 1694 1831 2128 2245 2268 2325 2369 2419 2438 2428 2440 2277 2206 2238 1849 1290 1180 1650 1885 1587 1801 1831 1289 978 809 830 694 426 347 512 762 819 229 84 77 231 178 171 171 73 101 51
1737 1803 1994 2188 2230 2314 2357 2446 2507 2566 2662 2591 2490 2302 2247 2247 1098 1027 1072 2152 2103 2178 2157 1911 1449 1362 1425 1353 802 510 183 46 247 870 579 622 531 418 249 27 83 56 154
1883 2030 2169 2289 2287 2327 2364 2370 2399 2454 2594 2752 2684 2624 2402 2249 1180 981 1039 1635 2383 2462 2249 1994 1653 1667 1677 1689 920 667 446 240 124 162 668 849 743 134 101 159 195 150 212
1935 2160 2296 2252 2377 2483 2484 2416 2375 2341 2357 2452 2740 2848 2783 2646 1330 1136 1117 1444 2166 2490 2065 1856 1650 1654 1612 1473 824 966 746 732 222 150 215 176 36 18 12 34 83 17 46
2068 2176 2309 2380 2435 2508 2591 2579 2593 2503 2390 1999 2424 2760 2427 2875 1788 1306 1169 1565 2016 2076 1762 1715 1634 1462 1579 1180 852 881 1085 943 492 182 155 20 9 10 3 55 167 177 147
2093 2383 2611 2651 2682 2533 2701 2767 2858 2594 2600 2822 2761 2690 2782 2461 2590 1516 1265 1648 1926 1640 1206 906 1040 1352 1365 903 831 889 799 853 316 404 212 100 64 98 20 22 53 1 1
2384 2276 2864 2958 2483 2448 2862 2439 2845 2625 2039 2681 3463 2937 2533 2444 1632 1543 1403 1443 1490 1269 1139 769 851 1346 1057 699 249 246 285 393 427 319 180 124 25 7 4 0 0 0 0
2105 2619 2771 2931 2911 3174 3146 2991 2707 2774 2353 2656 3044 3012 2582 2195 2106 2063 2006 1928 1597 1138 976 1026 1074 833 313 110 72 278 384 403 357 261 271 70 9 0 0 0 0 0 0
2658 2872 2978 2904 3046 3124 2987 2999 2967 3135 3329 3172 3221 2871 2594 2330 2258 2664 2072 1949 1797 1651 400 34 30 169 191 123 89 202 219 357 308 136 13 5 0 0 0 0 0 0 0
2116 2257 2409 2561 2586 2588 2634 2916 3604 3817 3340 3554 3324 2678 2435 2524 2684 2311 2275 1996 1634 980 524 0 48 150 93 60 90 132 185 253 41 2 6 0 0 0 0 0 0 0 0
2152 1759 1175 1133 1573 1884 2137 2393 2685 2708 2881 2885 2675 2293 2389 2208 2144 2084 2108 1296 703 89 0 34 13 41 65 110 149 229 195 102 2 8 0 0 0 0 0 0 0 0 0
2085 1958 1862 1777 1704 1702 1701 1699 1695 1631 1929 2182 2464 2309 2080 2029 2211 2114 1594 394 22 0 0 6 37 87 129 131 122 108 76 0 21 4 0 0 0 0 0 0 0 0 0
2107 2175 2191 2092 1984 1851 1829 1738 1680 1786 1695 1609 1678 1689 1746 1602 1040 855 190 47 0 2 63 0 2 98 161 154 140 45 1 5 1 0 0 0 0 0 0 0 0 0 0
1205 1549 1652 1828 1810 1807 1736 1917 1592 1321 1259 881 715 559 393 108 0 0 0 0 0 17 93 133 51 122 126 36 0 0 0 0 0 1 1 0 0 0 0 0 0 0 0
814 979 922 903 1160 1338 1115 1058 885 714 497 15 0 0 0 1 7 8 0 4 25 7 56 90 81 30 0 0 0 0 0 0 0 0 0 0 0 0 0 0 0 0 0
83 76 73 369 586 792 789 378 0 0 0 0 0 0 0 0 1 31 75 151 61 78 53 0 0 0 0 0 0 0 0 0 0 0 0 0 0 0 0 0 0 0 0
24 71 109 117 4 1 3 0 0 0 0 0 0 0 20 26 48 138 25 1 0 0 0 0 0 0 0 0 0 0 0 0 0 0 0 0 0 0 0 0 0 0 0
397 232 110 42 13 6 1 4 0 3 12 4 17 41 85 26 0 0 0 0 0 0 0 0 0 0 0 0 0 0 0 0 0 0 0 0 0 0 0 0 0 0 0
469 496 496 238 85 29 13 0 0 0 0 15 96 38 0 0 0 0 0 0 0 0 0 0 0 0 0 0 0 0 0 0 0 0 0 0 0 0 0 0 0 0 0
93 172 245 167 99 60 40 1 5 30 59 32 52 37 0 0 0 0 0 0 0 0 0 0 0 0 0 0 0 0 0 0 0 0 0 0 0 0 0 0 0 0 0
10 50 91 55 117 76 37 41 38 16 2 32 46 42 21 3 1 3 1 0 0 0 2 0 0 0 0 0 0 0 0 0 0 0 0 0 0 0 0 0 0 0 0

GFSGL_con_mucape_048.txt.gz
CAPE
2933 3084 3264 3139 2788 3189 2976 3599 3705 3763 3824 3255 2983 2433 2222 2688 3187 3314 3216 2556 2424 1986 1276 1033 1104 595 33 34 35 20 13 4 0 0 0 132 264 355 40 88 138 149 85
2674 3259 3331 3424 3332 3080 3317 3440 3649 3719 4009 4022 3452 3142 2733 2586 3320 3272 3074 2476 2491 2153 1631 1260 1130 516 674 625 116 659 289 353 15 243 100 37 430 347 480 590 194 4 2
2476 2201 2954 3307 3330 3503 3635 3565 3591 3723 3917 3577 3867 3981 3532 3127 3233 3200 3035 2841 2568 2353 1877 1722 1255 924 747 408 379 307 143 136 249 77 69 151 108 305 498 526 426 179 0
1819 2110 2888 3343 3405 3398 3554 3573 3562 3758 3901 4008 4007 4187 3940 3597 3317 3056 2845 2920 2941 2458 2172 1785 1571 1199 909 820 622 936 759 389 587 215 37 15 156 299 302 212 404 412 157
2512 2616 2843 3304 3560 3626 3687 3705 3769 3854 3836 3920 4000 4063 3934 3570 2623 3369 3465 3369 3530 2922 2468 2074 1742 1445 751 923 652 1266 1275 665 70 190 148 46 77 75 300 111 199 245 797
2795 2777 3091 3403 3742 3674 3727 3827 3898 3868 3961 4017 3946 3928 3778 2983 1813 1433 2574 3397 3493 3516 3422 3002 2376 1185 909 555 418 475 785 1151 922 166 179 307 655 208 315 196 217 235 253
2791 3058 3322 3535 3696 3784 3602 3754 3947 3967 3776 3996 3922 3915 3880 3837 1970 1562 1364 3262 3472 3745 3805 3600 2402 1842 1347 1303 766 757 759 632 416 1552 1062 1303 720 888 797 654 862 513 352
2918 3079 3460 3640 3655 3760 3894 3909 4044 3914 3844 4063 4026 3988 3966 3847 2469 1782 1371 2628 3331 3819 3855 3815 3720 3353 2646 1882 1374 1147 1194 1101 512 434 854 1080 1257 1225 1205 1034 611 744 619
2957 3155 3357 3539 3748 3876 3963 3975 4053 3596 3619 3381 3484 4004 4265 3733 2503 2116 1701 2310 2748 3562 3965 3869 3777 3728 2498 1428 1809 1462 1468 1251 566 420 220 325 508 488 355 433 338 555 199
3140 3221 3439 3719 3894 3956 3941 3920 3714 3635 2997 2815 2895 3602 3221 3645 3015 2479 1897 1792 2249 2285 3149 3353 2212 2780 2299 1512 1390 1460 1487 1198 967 513 312 134 165 132 70 214 765 464 183
2412 2435 3345 3926 4160 4076 4208 4001 3790 3507 3418 3601 3367 3664 3515 3425 3527 2658 2508 2128 1557 1790 2330 2556 2919 1745 1801 1566 1265 1185 1030 1123 813 872 370 421 254 173 43 43 282 163 58
3384 2756 3681 3983 3114 2788 4039 3576 3707 3785 3819 3744 3679 2699 2541 2461 2247 2196 2006 2296 2062 2261 2421 2163 2227 1580 1472 1218 865 556 710 483 632 604 685 388 279 162 202 146 171 2 0
3122 3793 3979 3786 3250 3609 3915 3655 3242 3551 3103 3119 2991 2919 2640 2389 1562 1873 2189 2088 1910 1683 2047 1928 1522 1193 832 422 87 17 194 491 435 626 550 429 262 179 244 27 2 0 0
3230 3215 3445 3601 3856 3448 3148 3238 3185 3092 3205 2949 2809 2558 1757 990 2819 2801 2475 2165 2110 2028 1840 1541 1257 941 507 321 1 18 112 441 392 547 433 346 312 9 0 0 0 0 0
2957 3103 3298 3352 3397 3577 3265 3203 3387 3741 3035 3301 3324 3228 2856 3374 3551 2700 2474 2338 2282 2085 2010 1691 1604 1327 534 61 0 1 22 89 339 513 312 206 10 0 0 0 0 1 0
3308 3261 3199 3245 3467 3478 2778 2720 2799 2974 3117 2983 3044 3302 3177 2913 2623 2583 2473 2367 2282 2192 1980 1813 1314 980 189 16 0 23 57 51 238 178 137 21 0 0 1 0 0 0 6
2836 2567 2332 2168 1978 2101 2450 2708 2240 2532 2617 2576 2436 2392 2653 2819 2830 2639 2329 1950 1722 1461 1161 1044 602 36 95 73 0 0 19 42 305 146 118 5 0 0 0 5 4 4 3
1583 1376 1985 1529 1944 2232 2276 2064 1564 1758 1598 1558 1763 1889 2023 1593 1573 1418 1425 1430 1145 768 156 122 259 127 25 18 4 55 48 114 220 161 50 7 0 1 5 12 10 2 0
1713 1751 1634 1637 1488 1491 1407 1291 1418 1428 1274 1198 1135 825 654 677 401 128 738 526 12 31 112 36 51 12 36 51 144 168 193 159 110 46 9 2 4 10 17 12 2 0 0
1073 1313 1406 1474 1400 1335 1330 1449 1350 844 627 688 565 88 2 0 0 0 0 0 0 8 103 98 88 41 25 116 219 224 84 7 10 2 2 7 10 7 7 3 0 0 0
557 564 544 713 800 952 666 918 611 559 370 3 0 0 0 0 0 0 0 0 0 2 28 33 13 39 73 25 0 0 2 1 2 4 14 11 4 1 0 0 0 0 0
532 522 552 541 494 311 201 144 55 4 2 0 0 0 0 0 0 0 1 10 15 8 94 101 118 89 11 3 1 1 3 4 6 5 2 0 0 0 0 0 0 0 0
577 480 439 341 218 45 128 22 2 0 0 0 1 9 13 3 14 55 24 68 55 57 26 6 4 2 1 0 0 0 0 0 1 0 0 0 0 0 0 0 0 0 0
535 463 467 506 421 321 65 63 11 0 0 8 55 80 42 132 52 18 16 3 0 0 0 0 0 0 0 0 0 0 0 0 0 0 0 0 0 0 0 0 0 0 0
381 476 238 88 65 73 63 55 71 2 4 83 237 34 21 23 21 15 4 0 0 0 0 0 0 0 0 0 0 0 0 0 0 0 0 0 0 0 0 0 0 0 0
93 85 203 110 96 77 73 19 1 10 19 86 27 52 29 38 36 18 3 0 0 0 0 0 0 0 0 0 0 0 0 0 0 0 0 0 0 0 0 0 0 0 0

GFSGL_con_mucape_051.txt.gz
CAPE
4050 4050 4165 4109 4078 4204 3753 3888 3854 4379 4385 3915 4176 3516 3498 3708 4139 4523 4215 3820 4029 3665 2945 3030 2551 2649 69 78 99 96 75 86 60 48 44 923 1215 574 233 209 73 511 23
3726 3955 4029 4100 4107 4033 4129 3821 4196 4146 4498 4581 4078 4321 3726 3615 4104 4431 4036 2922 3857 3707 3164 2890 2442 1362 2206 1790 319 1638 515 933 211 1685 807 537 1126 1499 1621 1381 473 7 203
3355 3387 3882 4029 4089 4044 4069 4204 4125 4359 4371 4241 4456 4367 4174 3847 3835 4506 4479 4205 3815 3886 3635 3183 2457 2405 2501 646 880 680 388 807 712 359 474 306 820 657 1051 1481 1444 1056 258
2588 3063 3583 4007 4065 4048 4033 4196 4237 4368 4406 4394 4407 4475 4487 4278 3901 3992 4434 4491 4274 3686 3823 3427 2854 2536 2445 2299 2009 1507 1774 860 725 406 401 386 690 1361 742 359 656 634 384
2986 3187 3520 3945 4234 4252 4185 4139 4331 4367 4393 4491 4531 4513 4595 4460 3611 3923 3755 4300 4548 4198 3947 3780 3269 2568 1694 1931 1366 1513 1266 1282 596 658 628 510 388 474 762 588 447 294 1188
3212 3258 3848 4050 4269 4370 4335 4342 4386 4393 4386 4522 4515 4561 4566 4097 2779 2246 2956 3697 4404 4421 4141 4255 3685 2003 1530 1001 815 515 1061 1572 1167 557 606 739 1140 1439 679 286 338 459 146
3016 3862 3902 4175 4282 4446 4472 4471 4477 4482 4445 4439 4553 4614 4622 4610 3149 2207 1993 3623 4014 4434 4314 4390 4004 2749 1887 2207 831 496 297 521 678 1114 905 1098 2168 1717 1421 2011 1346 953 428
3724 3373 4044 4137 4269 4461 4595 4558 4596 4539 4555 4574 4560 4647 4633 4616 3674 2931 2045 2925 3499 3891 3993 3772 4089 3486 2946 2243 2354 1236 828 649 485 417 500 1001 1626 2011 2301 1866 1811 1648 969
3592 3668 3760 4157 4336 4495 4541 4598 4609 4604 4637 4621 4637 4731 4737 4681 3479 3198 2804 2698 2922 3399 3648 3728 3330 3511 2872 2041 2594 2425 1399 777 537 565 629 450 314 477 1221 1842 1071 463 424
3634 3763 3944 4321 4434 4431 4526 4692 4656 4718 4594 3958 4342 4580 4385 4765 3825 3062 2820 2908 2996 2914 3184 3414 2898 2890 2926 2543 2151 2721 2247 927 794 662 582 378 298 184 379 968 1140 404 280
3144 3746 4275 4328 4521 4588 4733 4744 4739 4646 4114 4465 4428 4614 4684 4446 4147 3135 2800 2506 2698 2878 2887 2799 2960 2442 2544 2747 2503 2134 1620 1112 668 404 437 167 220 179 241 233 568 802 244
4112 4000 4332 4502 4148 3903 4810 4845 4791 4716 4646 4644 4674 4428 4303 4604 3315 3325 3033 2742 2323 3034 3197 2782 2585 2055 2434 2421 2492 2378 1796 1042 499 473 249 216 248 331 277 239 300 566 290
4586 4546 4570 4709 4657 4409 4751 4930 4433 4673 3779 3968 3483 3682 3219 3450 3933 2839 2860 2820 1934 2612 2559 2405 2298 1813 1376 2104 2150 2120 1836 956 749 399 217 105 233 299 403 378 509 448 15
4792 4751 4735 4842 4841 4704 4019 4027 3813 3556 3643 3357 3293 3220 3188 3086 3014 2997 2233 1805 1833 2056 2132 2092 2076 2113 1953 1895 1797 1798 1527 1026 500 610 484 599 322 267 183 239 31 0 0
4186 3903 4563 4070 4316 4415 3393 3000 3373 3488 2969 3460 3290 3273 3211 3131 2680 1961 2200 2270 2383 2112 2203 2100 2095 2102 1887 1724 1801 1651 1039 544 223 487 482 416 157 244 164 31 0 0 0
3771 3574 3144 2922 3796 3562 2986 2557 2815 2899 2814 2744 2843 3081 3097 2961 3001 3125 3103 2736 2729 2556 2521 2450 2412 2194 2164 1406 1307 1100 624 98 274 358 137 108 186 140 88 1 0 3 1
3779 4033 3129 2837 3623 3562 3762 3291 2889 2907 2937 2868 2768 2734 2942 3117 3013 2485 2122 2389 2168 2197 2338 2232 1714 1751 1400 880 643 105 111 103 309 172 101 65 255 62 0 3 0 0 0
3140 2960 3365 3259 3229 3158 2979 3047 2802 2752 2599 2733 2413 2030 2047 1857 2153 1977 1494 1155 1057 865 852 711 971 696 312 219 5 0 74 192 243 76 148 100 7 1 9 18 4 1 0
2423 2454 2508 2626 2708 2584 2633 2322 2021 1639 1149 957 1143 1213 1346 1281 787 688 642 13 0 120 145 56 36 12 28 30 36 46 49 93 111 107 98 20 10 17 28 7 1 0 0
1960 1935 1583 1446 1624 1623 1579 1233 1090 858 801 620 487 324 269 90 3 0 1 21 3 23 87 32 9 6 3 0 5 42 54 110 170 154 118 86 30 15 17 4 0 0 0
946 1026 813 1193 1213 1116 1002 925 773 749 536 350 270 2 0 5 11 0 13 23 20 29 57 48 89 55 0 6 18 54 91 140 175 113 48 19 18 8 5 1 0 0 0
725 874 994 928 832 799 736 492 320 101 46 10 1 0 0 0 2 0 0 11 25 44 58 54 21 2 19 22 99 166 135 61 105 74 67 21 16 3 0 0 0 0 0
411 423 380 163 180 95 253 234 191 149 169 11 3 0 3 15 12 14 17 11 4 9 4 72 141 40 107 73 79 85 33 39 29 81 15 3 0 0 0 0 0 0 0
209 308 263 230 207 88 111 97 10 10 62 49 7 8 3 4 1 18 103 120 95 45 52 18 8 11 21 17 12 13 7 19 6 0 1 0 0 0 0 0 0 0 0
75 87 116 22 43 25 118 43 17 11 19 8 7 41 59 67 59 26 65 17 11 4 1 0 1 0 0 0 0 0 0 0 0 0 0 0 0 0 0 0 0 0 0
18 10 72 37 14 0 0 0 3 1 1 8 37 47 12 11 43 56 32 29 13 5 1 0 0 0 0 0 0 0 0 0 0 0 0 0 0 0 0 0 0 0 0

GFSGL_con_mucape_054.txt.gz
CAPE
3288 3451 3400 3391 3541 2873 2184 2688 2278 2700 2809 3459 4057 3337 3158 3233 3253 3694 3475 3274 3351 3223 2618 2816 2268 1892 2003 1118 878 1047 872 827 612 594 1052 1336 934 501 163 626 348 278 1
3391 3513 3478 3565 3632 3521 2873 2720 2814 3059 3919 3355 3722 3893 3182 3016 3145 3469 3331 2752 3511 3376 2958 2731 2721 1932 2098 1922 1737 837 808 1031 862 1117 1488 1198 1020 817 1040 975 452 43 77
3234 3601 3592 3585 3684 3683 3578 2956 3187 3294 3113 3986 4057 3421 3231 2999 2975 3195 3382 3608 3167 3488 3337 2882 2232 2275 1962 1328 1036 1157 1075 1444 1915 903 1113 1258 1180 1171 861 939 1213 838 583
2758 3413 3598 3647 3722 3814 3734 3637 3363 3224 3717 3415 3748 3871 3443 3241 2988 3025 3310 3577 3590 3222 3480 3264 2766 2170 1909 2008 1147 849 1083 975 734 996 634 492 1174 863 784 774 719 755 596
2526 3042 3421 3580 3767 3759 3820 3749 3804 3695 3454 3883 3799 3704 3796 3511 3313 3073 3069 3544 3738 3555 3203 3447 3060 2516 1925 1844 1644 1268 589 826 776 454 449 522 451 1082 537 617 500 767 532
2720 2718 3334 3562 3730 3943 3880 3895 3819 3928 3863 3861 4006 3993 3797 3772 3373 3028 2900 3176 3673 3628 3593 3132 3224 2791 2333 1823 1648 1278 1097 550 583 489 411 320 309 585 771 396 599 645 261
2971 3275 3393 3661 3752 3895 4066 4009 3998 3929 4020 3951 4085 4073 4008 3932 3529 3200 2795 3062 3138 3374 3491 3371 3168 3075 2636 2265 1883 1510 1074 778 435 586 375 284 421 521 855 979 671 329 309
3443 3582 3746 3910 3868 4021 4086 4177 4138 4079 4066 4117 4084 4145 4098 4079 3741 3434 2933 2639 3048 3115 3148 3397 3387 3063 2997 2690 2317 1927 1540 1114 552 495 456 313 506 509 580 623 512 465 500
3594 3848 3482 3826 4091 4077 4168 4210 4284 4243 4261 4200 4240 4176 4205 4086 3780 3664 3410 2948 2598 2780 3176 3253 3382 3339 3077 2922 2508 2148 1878 1423 983 431 328 356 363 222 209 249 401 382 222
3657 3567 3884 3695 4014 4147 4134 4292 4365 4404 4303 4320 4273 4251 4108 4244 4054 3762 3588 3243 2845 2591 2814 2994 2979 3142 3178 3073 2724 2297 1986 1722 1487 1022 506 191 119 64 159 183 120 176 200
3637 3790 3814 3737 3970 4184 4329 4364 4436 4456 4343 4289 4293 4311 4379 4305 4344 4097 3715 3318 3182 3047 2890 2659 2820 2847 2845 3070 2955 2687 2376 2043 1758 1539 1073 650 221 56 105 101 165 221 199
4410 4027 3984 4325 3632 4089 4387 4428 4503 4498 4407 4390 4403 4277 4285 4418 4085 4099 3952 3657 3132 2962 3091 3126 2999 2811 2777 2647 2727 2773 2760 2504 2096 1898 1669 1123 688 240 299 120 47 190 200
4497 4537 4367 4289 4342 3843 4391 4417 4520 4562 4481 4436 4178 4420 4169 4025 4404 3935 3740 3695 3567 3247 2790 2533 2279 2449 2526 2266 2295 2211 2394 2497 2560 1821 1225 897 601 424 309 127 92 153 105
5271 4806 4729 4650 4514 4390 4213 4405 4542 4460 4447 4212 4141 3879 3938 4130 3621 4191 3679 3483 3322 3159 2990 2968 2830 2423 2178 2176 2061 2053 1895 2061 2184 1469 1091 756 648 358 121 136 109 117 103
4977 4856 4769 4581 4446 4673 3607 3965 4295 4190 3883 4288 3895 3988 3829 3677 3475 3341 3498 3137 2882 2663 2399 2312 2014 2054 2140 2029 1949 1975 2094 1785 1485 1157 970 607 355 139 159 136 89 88 53
4573 4620 4402 4050 4471 4358 3717 2924 3441 3623 3467 3166 3284 3186 3030 3039 3027 3050 2876 2778 2271 2260 2286 2457 2551 2466 2253 2364 2294 2302 1663 1224 929 851 451 85 136 110 98 84 59 55 6
4686 4163 3748 3369 3768 3923 3414 3214 2719 2949 3010 2811 2751 2852 3071 3018 2977 2854 2759 2750 2816 2856 2790 2363 1984 1940 1947 2174 1581 1771 705 781 500 271 73 89 101 82 77 52 74 10 0
4476 3094 3886 3346 3710 4036 4001 3530 2864 2460 2721 2879 2746 2731 2691 2755 2823 3011 2988 2858 2137 1609 1466 661 368 331 329 538 611 600 372 340 39 80 64 43 55 43 28 25 6 0 0
3836 3728 4142 4052 4576 3819 3887 3655 3090 3027 2848 2698 2677 2830 2613 1986 1775 1966 1851 1291 897 583 15 6 28 38 39 23 2 1 4 13 16 31 24 44 43 11 3 1 0 0 0
2967 2854 2945 2910 2947 2961 2603 2554 2393 1913 1681 1016 1276 1327 1109 1068 1098 1005 382 62 18 2 9 5 1 2 3 3 1 14 22 21 3 3 5 23 4 2 0 0 0 0 0
2299 2464 2485 2224 2227 2061 2059 1520 941 954 772 563 395 190 212 152 33 0 1 11 7 17 10 56 13 15 27 14 7 12 0 0 6 13 1 2 20 26 2 0 2 0 0
1209 1345 1407 1342 1590 1154 1035 991 882 461 277 120 84 9 0 3 4 13 10 18 18 62 54 50 10 21 9 3 8 46 44 43 26 2 4 13 27 13 17 12 2 0 0
809 783 543 462 407 318 240 224 218 62 3 9 0 0 1 10 17 2 0 5 77 42 73 97 105 20 0 1 4 13 18 21 55 48 31 53 4 4 2 3 0 0 0
338 305 138 69 55 7 32 6 66 45 30 19 21 6 6 61 59 51 37 50 12 8 26 152 139 26 77 89 71 28 15 67 26 40 71 25 18 8 3 0 0 0 0
17 19 16 18 5 19 30 18 0 0 4 4 6 6 95 64 34 91 317 116 60 61 98 95 15 52 103 83 15 9 0 1 20 7 20 6 4 3 0 0 0 0 0
52 69 92 63 13 9 3 0 0 0 2 6 7 1 2 0 13 32 69 72 42 16 14 19 11 3 2 0 0 0 0 0 0 0 3 0 0 0 0 0 0 0 0

GFSGL_con_mucape_057.txt.gz
CAPE
1739 1428 1834 2085 1768 1063 1608 1865 752 708 1113 2862 2329 2146 2074 2097 2557 2323 1792 2382 2612 2327 2060 1814 1519 1379 698 303 320 138 118 18 8 6 107 74 38 242 31 3 11 9 21
1745 1925 1619 1983 2459 2059 1156 1312 1932 956 1327 1528 2747 2607 2365 2215 2083 2418 2413 2287 2234 2493 2350 1966 1805 1587 1167 679 835 112 48 97 11 0 213 478 41 14 26 30 66 25 28
1724 1853 2281 2098 2262 2620 2357 1391 1373 1813 1334 1877 1549 2587 2423 2291 2305 1966 2323 2632 2396 2426 2438 2289 1891 1767 1552 1236 836 670 238 19 165 98 31 265 247 139 148 89 102 67 75
1671 2137 2208 2605 2516 2494 2699 2522 1660 1777 1840 2243 2469 1939 2579 2268 2141 2294 2448 2405 2433 2182 2526 2669 2448 2091 1781 1646 1308 582 273 404 273 592 394 362 308 344 57 81 194 352 275
2018 2203 2470 2547 2691 2637 2589 2742 2603 1813 2314 1932 2058 2835 2552 2588 2278 2181 2221 2471 2638 2689 2401 2528 2719 2703 2459 2040 1504 1144 354 104 421 162 139 175 120 309 334 158 36 68 209
1091 2273 2474 2784 2795 2768 2841 2809 2912 2805 2122 2310 2736 2160 2772 2810 2753 2460 2360 2410 2538 2696 2872 2705 2607 2790 2780 2650 2308 1805 1215 382 6 263 259 65 152 89 147 85 185 215 296
1453 1478 2363 2724 2936 2960 3044 3060 3036 3007 3015 2780 2450 2902 2802 2877 2926 2851 2802 2474 2469 2696 2824 2854 2846 2671 2859 2937 2784 2554 2141 1651 1094 516 138 264 184 169 115 204 143 107 90
1540 1861 1841 2557 2937 2980 2978 3107 3056 3088 3093 3138 3102 2909 3132 3153 3152 3107 3036 3020 2760 2541 2758 3066 3017 2973 2791 2784 2871 2806 2607 2244 1884 1521 1106 708 236 236 149 250 326 202 168
2277 2146 2229 2649 2959 3057 3051 3131 3233 3200 3197 3141 3247 3261 3230 3313 3315 3408 3347 3278 3134 2950 2783 2737 2950 3162 3086 2958 2866 2836 2693 2521 2346 2065 1756 1430 1051 452 282 168 164 152 95
2315 2951 3052 2838 3042 3064 3267 3246 3466 3413 3352 3370 3304 3383 3368 3326 3449 3499 3549 3419 3159 3074 2899 2792 2792 2844 2921 3208 3219 2975 2832 2561 2453 2277 1985 1765 1419 864 593 459 217 53 38
2919 2555 3019 3327 3247 3354 3284 3437 3501 3678 3684 3577 3567 3490 3520 3660 3607 3650 3679 3613 3303 3030 2784 2590 2532 2533 2748 3005 3208 3274 3082 2839 2686 2535 2370 2371 1936 1768 1362 902 249 116 82
2955 3118 3168 3154 3348 3589 3665 3629 3718 3779 3856 3846 3747 3716 3796 3815 3838 3801 3768 3810 3632 3433 3275 3136 2966 2875 2860 2697 2709 2719 2944 3131 3043 2817 2654 2401 2058 1623 1378 661 215 184 57
3809 3320 3210 3200 3326 2924 3698 3799 3821 3901 3943 3923 3858 3859 3800 3724 3858 3995 4008 3979 3988 4003 3774 3513 3340 3459 2916 2738 2579 2445 2633 2561 2600 2322 2009 1866 1782 1540 1065 941 162 25 44
2845 3949 3606 3423 3775 3298 3690 3786 3938 4012 4057 3976 3973 3910 3746 3872 3952 3764 3970 4038 3976 3962 3964 3885 3765 3416 3220 3052 2888 2851 2652 2165 1964 1893 1648 1336 1144 1038 711 228 36 57 86
2247 4320 4302 3889 3610 3803 3279 3889 3963 3994 4045 4007 3938 3832 3883 3666 3534 3823 3830 3500 3871 3856 3771 3738 3675 3426 3171 2821 2423 2038 1840 1823 1784 1613 1424 1046 574 524 65 38 65 36 36
3107 2976 4451 4225 3974 3980 3700 3272 3374 4005 4000 4075 4038 3890 3638 3503 3622 3432 3396 3513 3392 3492 3333 3192 3175 2943 2102 2139 2209 2094 1871 1709 1520 1374 642 444 167 15 18 64 48 43 55
3828 3828 3630 4161 4082 4054 4002 3685 3085 3031 4181 3961 3768 3533 3851 3417 3009 2999 3044 3008 2932 2827 2721 2348 2526 2576 2330 2660 1427 1077 986 840 646 547 354 100 8 46 86 91 48 59 12
3039 3958 3756 3466 3539 3887 3952 3950 3699 3175 2975 3296 3529 3300 3014 2973 2940 2858 2804 2784 2735 2692 2739 2763 2497 1502 845 138 20 24 10 9 21 20 23 14 33 41 44 34 1 2 7
3285 4011 3559 3302 3034 3394 3714 3402 3394 3417 2974 2642 2722 3000 2834 2690 2651 2587 2503 2630 2610 2490 2241 1587 783 197 0 0 0 0 0 0 7 18 13 20 25 47 6 0 0 0 0
3057 3610 3239 3248 3197 3438 3578 3534 3431 2772 3041 2524 2612 2654 2621 2655 2658 2616 2097 872 793 650 343 49 1 0 0 0 2 0 0 6 0 16 8 12 2 0 0 0 0 0 0
2832 3075 2968 3045 3243 3328 3575 3279 2978 3404 3056 2718 2319 1900 1851 2095 1871 1043 537 394 109 0 0 0 0 0 0 0 0 0 3 0 0 1 0 0 0 0 0 0 0 0 0
1905 2904 2633 2652 2738 2787 2760 2914 2951 2532 2051 681 444 280 166 43 12 0 0 0 0 0 1 1 0 0 0 0 0 0 0 0 0 0 0 0 0 1 0 0 0 0 0
1392 1773 2222 2291 2377 2355 1932 1588 1632 1249 153 35 5 0 0 0 0 0 0 0 0 0 1 0 0 0 0 0 0 0 0 0 0 0 0 4 11 2 2 0 0 0 0
1056 988 1204 1696 1871 1756 1524 1335 649 10 1 2 0 0 0 0 1 1 0 1 2 2 4 2 0 0 0 0 0 0 2 7 5 1 9 15 12 7 15 9 14 6 3
966 756 295 102 591 300 48 60 37 7 2 4 10 16 12 20 24 34 21 24 15 10 18 23 46 21 15 34 19 14 10 14 11 20 21 9 26 27 23 17 21 19 5
470 462 194 368 9 30 7 7 9 7 24 36 26 27 48 25 13 14 16 24 31 25 13 9 0 20 12 10 6 8 7 14 11 42 34 16 9 15 21 28 20 6 0

GFSGL_con_mucape_063.txt.gz
CAPE
324 341 290 298 335 325 348 337 349 275 203 52 697 1032 1219 1444 1500 1571 1623 1565 1312 1343 1295 1384 1465 1368 927 824 345 36 28 18 5 6 1 0 22 72 75 57 71 50 26
191 276 319 338 397 540 634 348 307 234 264 304 190 887 1201 1273 1448 1473 1445 1502 1514 1514 1551 1613 1704 1708 1587 1283 959 495 66 0 2 15 14 20 22 26 33 38 41 36 40
86 242 392 355 312 314 426 865 890 722 578 359 516 948 1090 1203 1305 1510 1504 1430 1453 1460 1348 1494 1712 1905 1842 1761 1731 1534 909 431 2 0 16 14 13 15 0 15 21 29 37
202 195 333 570 585 542 365 293 505 894 890 1051 820 509 1124 1397 1703 1769 1630 1655 1533 1430 1451 1590 1628 1723 1830 1829 1729 1739 1633 1468 971 252 26 27 40 34 20 14 0 37 39
352 372 417 453 650 767 813 719 517 483 759 746 761 777 899 1274 1443 1780 1975 1755 1691 1558 1569 1644 1756 1681 1671 1612 1386 1510 1665 1713 1701 1645 1526 1237 955 529 87 28 21 15 13
553 559 564 587 679 960 1219 1230 1059 842 680 771 799 739 818 1061 1223 1687 1740 1740 1790 1600 1596 1690 1751 1712 1763 1868 1938 2053 1995 1682 1587 1566 1410 1228 1150 1056 955 839 467 189 112
663 731 839 918 897 929 1280 1664 1749 1465 1261 1094 944 879 856 925 1139 1353 1763 1586 1477 1534 1539 1520 1553 1581 1680 1744 1822 1981 2046 2059 1994 1860 1744 1701 1658 1627 1697 1675 1437 1168 864
695 908 1037 1127 1262 1384 1273 1421 1680 1946 1829 1617 1438 1362 1311 1183 1400 1445 1470 1600 1571 1678 1730 1751 1777 1782 1829 1945 2013 2068 2083 2082 2078 2072 2055 1979 1941 2081 2184 2168 2027 1893 1730
602 875 1048 1235 1272 1445 1834 1764 1770 1833 2089 2121 1919 1777 1722 1715 1628 1541 1870 1892 1846 1888 1933 2000 2057 2110 2184 2286 2358 2417 2442 2493 2553 2590 2614 2596 2583 2524 2201 2019 1912 1613 1366
731 906 1062 1139 1374 1627 1752 1999 2040 2121 2131 2236 2383 2331 2199 2118 2080 2124 2015 1955 1930 2057 2127 2261 2353 2421 2488 2571 2603 2643 2695 2683 2550 2642 2731 2734 2675 2619 2556 2429 2219 1452 1038
878 860 900 1510 1605 1810 2048 2121 2297 2360 2443 2530 2581 2603 2633 2667 2688 2686 2639 2546 2525 2559 2621 2661 2659 2653 2650 2671 2694 2767 2796 2756 2874 2757 2789 2785 2775 2772 2587 2367 2035 1788 1038
1345 1335 1360 1400 1524 1934 2117 2337 2452 2609 2693 2732 2769 2772 2815 2859 2884 2896 2914 2918 2918 2949 2967 2990 2998 2982 3051 3140 3161 3103 3057 3134 3010 2906 2779 2819 2501 2224 2020 1752 1288 955 740
2041 2176 2150 2165 2097 2010 1973 2229 2543 2632 2624 2742 2789 2769 2810 2896 2981 2999 3016 3061 3110 3190 3259 3323 3388 3444 3394 3406 3425 3384 3399 3341 3093 2920 2643 2481 2059 1687 1475 1342 928 636 145
2425 1998 2261 2436 2478 2464 2409 2341 2399 2647 2694 2741 2896 2973 2997 3062 3141 3208 3248 3314 3396 3476 3584 3652 3674 3935 4183 3517 3554 3620 3491 3283 3355 2814 2622 2005 1521 1011 921 686 319 174 134
2492 2710 2824 2846 2650 2682 2819 2918 2885 2872 2916 2921 2996 3099 3231 3333 3397 3405 3450 3520 3559 3613 3683 3732 3745 3751 3831 3729 3600 3414 3237 3526 3082 2516 1762 946 487 327 310 74 2 1 1
2049 2142 2168 2426 2664 3119 2844 2935 2956 3286 3222 3268 3331 3331 3371 3400 3470 3533 3598 3641 3670 3705 3721 3745 3699 3676 3574 3553 3468 2971 3068 2648 2583 1293 474 97 34 137 2 0 0 0 11
554 824 963 1254 1468 2312 2975 2871 3105 3143 2918 3421 3482 3594 3720 3723 3796 3761 3776 3766 3631 3499 3520 3475 3466 3587 3241 3207 3232 2537 2301 1699 652 0 1 1 32 0 0 0 0 0 0
361 727 833 1100 1311 1634 2120 2892 3089 3385 3631 3154 2836 3418 3667 3783 3872 3866 3877 3909 3535 3189 3070 3186 3182 3321 3297 3040 2527 2368 1343 0 0 0 4 4 0 0 4 0 0 2 9
181 490 748 1029 1483 1696 2229 2713 3106 3213 3663 3637 3200 2968 2933 3625 3774 3574 3355 3108 3175 2729 2788 2661 2625 2547 2523 2416 1891 589 0 0 0 0 0 58 86 35 0 73 7 14 5
147 369 656 914 1464 1660 2294 2949 3213 3053 3237 3678 3586 3389 3010 2906 3160 2737 2760 2746 2974 3326 2999 2552 2433 2091 1426 725 37 0 0 0 0 0 0 4 34 11 2 1 4 0 0
132 287 547 917 1451 1600 2088 2498 2834 3207 3054 3429 3553 3441 2534 2503 2388 2553 2618 2529 2751 3024 2582 2583 2185 1196 60 0 0 0 0 1 4 0 0 5 11 12 13 0 6 0 0
99 315 595 1286 1524 1624 1910 2388 2603 3115 3130 3114 3232 3425 2897 2449 2180 2244 2014 2236 2354 2000 2206 2029 1490 409 0 0 0 0 0 0 0 0 0 0 0 0 0 1 2 0 0
5 285 712 1398 1385 1308 1835 2330 2635 2894 2951 3056 3004 2824 2396 2544 2393 2054 2054 1526 1562 1569 1611 986 247 0 0 0 0 0 0 0 0 0 0 0 0 0 0 1 3 0 0
24 632 894 1113 1123 1316 1527 2069 2356 2700 2692 2883 2811 2251 2084 2324 2135 2010 1401 767 222 81 8 3 1 0 0 0 0 0 0 0 0 0 0 0 0 0 0 0 0 2 0
367 720 887 613 727 1282 1646 1809 2242 2400 2399 2567 2453 1970 1648 1751 1299 762 959 265 1 12 11 11 15 8 0 0 0 0 0 0 0 0 0 0 0 0 0 1 9 6 1
479 576 550 683 823 1233 1240 1491 1771 1901 1448 1978 1662 850 1179 699 523 804 296 91 24 11 21 16 10 0 0 0 0 0 0 0 0 0 0 2 2 31 18 25 25 11 17

GFSGL_con_mucape_066.txt.gz
CAPE
233 247 133 119 84 42 37 41 30 28 30 0 282 522 729 1077 1146 1070 1266 1310 1517 1560 1310 1100 1216 1264 1220 1088 903 672 319 26 12 58 6 11 39 68 110 101 46 71 88
267 267 320 244 170 104 101 95 83 51 75 12 71 433 689 965 1254 1228 1255 1375 1374 1533 1605 1430 1358 1313 1430 1572 1557 1391 812 403 36 31 18 0 28 56 56 50 32 29 29
294 292 318 334 218 150 127 106 114 136 154 168 128 96 345 704 1040 1319 1396 1403 1329 1511 1621 1545 1631 1445 1590 1507 1721 1830 1647 1533 1419 947 231 75 16 1 9 5 9 22 12
271 285 326 328 251 241 298 403 185 167 187 185 176 342 516 720 939 1148 1442 1468 1378 1360 1434 1512 1584 1560 1636 1788 1582 1559 1620 1625 1501 1424 1402 1314 1229 1158 1156 1194 882 537 347
240 266 305 289 260 224 196 268 569 530 410 393 360 355 309 642 908 1177 1400 1641 1634 1697 1585 1636 1642 1615 1486 1602 1773 1724 1595 1340 1239 927 995 1015 906 752 661 639 737 796 935
258 255 193 311 416 388 336 221 197 210 654 675 560 467 372 416 563 664 886 1343 1702 1813 1769 1790 1658 1552 1520 1596 1728 1807 1680 1468 1441 1516 1376 1275 1182 1201 1231 1309 1584 1774 1977
392 295 269 286 429 559 616 671 612 401 369 510 639 639 586 477 373 575 798 1196 1362 1503 1705 1829 1783 1721 1612 1800 1682 1746 1789 1806 1819 2039 2049 1902 1751 1808 2074 2239 2380 2470 2258
447 426 436 478 496 564 744 954 1028 983 761 627 561 685 762 733 511 468 668 917 1384 1448 1473 1508 1569 1598 1644 1650 1846 1884 1747 1828 1951 2058 2137 2238 2321 2443 2530 2565 2450 2276 2075
553 585 693 761 803 794 843 996 1300 1567 1527 1261 1041 930 859 918 849 855 849 814 964 1397 1575 1638 1747 1794 1620 1579 1737 2017 2163 2231 2303 2422 2456 2447 2448 2451 2477 2439 2278 2064 2032
642 759 902 1015 1090 1201 1205 1091 1182 1462 1741 1940 1886 1662 1377 1287 1237 1270 1327 1355 1345 1339 1560 1742 1556 1661 1735 1889 2078 2239 2385 2468 2550 2644 2627 2667 2704 2652 2634 2566 2495 2268 1887
707 680 908 1074 1198 1215 1345 1602 1745 1772 1847 1940 2122 2207 2101 1805 1851 1990 2045 2040 2081 2094 2081 2068 2157 2200 2361 2515 2583 2617 2688 2798 2790 2826 2911 2831 2709 2691 2673 2412 2008 1639 1410
799 856 879 1014 1132 1323 1504 1608 1872 2019 2113 2210 2271 2362 2485 2521 2363 2454 2486 2517 2582 2599 2582 2609 2665 2751 2845 2929 3004 3090 3171 3224 3126 3043 2851 3277 2675 2623 2326 1791 1880 1450 1149
932 850 952 1031 1411 1557 1705 1913 2073 2236 2306 2388 2521 2604 2686 2716 2734 2657 2710 2749 2814 2856 2856 2926 2964 3049 3160 3209 3241 3192 3244 3268 3235 3353 3079 3311 2730 1920 1628 1290 754 704 573
1447 1525 1509 1765 1931 1988 1966 2029 2254 2391 2461 2605 2727 2765 2674 2704 2763 2711 2778 2879 2945 3007 3038 3136 3206 3291 3337 3206 3284 3354 3437 3468 3576 3341 2986 2378 2046 1480 938 291 257 156 5
2235 2336 2379 2350 2244 2182 2200 2191 2155 2393 2512 2619 2616 2644 2791 2854 2758 2796 2887 3005 3109 3207 3320 3427 3472 3582 3572 3684 3184 3252 3434 3547 3221 2865 2757 2428 1362 613 224 1 2 1 3
1755 1822 1987 2202 2438 2700 2526 2531 2549 2663 2647 2647 2714 2731 2854 2840 2824 2959 3097 3257 3391 3527 3652 3649 3561 3547 3248 3423 3376 3345 3258 2979 2702 2542 2002 1307 198 11 0 0 5 3 6
867 787 591 756 1009 1421 2120 2756 2721 2475 2771 2973 3037 3030 3062 3127 3242 3296 3401 3513 3588 3643 3683 3529 3735 3334 3362 3416 3447 3101 3122 3321 2556 2120 1010 18 0 0 0 0 1 2 5
15 29 240 470 738 1161 1394 1634 1790 2489 2652 2470 2928 2970 3216 3328 3391 3525 3651 3684 3689 3677 3706 3498 3385 3352 3450 3363 3468 3274 3159 2586 2280 405 5 2 2 0 0 0 1 0 0
0 1 96 304 497 811 1245 1499 1864 2266 2497 2817 2905 3319 3105 2877 3290 3517 3670 3750 3813 3548 3166 3404 3119 2838 2863 3098 3185 2862 2512 2174 424 3 1 5 19 3 3 0 1 0 0
0 0 1 70 334 532 1060 1314 2340 2400 2874 2861 2744 3024 3373 3119 2967 2988 3440 3564 3425 3213 2590 2874 2407 2551 2587 2521 2463 2287 1552 159 0 0 9 5 69 4 3 1 1 0 0
0 1 1 69 358 468 867 1249 1440 2151 2317 2742 2898 2851 3275 3367 2891 2553 2750 2670 2423 2513 2435 2438 2540 2620 2763 2323 1729 542 0 0 0 0 6 3 5 7 7 6 0 0 0
0 0 0 2 337 559 815 1179 1227 1753 1989 2284 2920 2962 3227 3255 2727 2191 2183 2053 1970 2040 2100 2128 2286 2053 2351 1960 1326 415 0 1 2 2 1 4 8 1 5 18 7 0 0
0 0 0 2 41 356 547 1169 1217 1829 1666 2129 2806 3013 3054 2772 2974 2494 1888 2189 1866 1930 1786 1560 1386 1367 1712 1476 1008 294 0 0 0 0 0 0 3 1 0 1 3 2 2
0 0 0 5 32 206 453 965 991 1544 1830 1963 2154 2732 3061 3138 2760 1936 1631 1634 2079 1516 1064 787 707 1248 1126 618 93 0 0 0 0 0 0 0 0 0 0 0 0 0 1
0 0 2 8 43 454 673 515 609 1230 1426 1473 2247 2141 2445 2653 2118 1764 1740 1547 1215 1085 1229 392 226 0 0 0 0 0 0 0 0 0 0 0 0 0 0 0 0 0 0
1 14 33 6 8 507 149 277 372 410 1289 922 1976 1538 1728 1684 2032 1900 1311 1108 1183 987 571 315 189 5 0 0 0 0 0 0 0 0 0 0 0 0 0 0 0 4 8

GFSGL_con_mucape_069.txt.gz
CAPE
1048 1111 1227 1282 1034 1099 1016 1017 1409 1201 1072 1139 1309 1403 1521 1624 1862 2165 2274 2177 2465 2658 2710 2608 2574 2525 2120 1959 1774 1465 1271 859 748 371 359 371 656 791 804 944 852 831 496
967 1169 1222 1355 1422 984 1220 984 941 1224 1109 1126 1164 1320 1386 1505 1732 1994 1982 1873 2368 2545 2678 2804 2812 2478 2643 2608 2288 2400 2064 1769 1162 2097 1686 1135 1347 845 1293 960 710 312 509
826 796 1191 1379 1305 1547 1507 1457 1202 1210 1304 1038 1181 1319 1589 1472 1697 1913 2031 2132 2463 2578 2653 2784 2781 2829 2948 2681 2622 2309 2058 2250 2095 1755 1916 1819 1827 1414 1443 1386 975 1349 672
711 855 1267 1454 1501 1485 1591 1653 1269 1499 1508 1298 1453 1639 1455 1271 1308 1354 1561 2067 2297 2333 2469 2584 2650 2752 2885 3044 2968 2924 2788 2627 2500 2135 1787 1644 1576 1936 1555 1208 1226 1346 1374
1109 1173 1343 1565 1594 1711 1755 1674 1385 1427 1570 1815 1558 1430 1418 1297 966 1605 1588 1792 2225 2393 2490 2628 2670 2462 2146 2356 2696 3377 3116 2797 2497 2260 2137 2082 2002 2042 2371 2011 1911 1835 1971
1257 1310 1575 1717 1757 1768 1841 1911 1825 1678 1377 1721 1605 1531 1513 1092 497 435 1056 1665 1865 2213 2279 2427 2631 2111 1847 1681 1573 1565 1974 3407 3076 2695 2400 2501 3643 3077 2624 2599 2721 2423 2486
1272 1430 1672 1833 1863 1865 1839 1822 2026 2182 1804 1958 1757 1624 1743 1719 764 364 348 1293 2010 2401 2774 2635 2002 1523 2182 2701 2324 1954 1737 1615 1672 2921 3414 3358 3638 3518 4042 3861 2966 2502 2299
1385 1430 1557 1800 1856 1913 1899 1921 1886 1434 1810 2100 1895 1940 2012 1995 1092 592 322 975 2056 2520 2603 2654 2799 2748 2921 2540 2326 2283 2435 2447 2213 1768 2298 2737 3013 3352 3773 3698 2731 2474 2202
1533 1570 1586 1602 1783 2003 2032 2021 1912 1888 1877 1908 1871 2070 2368 2301 1097 715 470 810 1115 2257 2470 2707 2830 2870 2236 1736 2122 2361 2851 2690 2299 2198 2131 2200 2391 2428 2477 2514 2461 2325 2073
1695 1700 1750 1759 1857 1953 2053 2172 2326 2349 2159 1837 1869 2015 1649 2299 1464 973 707 1175 1816 1578 2486 2796 1824 1876 2090 1852 1963 2358 2944 2907 3127 3357 3395 2804 2679 2645 2636 2603 2560 2488 2452
1423 1528 1891 2010 2075 2207 2283 2407 2487 2489 2586 2719 2767 2736 2484 2229 2200 1340 1053 1509 1751 2053 2144 2302 2427 1833 1601 1588 1755 2797 3166 3134 3182 3464 3562 3456 3285 2876 2817 3231 2635 2171 1397
2051 1946 2230 2306 1813 1779 2719 2538 2643 2773 2774 2826 2791 2640 2669 3031 2165 2043 1601 1686 1859 2481 2722 2827 2990 2391 2307 2461 2601 2698 2803 2877 3031 3260 3077 2969 2991 2912 2959 2832 2587 1921 1125
1938 2322 2450 2592 2488 2623 2782 2732 2518 2773 2516 2606 2600 2665 2681 2859 3195 2573 2190 2170 2288 2369 2721 2801 2682 2653 2730 2842 2947 3029 3020 3055 3048 2938 3170 3074 2940 2727 2468 2002 1652 1022 250
1833 1906 1855 2006 2221 2402 2210 2285 2321 2389 2605 2587 2755 2874 2982 3157 3339 3429 2758 2514 2567 2654 2688 2748 2809 2867 2908 2967 2997 2980 3019 3047 3141 3233 3294 3312 3435 2591 2064 1817 750 93 0
2175 1926 1561 1636 1799 2230 2408 2285 2386 2936 2540 2829 2980 3117 3283 3438 3435 3124 3359 3417 3081 2666 2796 2901 2980 3023 3059 3171 3160 3612 3339 3161 3268 3399 3354 3416 2687 2369 1913 738 38 13 8
1850 1954 2267 2830 2851 2369 2177 2006 2072 2114 2334 2448 2544 2779 3304 2897 2957 2948 2814 2890 2870 3003 3147 3251 3256 3262 3162 3097 3792 3495 3040 2997 3166 3226 3020 2588 2399 1909 787 55 16 34 9
1062 1090 1280 1578 2197 2920 2881 2533 2670 2141 2247 2414 2495 2617 2704 2733 2914 2862 2931 3062 3163 3320 3382 3411 3402 3175 3047 3377 3431 3578 3083 3152 2920 2806 2588 2714 2133 875 62 0 20 31 24
567 109 382 1275 1711 1929 2073 2357 2472 2353 2726 2904 2418 2482 2780 2917 2959 3008 3158 3285 3375 3426 3421 3513 3171 2859 2819 3141 3129 3288 3267 3297 2931 3209 2978 2276 641 122 7 1 5 17 1
254 153 11 165 912 1211 1730 1922 2034 2161 2512 2707 2484 2537 2637 2962 2994 3059 3222 3358 3485 3586 3150 3358 3223 3055 3022 3107 3044 3121 3206 3411 3397 2871 2373 1212 75 62 17 19 7 0 1
35 15 3 0 9 579 1142 1684 1729 1928 1957 2192 2666 2437 2381 2714 3128 2909 2965 3297 3325 3999 3910 2868 3246 2544 2711 2847 2636 2732 2959 2908 2531 2338 1388 89 64 11 11 12 0 11 0
0 0 0 0 0 44 436 1209 1478 1651 1653 1575 1908 2032 2602 2594 2945 3213 2869 2922 3214 3365 3110 2585 2602 2400 2367 2335 2347 2405 2380 2352 1923 912 83 11 30 13 10 3 21 0 0
0 0 0 0 0 0 160 455 1199 1500 1383 1114 1127 1458 1837 2767 2884 3161 3222 2945 2594 2942 2687 2355 2333 2402 2416 2268 2006 2287 2413 1935 1226 357 10 7 14 12 3 11 5 13 3
0 0 0 0 0 0 1 208 362 1173 1293 1229 915 933 1797 2387 2914 3175 3248 2400 1920 1716 1734 1777 1786 1699 1619 1552 1594 1624 1763 1558 1170 660 204 0 6 0 2 5 74 2 18
0 0 0 0 0 0 3 99 216 578 938 862 866 671 1346 1972 2558 2889 3032 2878 2242 1850 1462 1500 1304 1230 1068 877 639 670 911 1127 758 277 6 13 1 2 11 16 11 8 20
12 0 0 0 0 0 56 127 439 681 390 314 451 688 1145 1581 1929 2288 2253 2247 2545 1862 1554 1462 1136 1071 794 689 578 628 288 23 0 0 12 15 17 27 27 22 17 14 10
13 5 11 5 4 6 5 4 50 220 201 287 112 660 1015 999 1249 1646 1828 1767 2063 1635 1564 1566 1363 929 788 719 304 112 0 0 0 0 11 19 33 42 37 39 34 38 28

GFSGL_con_mucape_075.txt.gz
CAPE
2474 2332 2376 2397 2169 2538 2402 3030 2885 3047 3138 2998 2304 1969 1722 2028 2624 3737 3704 2863 3564 3757 3179 3000 3311 4072 2174 1558 1517 1664 1566 1306 1342 1342 1256 1672 3835 3227 2606 2552 2170 2878 1820
2302 2545 2467 2844 2652 2636 2527 2406 2947 3264 3652 3565 3363 2950 2422 2038 2962 3193 2417 2255 2272 2380 2627 3865 3382 2618 4758 4560 2657 3867 2432 3017 2093 3397 2764 2367 3483 3579 4238 4737 3150 2232 2472
2221 2081 2689 2866 2952 2813 2916 2821 2778 3305 3592 3183 3475 3701 3275 2529 2699 3008 3373 2935 2185 2542 3045 3660 3648 4166 4729 3624 4444 3391 2558 3065 2983 2752 2741 2355 2220 2133 2848 3810 4111 3354 2624
1420 1680 2556 3060 3145 2900 3083 3252 3228 3558 3764 3700 3950 3980 3685 3195 2593 2226 2693 3318 3345 2532 2959 3337 3440 3903 4521 4810 4452 4964 4355 3866 2941 2600 2516 2605 2537 3319 2973 2770 2925 2505 2750
2293 2082 2552 3219 3273 3375 3141 3389 3516 3648 3664 3941 4051 3944 3606 2999 2089 2688 2544 2889 3518 3254 2997 2986 3334 3200 2472 3260 3098 4189 4818 3873 2687 2611 2438 2013 1807 2062 3080 2751 2857 2840 3119
2726 2348 2591 3254 3566 3474 3371 3484 3728 3754 3821 4066 4024 3973 3754 2285 1173 992 1857 2325 2690 3047 3310 3666 3786 2738 2211 2089 2140 2106 2250 4117 4840 3166 2730 2573 3697 3149 2870 2498 3005 3039 3502
3392 2783 2894 3454 3697 3681 3603 3860 3985 4035 3970 4077 4111 4069 4021 3999 1449 842 594 2195 2595 2910 3257 3513 3016 1214 2104 3526 2567 2023 2057 1972 1936 3119 3680 3668 3715 3987 4079 4018 4311 4693 4173
3230 3620 3160 3560 3726 3929 4067 4108 4147 4161 4107 4192 4247 4233 4218 3874 2313 1522 950 2003 2247 2710 3111 3587 3820 3178 2875 3100 3762 3803 3511 3527 3206 2377 3093 3354 3661 4116 4728 3995 4480 4008 3795
3619 3648 3543 3567 3849 4099 4081 4169 4251 4291 4288 4286 4394 4383 4402 4184 2331 1930 1556 1901 2121 2954 3352 3502 3502 3598 3197 2766 3109 3100 3133 3172 1704 1430 1447 1627 1766 1953 2740 3051 2997 3404 3434
3370 3565 3915 3772 4027 4173 4222 4231 4316 4337 4188 3263 3809 4306 3874 4410 3301 2182 1648 1917 2363 1948 3031 3507 2495 2522 2950 2782 3155 3700 3726 3816 3645 3536 3836 3154 3315 3746 3690 3479 3696 3990 4209
3026 3604 4129 4084 4201 4321 4456 4482 4481 4298 3631 4252 4209 4348 4414 4097 4320 2816 2211 2767 2071 2018 1881 1725 1986 1755 1862 1751 1821 3501 3807 3925 3617 3882 3748 3779 4397 4641 5067 3876 4757 4460 3793
3655 3759 3969 4221 3706 3633 4503 4540 4466 4533 4453 4577 4342 4117 3189 4270 3088 3035 2484 2188 2337 2589 2062 1076 1455 959 1310 1677 1745 1752 2026 2103 2370 2579 2903 3235 3511 4122 3829 4669 4072 3291 2488
3974 4024 4091 4068 4055 3957 4367 4540 3957 4428 3272 3362 3171 2928 2501 2373 3385 2529 2294 2260 1994 1971 2449 1591 1673 2216 2675 2681 2658 2746 2745 2573 2442 2929 3364 3440 3692 3692 4519 3440 3185 2828 2704
4070 4220 4103 4066 4095 3949 3448 3534 3180 3001 3099 2662 2792 2669 2472 2293 2392 3219 2694 2576 2355 2132 1785 1727 1993 2298 2833 3030 3214 3155 3037 3015 3329 3779 3782 3696 3806 5151 4363 3005 2851 2880 2689
3097 3108 3677 3309 3316 3735 3489 3120 3071 3270 2654 2931 2276 2444 2603 2944 2919 2758 3079 3402 2951 2606 2422 2697 2550 2593 3016 3501 3760 3977 4243 4099 3759 3667 3904 4114 4408 4952 3377 2948 3139 2847 2646
2771 3049 2904 2853 3124 3033 2968 2532 2388 2335 2277 2113 2208 2267 2762 2479 2611 2765 2824 3156 3520 3598 3077 3055 3229 3359 3723 3675 3904 3571 3867 3738 4173 4678 4510 4316 3776 3165 2849 2935 2920 2687 1998
1749 2109 3160 2602 3102 2997 3226 3173 2873 2293 2301 2211 2212 2305 2350 2857 2698 2847 3024 2999 3065 3324 3605 3685 3438 3374 3715 3594 3377 3355 3387 3580 4620 4312 3940 3661 3038 2837 2966 3018 2759 2766 2125
1969 2145 2151 2272 2849 2670 2836 3137 2988 3338 3158 2625 1950 2052 1999 2290 2566 2796 2853 2883 3153 2807 3195 3550 3569 4036 3973 3573 3611 3824 4127 3897 4416 3874 3460 3062 2876 3185 3162 2950 2969 2664 2039
1818 1843 1902 2405 2502 2646 3405 3350 3274 2864 2781 2063 1850 2160 2203 2061 1795 1833 2008 2220 3055 3522 3552 3517 3649 3662 3875 3950 4131 4451 3961 3947 4210 3615 3051 3046 3117 3112 2876 2724 2888 3130 1937
930 1382 1642 1433 1671 2117 2103 1042 784 971 906 1233 1112 2753 1738 1810 1798 2196 1939 2056 2525 3067 2976 2897 3148 3582 3872 4020 3674 4465 4555 4268 3528 2895 2730 3113 3378 3385 3268 2964 2959 2236 1854
511 544 347 278 453 420 577 457 714 759 1480 1568 1070 1127 1555 2291 2437 1838 2506 2372 2566 2840 3428 3239 3373 3266 4531 4337 4108 3908 3885 3854 3420 2745 2182 2637 3004 3218 2963 3074 2548 2145 1674
81 121 58 64 60 151 29 23 355 667 783 757 1064 1072 967 1372 2060 1429 1172 1725 2731 3207 3048 3538 3602 3725 4002 3615 3572 3541 3305 2841 2476 2121 2149 2589 2690 2603 2280 2632 1983 1699 1559
0 3 0 0 46 18 30 0 46 25 144 277 401 602 971 602 636 241 541 1214 2118 2463 2791 3737 3920 3704 4016 3603 3178 3111 3134 3037 2873 2314 2127 2079 1928 1718 1746 1880 1845 1552 1190
0 0 0 0 0 0 0 0 0 0 5 6 100 211 643 950 874 1094 1044 1049 1685 2074 2773 3017 2835 2797 2982 2809 2330 2149 1962 1955 1949 1621 1402 1312 1258 1167 1114 943 935 1094 1015
9 1 0 0 0 0 0 0 0 0 59 180 163 179 243 345 412 450 226 268 578 1428 1556 1775 1984 1721 1888 1942 1734 1452 1280 1336 1177 1105 1149 1109 951 742 591 623 805 756 552
0 1 8 0 0 0 0 0 0 0 0 6 60 96 171 209 186 55 7 69 226 392 776 1209 1384 1703 1927 1918 1947 1847 1855 1726 1414 1342 1044 1065 1006 707 588 259 282 271 132

GFSGL_con_mucape_078.txt.gz
CAPE
1967 1392 1297 1178 1143 1125 1810 1961 2478 2511 3586 3619 3545 3135 3083 2970 3506 3689 3245 3151 3177 3415 3068 3644 3339 3511 2967 2797 3312 3302 2733 2474 2116 1925 2593 2544 3819 3270 2786 2498 2704 2477 2315
2102 1803 1418 1420 1183 1117 757 2435 2481 3436 4014 4355 3443 3909 2967 2786 2985 3291 3080 2065 3114 3354 3639 3540 3756 3466 4059 3982 3247 3345 2997 3375 2852 2558 2653 2494 2638 2646 3150 4541 3727 2747 2491
2382 2038 1854 1710 1673 1383 923 1586 2570 2179 2799 3060 3759 3105 3322 2759 2592 3106 3173 2839 2900 2945 3187 3706 3709 3996 4130 3954 4224 3810 3757 3627 3292 2903 2968 3420 2518 2091 2089 2817 3452 3133 3409
2274 2237 2007 1888 1945 1752 1893 1330 1645 2693 2600 3007 2891 3345 3310 3113 2742 2346 2949 3090 3166 2882 3133 3116 3619 3657 3798 4401 4331 4291 4139 4072 3530 3354 2836 2639 2618 2814 3745 3069 2440 2553 3059
1935 2120 2250 2204 2001 2300 2355 2376 2007 2044 2418 2799 3066 3152 3363 3281 2764 2649 2412 2918 3060 3221 3234 3049 3046 3400 3262 3686 3815 4239 4141 4119 3651 3372 3208 2926 2271 2937 2692 2861 2386 2144 2450
1992 2072 2164 2445 2449 2415 2435 2590 2514 2303 2602 2957 3009 3220 3336 3163 2404 1722 1958 1946 2819 2850 2817 2887 3176 2524 2267 2122 2064 2112 2259 3045 3028 3110 2802 2582 2702 3067 2815 2283 2709 2505 3233
2671 2347 2373 2602 2761 2646 2753 2618 2706 2645 2616 3006 3036 3135 3271 3311 2312 1560 1351 1968 2003 2366 2977 2853 2886 2413 2290 2785 2375 1883 1860 1882 1862 2116 2311 2393 2473 2527 3014 3199 3236 3670 3422
2890 3149 2665 2552 2771 3000 2824 2824 2690 2837 2920 2872 3100 3188 3312 3328 2909 2253 1262 1360 2151 2434 2527 2380 2570 2542 2456 2974 3469 3294 2689 2336 2040 1857 1818 2170 2714 3076 3379 3402 3580 3438 3431
2865 3104 3079 2566 2891 3084 3110 2975 2894 2927 3036 3060 3049 3346 3413 3323 2993 2735 2179 1227 1461 1998 2099 2146 2512 3049 2999 2425 1678 1823 1819 1914 1901 1995 2181 2762 2765 2850 3182 3144 2387 3064 3107
2684 3134 3513 2899 2931 3106 3218 3170 3171 3265 3192 3171 3232 3404 3491 3687 3312 2743 2408 1843 1826 1792 2170 2380 2295 2209 2248 2270 2183 2646 2768 2875 3096 3107 3157 2987 3078 3115 3171 3267 3401 3473 3463
3405 2972 3491 3776 3064 3337 3580 3534 3614 3539 3465 3546 3566 3610 4004 3750 3833 3254 2469 2116 2128 2205 2120 2091 2331 2302 2120 1993 2097 2441 2734 2884 3251 3320 3532 3435 3455 3783 4485 4027 4189 3958 3907
3764 3417 3527 3677 3548 3431 3751 3918 3778 3808 3764 3657 3652 3673 3714 3973 3427 3426 3147 2514 2179 2338 2144 1963 1934 1589 1717 1969 1794 1605 1651 2188 2517 2693 2561 2563 2847 3787 4176 4543 4073 4300 3501
3652 3920 3565 3925 3947 3463 3787 3885 4005 3948 3781 3647 3689 3701 3560 3730 3960 3336 3221 3071 2798 2341 2385 2138 1804 1454 1800 2074 2032 1803 1894 2071 2348 2578 2668 2916 3391 4038 4311 4042 3629 3496 3283
4204 4194 4024 3991 4001 3840 3719 3771 3938 3927 3919 3673 3409 3494 3490 3102 3056 3534 2991 2739 2794 2524 2320 2234 2139 1881 1698 2136 2705 2955 2883 2859 2926 2993 3142 3367 4090 3995 4515 3821 3519 3234 2899
3219 4099 4085 3961 3433 3845 3393 3828 3894 3836 3640 3604 3356 3117 3200 3055 2751 2264 2861 2513 2394 2418 2325 2171 2233 2248 1913 2087 3072 3709 3384 3314 3281 3322 3467 3675 3990 4068 4490 3929 3527 3161 2996
2314 2619 3100 3317 3401 3319 3440 3099 3273 3376 2997 3038 3067 2915 2465 2172 2082 2168 2120 2814 2778 2809 3206 3086 2952 2864 2888 2817 2885 3270 3792 3958 4100 3782 4280 4022 3982 4268 4230 3726 3417 3147 2931
1871 1902 2041 2451 2734 3189 3256 2988 2889 2684 2752 2473 2523 2414 2463 2324 2482 2465 2560 2810 3237 3355 3403 3334 3361 3449 3631 3802 3857 4248 3818 3497 3335 3534 4343 4181 3973 3736 3469 3305 3080 2916 2788
1396 1617 1783 1971 2172 2601 3182 3189 3191 2503 2420 2347 2195 2000 2079 2168 2283 2551 2753 2795 2848 2921 3549 3808 4028 4099 4135 4433 4106 3893 3505 3584 3801 3837 4075 4166 3669 3171 3038 3074 2856 3006 2862
957 1233 1756 1869 2020 2273 2597 3160 3256 3332 3201 3014 2883 2198 2206 2275 2221 2286 2360 3028 3349 3538 3630 3335 3211 3406 3759 4492 3965 3641 3462 3760 4322 4435 4264 3902 3379 3139 2857 2596 2788 2801 2681
1043 1251 1350 1458 1758 2043 2059 2405 1870 2623 2759 3490 3188 2753 2108 1974 1804 1659 1568 1719 2648 2836 3032 3318 3641 3762 3715 3803 4118 3957 4033 4614 4953 4801 4302 3542 3053 3244 2533 2751 3067 2994 3002
769 847 834 1165 1461 1545 1470 1954 1616 1463 1790 1370 1773 1961 1875 1752 2001 2277 2623 2038 2280 2375 3054 3085 3260 3409 3886 5047 4960 3838 3812 4174 4601 4095 3469 2872 2355 3001 2534 2664 2938 2622 2301
482 444 577 602 770 1167 1130 1374 1283 1313 963 794 1031 699 1233 1489 1712 1828 1116 1554 2846 3226 3263 3891 3572 3465 3694 4015 4053 4232 4277 4127 3850 3639 3000 2548 2116 2039 2132 2529 2474 2140 1849
112 325 455 361 288 77 499 600 914 491 73 51 16 281 553 125 152 178 90 1149 1160 1819 2309 2448 2971 2742 2544 2715 3314 3118 3196 3152 3286 3239 2759 2212 1870 2227 2192 2344 1972 1566 1353
0 0 2 8 0 5 9 8 6 48 17 6 0 10 240 451 553 452 435 616 855 1035 1801 2335 2311 2048 2591 2293 2496 2833 2977 2787 2609 2572 2718 2482 2338 2074 1911 1584 1446 1253 1181
0 0 0 0 0 0 0 0 1 2 0 0 7 17 88 271 435 494 464 443 468 212 212 712 1458 1549 1551 2122 2207 2504 1985 2339 1695 1620 1801 1450 1653 1378 1085 1006 1204 833 752
0 0 0 0 0 0 0 0 0 0 0 0 4 9 80 104 113 196 310 316 314 269 124 51 448 459 859 1296 1098 1472 1364 1330 1518 1446 1139 1160 1393 1093 873 1326 979 954 815

GFSGL_con_mucape_081.txt.gz
CAPE
296 468 42 22 986 1151 742 262 1287 1124 2129 1914 1705 1889 2048 1857 1989 1900 1674 1529 2021 1718 1582 1853 2235 1917 1646 1480 1716 2007 2156 1842 1229 1283 1639 2199 1778 1612 1714 2073 2097 1984 1879
433 438 423 10 228 760 762 725 985 1147 1164 2008 1863 1831 1683 1577 1724 1964 1954 1805 1710 1861 2134 1889 1718 2306 2004 1811 1771 1756 2040 1968 2085 1481 1801 2006 2342 2670 2566 2560 2532 3119 3105
741 401 552 385 25 470 381 466 628 1899 1625 2324 1774 1608 1741 1587 1419 1658 1911 1842 1692 1892 2213 2289 2388 2166 2576 2806 2794 2501 2921 3039 2830 2900 2557 2656 2527 2144 2298 2405 2506 2682 2478
943 786 578 477 445 102 103 75 646 1224 1914 2115 2314 1793 2000 1522 1459 1494 2026 2092 1949 1802 2100 2227 2293 2484 2423 2399 2915 3062 2828 2866 2809 2750 2781 2774 2740 2676 2587 2073 2341 2037 2003
1224 1119 890 633 475 580 264 253 0 1424 1112 1243 1917 2268 2007 2163 1945 1608 1514 2138 2146 2082 2172 2147 2183 2009 2581 2632 2691 2956 3305 3314 3166 3212 3288 3338 3127 2405 2106 2490 2322 1834 2364
1357 1354 1171 1023 840 769 780 661 464 65 1643 1377 1525 1759 2045 2345 2271 2095 1760 1613 2101 2107 2147 2253 2348 2362 2052 2076 2243 2520 3012 3295 2995 2583 2289 2093 1624 1564 2058 2177 1972 2743 2763
1367 1466 1445 1246 1179 1018 1116 1048 1194 854 336 1152 1665 1917 2014 2090 2304 2374 2137 1803 1460 1979 2072 1864 1805 1850 1988 2086 2199 2221 2065 1895 1893 1917 1860 1716 1590 1586 1782 2026 2400 2550 2937
1208 1459 1535 1554 1350 1281 1148 1322 1404 1565 1244 1160 1450 1822 2006 2232 2480 2410 2288 1921 1663 1422 1356 2073 2068 1942 1933 1888 1772 1788 1889 1849 1731 1638 1737 1910 2078 2176 2124 2130 2392 2699 3033
1674 1384 1531 1500 1635 1585 1353 1351 1504 1534 1726 1469 1572 2062 2105 2117 2397 2607 2457 1957 1485 1386 1396 1266 1386 1558 1657 1782 1753 1576 1332 1167 1978 2535 2373 2210 2077 1947 1954 2369 2738 2865 2544
2001 2136 1754 1586 1676 1805 1918 1610 1798 1720 1610 1896 1908 1818 2190 2242 2306 2552 2548 2334 1739 1545 1222 1536 1752 1835 1953 2175 2243 2215 2239 2259 2193 2315 2489 2560 2616 2613 2843 2895 2873 2874 3045
2209 2401 2511 1923 1716 1923 2015 2076 1937 1988 1904 1788 1897 2081 2155 2275 2527 2583 2642 2566 2144 1590 1243 1045 1219 1416 1483 1465 1469 1316 1299 1393 1607 1981 2329 2711 3006 2965 2951 3070 3280 3312 3554
1294 1803 2550 2570 2095 2036 2097 2277 2201 2127 2150 2079 2082 2168 2201 2418 2537 2840 2946 2629 2424 2188 1714 1468 1366 1403 1598 1629 1577 1500 1560 1686 1876 2165 2471 2592 2608 2334 2259 3084 3714 3665 3971
1222 1423 2476 2719 2559 2148 2290 2379 2445 2385 2392 2266 2320 2352 2441 2594 2866 3149 3083 3069 2953 2580 2104 1776 1581 1581 1630 1560 1289 1232 1344 1392 1474 1471 1639 1962 2370 2729 2539 3270 3712 3869 3768
1264 1740 2233 2657 2929 2498 2573 2533 2745 2633 2584 2598 2540 2491 2521 2487 2705 3101 3199 3213 3029 2918 2766 2442 2134 1830 1725 1635 1710 1937 2286 2061 1824 1885 2132 2569 2885 2909 3028 3448 3371 3467 3803
1454 2678 3245 2831 2975 3005 2789 2793 2769 2839 2857 2675 2626 2640 2454 2662 2632 2661 3220 3190 3127 2946 2800 2699 2540 2373 2199 2042 1874 1695 1793 2196 2513 2600 2737 2865 3011 3318 3491 3477 3645 3667 3386
1222 1702 2161 2476 2735 3007 2893 2745 2910 2950 2972 2986 2833 2758 2765 2568 2714 2776 2423 2721 2808 2704 2304 2283 2366 2557 2491 2324 2153 1906 2289 2750 3019 3113 3206 3169 3015 3087 3323 3697 3664 3657 3696
722 1443 1367 1746 2366 2481 2705 2820 2711 2853 3137 3109 3054 2992 2747 2775 2490 2417 2548 2492 2231 2530 2414 2259 2488 2784 2947 2773 2333 2369 2601 2981 3091 3472 3663 3662 3567 3488 3714 3795 3737 3630 3364
603 1120 1277 1233 1402 1938 2182 2560 2628 2423 2460 3144 2980 2918 2878 2627 2378 2252 1975 1868 1977 2095 2245 2617 2999 3087 3045 2935 2917 3138 3366 3519 3502 3370 2787 3123 3310 3734 3679 3445 2919 2708 2434
571 896 1161 1189 1155 1278 1665 2217 2485 2551 2314 2275 2701 2638 2213 2624 2220 2234 2410 2612 2439 2419 2737 3031 3042 3188 3431 3415 3356 3447 3428 3324 3202 3226 3439 3708 3609 3731 3398 2990 2721 2532 2485
7 524 707 748 909 1126 1261 1798 1921 2287 2226 2330 2103 2313 1889 1593 1918 1882 1978 2137 2544 2759 2716 2840 2789 2994 3013 3021 3423 3595 3518 3347 3124 3062 3512 3804 3789 3636 3248 2939 2573 2172 2200
0 82 294 708 761 623 662 1276 1217 1424 1830 2226 1797 1666 1242 1558 1774 1646 1271 1266 1217 1288 1892 2150 2282 2298 2415 2884 3106 3438 3494 3382 3392 3579 3636 3416 3535 3362 2970 2521 2539 2442 2235
186 0 213 552 751 874 992 979 1036 1158 1526 1540 1162 590 652 694 1031 868 763 1063 1624 1781 1944 1943 2126 2252 2325 2820 2958 3444 3472 3639 3608 3441 3405 3425 3105 2691 2371 1761 1834 2655 2099
12 1 0 74 191 562 696 665 635 776 929 1062 757 286 453 776 743 789 646 474 754 1102 1252 1383 1664 1704 2029 2640 2544 2283 2795 2973 3103 3282 3267 3121 2747 2332 2117 1685 1642 1958 2155
0 1 11 95 297 379 390 472 640 300 435 263 54 79 150 163 48 47 49 102 312 147 321 877 1149 1348 1632 1593 1748 1729 2009 2159 2171 2463 2743 2814 2601 2401 2301 1807 1687 1670 1684
0 0 0 0 122 198 258 245 167 62 1 2 4 8 18 38 91 157 173 112 66 35 18 63 27 258 897 1462 1688 1094 588 1439 1700 1608 1618 1754 2118 1919 1919 1930 1878 1758 1524
0 0 0 0 0 0 0 75 92 46 44 1 1 7 1 10 5 10 70 153 222 202 173 100 69 16 3 5 41 180 342 702 1367 1420 927 947 1189 1390 1188 1061 1128 1172 1097

GFSGL_con_mucape_084.txt.gz
CAPE
216 102 10 0 192 785 173 245 865 903 802 910 830 1470 1484 1366 1274 1209 1483 1284 1160 1262 1136 1169 1358 1914 1942 1944 1412 1422 1685 1777 1885 1727 1654 1485 2097 2273 2314 2171 2173 2088 2354
317 235 73 0 1 636 817 112 196 966 1122 926 1016 1237 1399 1306 1241 1215 1161 1252 1244 1546 1618 1364 1373 1514 1679 2025 1835 1775 1518 1741 2122 2209 2742 2576 2402 1979 2274 2446 2052 2114 1898
417 303 254 65 0 118 663 860 465 336 876 1676 1519 1189 1348 1499 1332 1425 1527 1478 1421 1364 1438 1544 1585 1646 1575 2076 2316 2398 2453 2443 2803 2674 2393 2193 2284 2442 2649 2492 1934 1882 1691
338 395 361 300 87 0 287 442 740 440 563 988 1598 1230 1086 1207 1364 1250 1257 1407 1338 1261 1302 1555 1905 1933 1852 1955 1819 1896 2159 2505 2597 2433 2631 2643 2689 3032 3044 2445 1473 1632 1556
511 352 376 408 303 169 19 248 174 536 754 1268 1346 1398 1346 1302 1122 964 953 1108 1164 1202 1358 1476 1496 1771 1992 1954 1859 1941 2196 2439 2562 2679 2790 2970 3009 2789 1936 1413 1518 1487 2035
690 607 327 392 456 326 275 159 106 8 759 876 1480 1750 1438 1408 1225 1078 949 1037 1266 1380 1451 1524 1607 1823 1931 1996 1831 2104 2549 2707 2749 2899 3006 2871 2142 1820 1537 1328 1603 1754 2065
958 753 707 431 524 596 523 406 291 111 0 596 1045 1051 1543 1735 1730 1672 1612 1396 1216 1233 1327 1395 1477 1585 1803 1911 1956 1988 1995 1967 1939 1918 1882 1802 1751 1575 1435 1885 1875 1808 1894
1100 1274 1251 953 664 640 755 704 618 422 234 0 782 1270 1035 1045 1379 1767 1834 1818 1692 1588 1393 1390 1476 1479 1522 1470 1392 1435 1482 1529 1570 1558 1589 1661 1780 2096 2285 1992 1855 1958 2386
359 463 855 1236 1087 987 963 921 936 766 611 491 127 611 1383 1410 1480 1515 1574 1653 1811 1883 1843 1647 1420 1295 1341 1470 1532 1577 1572 1513 1419 1441 1730 1905 2053 2044 1836 1925 2070 2052 2327
163 87 287 896 1251 1167 1227 1157 1102 996 1065 987 773 608 684 1068 1308 1644 1880 1715 1609 1660 1721 1694 1462 1308 1243 1276 1312 1126 1010 1014 1058 1206 1612 1779 1894 2045 2331 2492 2544 2662 2611
66 111 47 410 1335 1502 1329 1341 1228 1182 1142 1292 1345 1214 1211 1463 1577 1633 1766 1835 1716 1558 1531 1341 1194 1185 1116 1172 1177 1129 1396 1387 1139 1041 1065 1411 1746 2151 2617 2796 2749 2876 3203
393 342 138 464 1249 1640 1479 1448 1325 1246 1345 1274 1307 1494 1548 1440 1550 1819 1907 1916 1852 1742 1579 1344 1132 971 830 869 1018 1153 1115 991 1062 1186 1321 1590 1851 2084 2244 2402 2544 2302 2600
160 559 800 986 1225 1694 1660 1607 1658 1463 1559 1570 1512 1434 1457 1619 1807 1866 1873 2035 2016 1996 1801 1685 1523 1380 1328 1309 1242 1219 1234 1344 1353 1267 1272 1271 1361 1539 2130 2626 2548 3112 3571
61 507 1111 1549 2008 2245 2097 2042 1900 1810 1692 1727 1738 1707 1680 1694 1814 1909 2042 2117 2206 2294 2319 2183 2086 2032 1990 1884 1677 1422 1345 1281 1230 1237 1170 1120 1393 2038 2561 2769 2637 3195 3269
2 369 823 1604 2351 2447 2294 2184 2148 2055 1934 1885 1893 1844 1874 1930 1918 2018 2289 2339 2390 2513 2669 2691 2619 2568 2479 2345 2155 2014 1840 1641 1611 1548 1480 1737 1945 2312 2575 2719 3147 3265 3323
0 99 755 1816 2027 2357 2538 2282 2274 2340 2209 2076 2104 2173 2148 2081 2065 2154 2170 2450 2634 2631 2459 2553 2660 2613 2416 2231 2109 2107 2037 1913 1776 1699 1518 1476 2081 2676 2700 2720 3118 3221 3325
0 0 272 1032 1662 2252 2715 2806 2553 2564 2568 2589 2434 2375 2357 2319 2367 2276 2294 2488 2526 2669 2685 2641 2589 2468 2284 2076 2366 2575 2362 2025 1939 1747 1692 2099 2578 3019 3271 3104 2949 3240 3323
0 0 48 437 1004 1577 1904 2034 2103 2366 2463 2634 2708 2764 2761 2687 2623 2592 2612 2624 2463 2531 2653 2457 2238 2204 2199 2135 2341 2744 2397 2333 2632 2873 3009 3019 3113 3357 3331 3170 3293 3235 2976
0 0 14 198 409 597 863 1239 1862 2038 2187 2216 2025 2134 2778 2887 2900 2908 2862 2736 2145 2084 2222 2021 1959 1991 1900 1975 2562 2891 2827 2988 3051 3139 3282 3250 3099 2762 3265 2964 2762 2850 2582
0 0 15 28 324 501 639 807 894 1144 1527 1874 1925 1816 1796 2213 2318 2309 2555 2639 1830 2142 1931 1972 1946 1958 2151 2310 2568 2883 3303 3308 3219 3292 3224 2934 2940 3063 3300 3247 3183 2894 2771
0 0 35 22 119 337 401 414 355 620 882 1247 1649 1851 1735 1583 1898 1477 1609 1377 1546 1621 1625 1542 1937 1953 1904 1953 2344 2604 2643 2922 2941 3135 3203 2997 2973 2990 2901 3201 3266 2843 2120
0 0 0 0 25 90 161 371 404 240 470 860 1122 1243 1561 1507 1445 1314 1059 680 854 1070 1229 1241 1494 1615 1825 1867 2036 2186 2327 2608 3030 2785 2942 3148 3109 2844 2946 2986 2613 1935 1377
0 0 12 27 5 26 92 187 159 367 549 802 1229 1159 1382 1102 892 625 640 346 173 820 1376 1534 1570 1289 1446 1690 1903 2247 2249 2405 2536 2559 2294 2811 2664 2812 2527 2250 1981 1878 1587
0 8 5 0 0 0 58 132 269 494 500 282 767 750 605 323 572 638 310 291 652 736 841 804 815 872 686 496 543 740 1189 1305 1326 1334 1513 1756 1955 2106 2068 2175 2030 1864 1697
0 0 0 2 0 0 2 14 49 130 139 232 153 281 399 184 373 349 128 230 382 365 340 230 210 186 346 604 717 726 842 943 955 701 835 996 1096 812 977 1061 1361 1378 1415
0 0 0 0 0 0 0 114 105 91 62 51 35 78 27 88 46 53 52 36 12 33 114 62 39 21 1 3 0 6 30 80 212 194 213 396 632 678 892 863 881 1051 753

GFSGL_con_mucape_087.txt.gz
CAPE
180 134 85 66 161 143 27 58 412 1076 972 777 667 1147 1253 1192 1137 935 1019 1146 1152 1199 1065 1187 1167 1144 1687 1830 1816 1319 1202 1378 1394 1377 1705 2458 2528 2056 2067 2456 2527 1865 1760
268 179 144 12 0 178 225 256 172 355 812 939 652 626 1174 1415 1380 1136 1134 1249 1306 1019 1081 1119 1115 1117 1326 1379 1798 1756 1710 1820 2072 2291 2577 2368 2086 2290 2444 2827 2270 2264 1228
254 277 240 173 90 0 103 323 340 178 381 775 978 893 939 1145 1326 1327 1232 1100 1178 1226 1247 1604 1639 1473 1442 1478 1445 1965 2097 2126 2197 2310 2313 2286 2346 2443 2744 2788 2479 1226 1187
195 295 342 308 248 139 0 146 377 434 214 364 1089 1283 1037 1150 1188 1219 1190 1071 1183 1322 1320 1250 1268 1337 1591 1704 1684 1708 1721 1679 1820 2060 2244 2280 2401 2578 2640 2324 1658 1232 1561
278 225 288 348 340 282 171 1 126 350 444 331 391 1214 1519 1244 1147 1167 1235 1321 1451 1381 1277 1193 1162 1281 1431 1713 1911 1980 1851 1620 1785 2135 2400 2469 2474 2421 2190 1701 1528 1526 1741
441 360 277 312 361 364 320 216 14 42 211 455 477 484 960 1302 1112 924 981 1003 939 884 884 898 1003 1284 1462 1499 1586 1682 1832 1756 1894 2164 2170 2100 1974 1828 1617 1493 1383 1764 1641
410 371 415 404 413 461 397 317 233 131 10 115 417 734 817 873 1157 1187 1162 1069 983 905 917 982 1034 1096 1282 1348 1477 1657 1787 1862 1916 1898 1869 1771 1533 1338 1400 1591 1854 1753 1643
638 600 555 583 518 517 513 466 437 370 270 181 32 361 738 1002 1316 1312 1282 1156 1080 1068 1111 1177 1172 1167 1146 1204 1292 1346 1301 1210 1163 1131 1176 1180 1243 1307 1540 1636 1702 1634 1753
733 866 1010 1052 1115 1059 814 684 600 584 539 459 378 256 217 499 873 1408 1551 1554 1498 1469 1459 1373 1333 1373 1432 1380 1265 1214 1148 1104 1139 1226 1254 1289 1295 1190 1416 1548 1641 1817 2183
339 494 814 1048 870 1039 771 935 738 699 733 691 680 551 406 255 351 792 967 938 957 1004 1046 1173 1294 1441 1547 1594 1492 1355 1264 1208 1014 866 754 971 1210 1299 1322 1652 1912 2162 2385
116 82 77 89 102 78 170 659 977 907 664 779 882 831 647 505 480 853 1168 1126 1040 1014 891 869 956 1081 1199 1297 1357 1231 1130 1045 983 974 1154 1222 954 1019 1247 1561 1997 2404 2434
41 65 119 59 120 32 55 350 989 1006 933 858 887 978 934 872 735 610 780 1112 1054 1062 1214 1213 1146 1153 1112 1003 893 862 923 964 1000 1162 1180 1013 968 1138 1257 1545 1875 2187 2353
13 91 65 235 219 40 14 219 1183 1199 1078 1082 1004 1066 1167 1210 1169 1140 1150 1220 1244 1315 1350 1441 1495 1471 1390 1272 1220 1241 1304 1292 1193 1083 1074 1179 1222 987 1042 1286 1477 2097 2426
0 0 49 199 335 27 51 856 1178 1334 1259 1204 1231 1201 1208 1305 1382 1456 1469 1484 1535 1608 1657 1700 1713 1691 1720 1710 1737 1832 1920 1867 1602 1293 1267 1181 1145 1152 1131 1454 2040 2521 2336
0 0 0 44 318 129 277 877 1453 1509 1430 1296 1375 1399 1343 1421 1429 1408 1555 1663 1704 1715 1791 1878 1888 1894 1885 1946 2074 2205 2261 2200 2035 1847 1677 1518 1395 1375 1346 1462 2227 2482 2513
0 0 0 0 146 304 608 967 1747 1727 1622 1587 1566 1608 1815 1712 1559 1567 1647 1755 1823 1804 1865 1885 1854 1828 1890 2029 2190 2324 2256 2134 2066 2009 1933 1890 1829 1703 1532 1303 2285 2383 2601
0 0 0 0 2 228 654 940 1435 1857 1937 2015 1951 1757 2073 1983 1850 2094 1958 1942 2082 2191 2307 2159 2207 2253 2185 2301 2431 2348 2241 2127 2303 2284 1958 1817 1747 1490 1265 2040 2457 2531 2435
0 0 0 0 0 86 363 797 945 1208 1619 1940 1895 2054 1937 1969 2403 2348 2296 2184 2647 2261 2326 2395 2379 2409 2529 2462 2249 2072 1979 2096 2330 2165 2060 2264 2287 2007 2387 2612 2897 3071 2920
0 0 0 0 0 3 213 391 840 843 1221 1436 1714 2007 2252 2221 2087 2301 2311 2490 2517 2550 2337 2586 2458 2318 2251 2234 2200 2042 1763 2093 2559 2511 2613 2746 2832 2967 2991 3001 2981 2866 2518
0 0 0 0 0 1 16 170 292 439 655 1032 1505 1616 1842 2294 2404 2515 2360 2428 2433 2432 2772 2790 2145 1869 1861 1808 1699 1650 1740 2170 2442 2808 2991 2849 2996 3023 2952 2870 2762 2701 2676
0 0 0 0 0 1 15 20 41 153 424 600 842 1238 1531 1842 1913 1738 1908 2105 1909 1710 1881 1849 1813 1669 1671 1887 1957 1899 1929 2021 2228 2394 2585 2619 2923 2939 2640 2453 2355 2278 2391
0 0 0 0 0 3 8 16 18 75 168 327 405 823 1286 1645 1773 1718 1528 1690 1551 1441 1489 1281 1379 1458 1400 1530 1551 1459 1510 1548 1658 1827 2117 2331 2529 2652 2559 2208 2224 2118 2041
0 0 0 0 0 0 0 3 51 96 171 234 405 455 747 977 1153 1224 1383 1345 1478 1299 827 805 810 747 896 1077 1267 1327 1305 1301 1362 1334 1654 1734 1733 1911 2018 2214 2250 2058 1797
0 0 0 3 0 0 0 0 25 49 246 505 783 799 955 651 879 1210 1097 1103 906 954 540 412 313 510 537 642 775 1077 1051 1293 1411 1287 1296 1180 994 1335 1629 1947 1927 1896 1690
0 0 0 11 0 0 0 0 9 26 86 206 352 323 278 270 766 458 386 305 453 385 310 363 342 475 512 435 514 505 304 218 445 741 656 547 551 586 811 1166 1184 1089 1031
0 0 0 0 0 0 0 3 11 33 114 177 135 152 192 517 405 375 287 239 127 153 180 117 76 11 27 4 8 97 75 65 197 334 446 377 326 329 284 480 680 808 668

GFSGL_con_mucape_093.txt.gz
CAPE
766 1055 1115 810 660 768 716 1215 1553 1781 1983 2125 2301 2323 2362 2424 2547 2573 2364 2148 2331 2444 2312 2355 2361 2628 2114 2145 2431 2575 2526 2288 2094 1926 2499 2651 3388 3465 3562 3673 2803 2361 2043
893 1146 877 936 807 669 655 640 1072 1549 1945 2129 2146 2164 2180 2297 2515 2464 2215 1912 2145 2155 2230 2445 2318 2090 2595 2609 2318 2724 2583 2891 2734 2823 2720 2639 2895 3329 3694 3732 3090 2124 2520
677 550 896 839 847 907 841 784 728 1025 1454 1862 2103 2155 2180 2223 2372 2480 2482 2375 2357 2294 2193 2336 2253 2381 2671 2460 2838 2608 2428 2606 2808 2727 2588 2379 2761 2936 2937 2784 2738 2712 1806
549 436 774 917 1064 988 1087 1058 879 879 979 1356 1576 1708 1977 2184 2236 2257 2320 2421 2438 2290 2329 2196 2085 2225 2392 2533 2454 2704 2872 3013 2681 2790 2240 2167 2301 2534 2886 2200 1550 1613 1949
839 711 725 866 908 946 951 1151 1104 996 894 1129 1277 1361 1604 1813 1916 2361 2385 2406 2433 2462 2352 2289 2050 1898 1691 1767 1763 1995 2461 2411 1966 1930 1830 1793 1727 1766 2228 1757 1542 1691 2105
514 731 823 889 812 739 732 754 865 1012 1051 990 1082 1189 1228 1112 624 1014 1697 2355 2540 2557 2532 2457 2372 1520 1295 970 905 885 1171 2334 2307 1821 1473 1864 2648 2337 1609 1699 1932 1954 1545
167 226 794 898 921 894 730 653 824 759 857 1024 967 951 1348 1601 546 760 1008 2131 2396 2502 2560 2435 2219 1675 1447 1968 1438 1028 845 895 1041 2151 2388 2277 2785 2359 2419 2580 2413 2401 2221
122 135 97 364 739 1027 958 853 807 671 725 1157 922 939 1101 1158 479 479 762 1484 2316 2325 2362 2350 2317 2283 2215 2066 2184 2129 2158 2019 1914 1367 1763 2221 2397 2454 2564 2508 2356 2346 2108
144 197 266 199 206 364 889 952 953 617 631 633 695 933 1028 1356 401 196 211 624 1182 2251 2060 2115 2373 2476 2103 1391 1748 2026 2155 1944 1262 1290 1159 1321 1290 1016 1020 1508 1775 1803 1624
20 97 184 326 205 273 327 499 515 792 449 432 430 658 497 1207 668 253 161 414 763 657 1714 2436 1210 1439 1635 1271 1462 1968 1925 1792 1605 1637 1891 1479 1249 967 821 863 1669 1792 1597
17 42 102 180 300 307 435 373 225 399 799 1018 890 840 704 727 843 416 369 647 649 723 539 565 719 646 781 1036 993 2276 2001 1869 1454 1933 1899 1749 1660 1731 1833 1596 1718 1780 1631
0 0 24 55 244 369 308 342 451 218 116 219 1125 1096 987 1090 584 645 666 597 531 930 1165 877 1033 605 735 751 726 600 791 1029 1381 1498 1458 1256 1338 1479 1595 1848 2200 2098 2024
0 0 0 106 112 71 93 268 279 374 90 159 477 820 1000 1239 1248 569 600 695 734 728 839 747 570 524 385 387 469 440 456 691 1007 1294 1212 1137 1338 1588 2147 2021 2173 2468 2581
0 0 0 0 9 8 79 84 26 94 136 59 131 707 830 1195 1398 1429 847 691 770 837 826 680 460 500 492 717 666 743 955 1190 1391 1361 1294 1358 1662 1945 1950 1878 1851 1868 2028
0 0 0 0 0 0 0 3 4 16 7 38 220 854 940 1144 1555 1499 1514 1206 795 966 973 907 882 1049 1188 1119 1276 1590 1728 1626 1400 1458 1588 1600 1738 1883 1967 1933 1941 1907 1954
0 0 0 0 0 0 0 6 1 10 0 34 52 94 133 945 1128 1120 1072 1217 1019 882 1003 1335 1360 1328 1055 1059 1225 1459 1446 1430 1633 1511 1515 1671 1840 2000 2143 2018 2002 2138 2003
0 0 0 0 0 0 0 11 0 0 10 2 46 116 466 784 861 1069 895 917 1104 942 1015 1246 1557 1313 1227 1403 1409 1116 1239 1386 2060 1539 1695 1953 2148 2172 2093 1907 1842 1883 1901
0 0 0 0 0 0 0 2 0 1 0 0 30 63 120 386 704 889 745 782 943 953 1111 1239 1648 1384 1705 1943 1788 2432 1979 1962 1956 2124 2194 2333 2319 2121 1636 1683 1740 1473 1328
0 0 0 0 0 0 0 0 0 0 0 0 1 50 35 152 418 603 735 677 610 791 1035 1241 1459 1679 1908 1925 1929 1909 2306 2987 2351 2181 2477 2456 2172 1732 1459 1891 1765 1900 1316
0 0 0 0 0 0 0 0 0 0 12 3 0 6 62 82 188 358 433 311 249 996 1462 962 782 1128 1678 1949 1959 1541 1891 2255 2391 2230 2334 2355 2393 1835 1432 1901 1946 2182 2232
2 2 1 0 0 0 0 0 0 0 0 0 0 0 48 39 181 232 254 155 170 383 128 121 360 514 793 1183 1444 1497 1407 1519 2132 1962 2130 1479 1354 1602 1762 2137 1851 2488 2571
3 1 1 0 0 0 0 0 0 0 0 0 0 0 4 89 119 168 216 180 113 16 99 59 122 251 423 551 802 1077 1393 1716 1588 1478 1640 1611 1418 1390 1525 1602 1814 1739 2254
0 0 0 0 0 0 0 0 0 0 0 0 0 0 0 46 119 113 91 261 286 161 24 135 307 324 473 488 585 647 705 943 958 853 770 883 835 844 820 736 641 730 1582
0 0 0 1 0 0 0 0 0 0 1 3 0 7 11 66 141 216 198 287 411 442 538 397 553 532 564 489 435 371 390 585 444 320 228 137 167 223 256 284 332 486 1045
0 0 0 0 0 0 0 0 0 0 0 6 1 26 58 144 254 326 474 567 540 391 437 644 388 386 555 404 416 339 270 360 277 206 148 164 147 192 193 172 197 242 234
0 0 0 0 0 0 0 0 0 0 2 3 10 33 126 215 290 284 359 397 210 199 406 434 409 282 290 108 139 281 95 108 137 159 112 153 139 92 61 59 29 25 44

GFSGL_con_mucape_096.txt.gz
CAPE
1635 1651 1819 1967 1887 1898 1487 1509 1710 2122 2098 2209 2590 2480 2247 2150 2378 2688 2207 1743 2414 2129 2212 2353 2362 2381 1875 1426 1617 1780 1785 1703 1730 1375 1882 2277 3076 3063 3425 3508 2601 2312 1455
1470 1501 1656 1705 2154 1625 1612 1394 1409 1884 2320 2206 2177 2749 2643 2583 2656 2437 1704 1669 2206 2170 2287 2249 2228 1791 2705 2599 1835 2030 2292 2167 1975 2484 3233 2314 2732 2816 3211 3299 2454 1715 2185
1202 1245 1408 1500 1548 1816 1655 1661 1416 1427 1748 1903 2012 2355 2561 2583 2625 2871 2306 1999 2116 2238 2389 2455 2043 2063 2479 2032 2213 2040 1868 2077 2290 2049 2210 2115 2247 2281 2714 2744 2421 1973 1109
835 1110 1197 1310 1436 1455 2006 1937 1763 1655 1600 1578 1808 2036 2268 2445 2538 2526 2596 2683 2452 2066 2553 2666 2296 1659 2186 2466 2632 2780 2704 2838 3059 2367 2191 1885 1548 2126 2091 1668 1109 936 1246
1127 1116 1234 1676 1440 1300 1557 1544 1773 1864 1764 1724 1545 1483 1719 1833 1925 2563 2523 2512 2836 2819 2587 2726 2301 1502 1091 1348 1487 2623 2428 2184 1955 1617 1418 1137 1039 1266 2009 1288 1064 1046 1864
186 946 1344 1505 1763 1631 1657 1807 1796 1865 1944 1906 1838 1562 1244 871 496 1068 1740 2380 2506 2722 2629 2917 2747 1664 1558 1428 1327 1057 982 2156 2214 1449 664 944 2617 2186 1469 1177 1425 1453 1564
104 161 208 523 1200 1547 1641 1563 1663 1777 1823 1904 1931 1860 1688 1470 321 434 899 1731 1989 2378 2607 2608 2545 1776 2087 2496 1685 1094 854 724 754 1970 2353 2342 2555 2015 2458 2572 3245 2557 2342
168 127 179 126 183 524 1223 1768 2025 1697 1665 1784 1803 1879 1884 1884 918 456 309 1390 2253 2576 2569 2381 2735 2594 2267 2158 2424 2374 2187 2014 1965 1634 1874 2108 2445 2201 2533 3063 2983 3113 2732
60 65 58 96 88 84 108 296 829 1656 1747 2079 1684 1830 1976 1974 1113 704 419 774 648 2238 2427 2967 3084 3121 2395 1857 2334 2271 2280 1801 893 1091 1048 1317 1515 1565 1540 1795 1652 1290 861
0 11 44 61 49 52 54 86 121 346 1147 1369 1413 1618 1378 1865 1378 1054 567 904 1283 284 1322 2889 1728 1907 2046 1748 2297 2467 2303 1935 1226 1229 1580 1308 1230 1313 969 1073 1704 1392 914
0 0 15 75 99 117 80 79 186 472 617 588 907 1443 1563 1412 1578 994 854 1032 1008 1031 651 190 297 555 1127 1053 1226 2889 2516 1851 1279 1300 1672 1534 1576 1507 1681 2006 2630 1826 1207
0 0 0 0 0 48 100 163 85 214 539 487 252 356 812 1584 1223 952 796 576 684 1360 1664 1120 1283 546 188 450 581 444 965 1194 1103 219 348 648 757 670 595 1222 3491 3498 2566
0 0 0 13 3 0 0 0 45 125 127 243 325 377 374 563 1284 1106 830 592 574 509 1038 1064 987 903 826 743 663 511 302 671 704 344 388 699 720 641 2117 2638 3107 3918 3753
0 0 0 0 8 2 0 0 3 79 45 52 123 359 313 279 610 915 1242 1054 758 494 619 618 649 710 809 827 683 501 347 737 728 692 888 986 886 774 693 1192 1586 1636 2005
0 0 0 0 0 3 0 0 0 0 51 18 41 59 97 40 444 486 609 1391 2351 809 530 623 837 896 1139 1290 1199 1179 1298 1259 1026 1236 1352 1366 1253 1004 809 997 1304 1566 1702
0 0 0 0 0 0 0 0 0 0 0 0 2 6 31 24 39 39 228 660 845 906 690 765 1450 1698 1857 1874 1819 1510 1318 1116 1482 1559 1519 1442 1376 1120 712 775 1170 1553 1676
5 1 1 0 0 0 0 0 0 0 0 0 0 1 0 0 5 12 56 223 267 765 968 1553 1484 1702 2010 2226 2238 1477 1615 1646 2369 1473 1177 1201 1089 753 688 1038 1371 1730 1939
13 0 5 9 0 1 1 0 0 0 0 0 0 0 0 0 1 19 67 191 353 602 750 1468 1740 1839 2188 2053 1724 1721 1833 1463 2031 1957 1219 1048 1038 1051 1230 1469 1610 2016 2623
29 16 11 14 16 1 3 0 0 0 4 0 0 0 6 2 1 19 77 126 287 540 234 503 1363 1835 2489 2858 2415 2139 2062 1929 1690 1899 2022 2393 2357 2213 1891 1800 2350 1973 2103
33 25 25 25 24 0 0 6 0 2 3 0 0 2 0 0 0 3 32 47 154 619 886 510 550 1020 1492 2109 2290 2621 2603 2082 2289 1940 1915 2565 3038 2939 2615 2412 2426 2436 2543
9 17 37 36 39 38 2 13 7 1 3 0 0 0 0 0 0 1 32 70 96 182 263 790 453 375 428 599 936 1160 1251 1437 1569 2018 1991 1298 1688 1882 2179 2111 2614 2206 2299
0 0 16 37 47 47 45 17 0 9 1 0 0 0 0 0 0 0 10 27 69 89 60 92 93 37 40 73 207 400 486 817 1212 1305 1362 1230 1375 1924 1756 1800 1526 1930 2077
1 0 4 29 22 32 18 0 0 0 0 0 0 0 0 0 0 0 3 19 59 98 94 88 62 50 44 27 23 44 157 299 371 403 419 446 846 1114 980 1076 1124 986 1078
0 0 2 0 3 8 12 0 0 0 0 0 0 0 0 0 0 1 5 64 97 100 117 14 4 30 60 97 102 95 128 147 233 281 305 308 319 336 335 213 208 252 541
0 0 0 0 0 0 0 0 0 0 0 0 0 0 0 0 0 3 19 80 120 192 135 80 55 68 195 207 202 217 248 218 201 224 239 210 193 116 116 100 131 121 193
0 0 0 0 0 0 0 0 0 0 0 0 0 0 0 0 0 15 61 203 288 294 331 304 253 282 339 297 322 290 290 254 292 309 270 249 228 221 194 188 158 94 88

GFSGL_con_mucape_099.txt.gz
CAPE
2522 2455 2983 2519 2472 2615 2145 1828 1822 2229 1889 2119 2340 2040 2048 1783 2024 2736 2930 2520 2574 2648 2473 2229 2426 3448 2081 1304 1345 1417 1570 1645 1703 1780 1776 2550 4352 4560 3534 4103 2853 3432 1382
2000 2346 2224 2337 2337 2341 2373 1957 1914 2380 2441 2136 2495 2701 2400 2243 3004 2278 2079 1371 1906 1942 1850 2380 2123 1858 3727 3906 1927 3504 2288 2985 1789 3405 2641 2372 3781 4077 4591 4798 2754 1921 1533
2123 2013 2126 2269 2297 2181 2258 2217 2167 2625 2518 2142 2735 2944 2415 2634 2993 3048 2742 2129 2102 2247 2090 2094 1892 2403 3242 2587 3377 2608 1855 2374 2943 2403 2265 1884 2243 2339 2694 3696 4071 3103 1168
1109 1286 2517 2478 2347 2125 2046 2257 2408 2616 2668 2792 3198 3158 2664 2487 2300 2229 2854 3381 2863 2110 2246 2174 2321 2227 2860 3623 3187 4199 3442 3013 2601 2281 2180 2010 1759 2577 2096 1768 1669 1278 989
688 1491 1545 2132 1696 1901 2050 2069 2132 2908 2561 2596 2806 2612 2350 2161 1702 3008 2985 3004 3587 3339 2918 2605 2501 1823 1192 1737 1554 3126 3891 2816 1767 1690 1558 1224 922 1689 2214 1315 1615 1150 1757
233 533 684 1272 1418 1905 1818 2537 2622 2256 3155 3131 2714 2554 2450 1077 218 729 1416 2683 3222 3619 3520 3597 3549 1847 1202 969 865 860 1099 2354 3770 1375 701 890 3308 1904 1180 1129 1575 1170 1415
125 130 224 349 716 1240 1692 1993 2173 2722 2563 2896 3098 2822 2896 2917 1149 254 405 1730 2593 3419 3380 3912 2671 1467 2125 2829 1817 1113 993 862 802 2376 3109 3048 3229 3616 3561 4022 2964 3262 2439
243 189 166 112 276 400 628 1556 1692 2214 2292 2600 2505 2786 2803 2850 1605 1048 566 1202 2286 2890 3135 3433 3532 3651 3630 3305 3402 2983 2836 2740 2306 1283 1858 2488 2987 3325 3605 3249 4295 4655 3306
3 10 34 54 84 120 222 320 464 1340 1493 2189 2131 2427 2662 3113 1924 1423 1127 1165 1125 1977 2657 3080 3445 3769 3191 2278 2906 3556 3707 3213 1246 1847 1980 2342 2429 1922 1628 1708 1379 1234 1096
0 0 0 0 1 57 63 76 77 79 562 751 1227 2085 1881 2448 1932 1773 1463 1434 1803 1329 1916 2164 1196 1684 2462 2487 2876 3431 3508 3390 2944 2175 2320 1100 927 1082 796 1072 1593 1378 1187
0 0 1 5 0 1 18 29 37 19 33 89 322 724 1633 1993 2138 1625 1457 1855 1720 1458 1527 1548 1074 580 773 1213 1488 3245 3113 3143 2935 2796 2180 1584 1188 1680 2511 2691 2841 2087 1625
0 0 0 0 2 2 1 0 38 13 2 22 48 277 644 1456 1333 1425 1224 1240 1333 1802 2010 1612 1787 648 342 406 630 709 1134 1560 1847 1441 1015 546 470 528 745 1545 3674 3634 2788
0 0 0 0 0 0 3 0 0 0 0 12 42 72 422 1608 844 407 1036 1112 910 772 1574 1467 1070 836 806 833 733 685 629 555 1055 1110 1201 999 664 482 1461 2282 3449 4691 4717
0 0 0 0 0 0 0 0 0 0 0 0 4 10 96 229 939 780 791 630 665 794 764 696 576 514 603 714 888 935 790 739 1083 1386 1527 1391 970 718 930 1152 1171 1119 1498
0 0 0 0 0 0 0 0 2 2 0 0 0 0 3 22 54 182 289 416 506 663 894 888 939 1232 1162 1300 1706 1938 2055 1523 1281 1339 1499 1448 1182 1282 1443 1387 1245 1103 1331
5 0 0 0 0 0 0 0 0 0 0 0 0 0 0 0 0 2 15 87 362 448 421 386 738 1243 1717 1862 1964 1937 1784 1569 1986 2015 1785 1543 1525 1735 1825 1822 1605 1280 1291
22 10 1 0 0 0 0 0 0 0 0 0 0 0 0 0 0 0 0 3 15 15 8 12 242 1102 1449 1961 1784 1765 1968 2363 2482 1976 1953 2079 2068 2212 1715 1529 1599 1310 1271
25 12 19 2 0 0 2 4 2 1 1 0 0 0 0 0 0 0 0 0 0 0 1 5 50 1111 1485 1829 2190 2232 2131 2371 2023 2112 2562 2283 1976 1549 1326 1349 1199 1176 1384
26 19 17 18 12 2 3 7 4 8 7 0 0 0 0 0 0 0 0 0 0 0 1 19 308 1888 1709 1551 1918 2652 2769 2517 1892 1548 2086 2400 2405 1789 1309 1315 1309 657 806
4 0 4 37 22 9 21 20 11 11 9 5 0 3 13 0 0 0 0 9 0 0 8 51 545 581 903 637 786 857 2322 2141 1565 1563 1846 2138 2391 2500 1930 1894 1969 2273 2172
0 0 0 0 12 48 42 28 14 17 18 21 21 6 0 0 0 0 0 0 0 0 0 57 116 345 266 442 365 212 355 695 912 1055 1139 1602 2005 2199 2368 2404 2316 2634 2398
0 0 0 0 0 44 60 57 61 52 37 41 32 23 0 0 0 0 0 0 0 0 0 11 34 16 19 54 29 8 25 76 235 258 507 735 1036 1107 1220 945 941 1008 1565
0 0 0 0 0 3 21 10 10 44 32 44 51 45 27 9 0 0 0 0 0 0 0 11 34 26 28 19 26 1 0 0 8 28 91 164 301 711 827 711 630 954 798
0 0 0 0 1 0 8 11 10 14 2 0 2 0 0 0 0 0 0 0 0 0 0 17 30 54 71 55 60 34 38 5 27 52 47 67 109 137 153 226 388 456 422
0 0 0 0 0 0 1 7 4 3 0 0 0 0 0 0 0 0 0 0 0 0 0 13 175 60 68 104 42 1 24 47 68 115 98 83 75 101 119 119 108 120 116
0 0 0 0 0 0 0 0 0 0 0 0 0 0 0 0 0 0 0 0 0 0 4 21 137 194 103 110 63 4 19 75 92 99 57 83 88 77 81 80 88 77 79

GFSGL_con_mucape_102.txt.gz
CAPE
3055 3084 3033 2990 3135 3413 3065 2930 2674 3115 1247 668 135 1068 2750 2930 3016 3348 2815 2563 2356 2692 3250 3041 3569 3718 3195 2847 3180 3111 3010 3190 3096 3107 2591 2793 2804 3531 4417 4150 4182 3267 1971
1564 2532 2805 3311 3223 3151 3177 3025 3021 3071 2814 1575 1362 1940 2256 2932 2864 3411 2698 2494 2627 3059 3293 3086 3203 2540 3760 3510 3040 2787 2834 3110 2541 2410 2773 2599 3731 3809 4996 4176 4303 2415 2135
1588 1442 2394 2943 2569 3433 3555 3399 3138 3199 3196 3127 3371 3295 3174 2509 2804 3049 3149 3123 2872 2795 3240 3005 3096 3238 3474 3043 3648 3312 3162 3564 3552 3359 3303 2623 2628 3363 3372 3907 3956 3960 1489
519 491 1246 2356 2648 2851 3239 3321 3469 3434 3184 3262 3590 3595 3465 3188 2843 2606 2698 2810 3024 2837 3190 3189 3151 3197 3290 3697 3528 3400 3186 3209 2890 3058 2469 2544 3218 2992 3631 2048 1346 1994 2320
361 404 647 770 1403 1808 2669 2483 2800 3216 3157 3158 3287 3356 3408 2963 2102 2903 3045 2907 2560 2912 3060 3232 3236 2887 2300 2790 2462 2968 3011 3350 2747 2422 2126 1774 1579 2207 1816 1640 2059 2144 1285
157 267 381 509 682 805 943 1814 2483 2658 2823 3228 3072 2992 2722 2089 722 719 2187 2520 2751 2794 2632 3145 3643 2850 1880 1184 1000 707 695 2158 2593 2976 1706 1440 2266 2820 2012 2161 2034 1565 1771
136 88 131 236 297 561 792 843 1451 2032 2206 2776 2714 2795 2858 2907 1700 940 380 1367 2273 2819 3054 2917 2556 1803 1968 2390 1251 1010 617 536 541 1179 1732 2086 2013 1993 2458 2825 2722 2817 2269
110 34 54 102 129 187 467 914 1045 1111 1621 2036 2478 2574 2476 2541 2205 1747 1256 1101 1755 2277 2274 2704 3287 2805 2599 2608 3045 2905 2016 1873 1459 1100 663 839 1107 1408 2225 2204 2183 2719 2888
1 4 5 17 52 51 74 256 557 804 719 1049 1546 1781 2309 2377 2010 1745 1732 1508 1651 1653 1441 2084 2301 2401 2792 2615 2284 2774 3112 3150 2609 2332 1895 1579 1228 1073 1644 2044 1634 1210 869
0 0 0 0 12 2 55 54 81 195 229 236 471 1150 1617 2092 1710 1582 1375 1467 1955 1826 1890 1745 1029 1154 1446 1794 2009 2695 2327 2195 2202 2288 1904 1068 1299 1350 1631 1802 1363 1057 981
0 0 0 0 0 15 6 4 33 31 54 70 59 156 510 1194 1826 1331 1244 1288 1936 1969 1835 1674 1618 1315 951 764 578 1707 2142 2180 2140 2149 2316 2085 1702 1480 1691 1430 1033 889 1006
0 0 0 0 0 0 1 18 9 1 0 16 33 15 72 517 1031 932 897 858 1163 1375 1548 1639 1673 1426 1227 1006 729 546 494 990 1488 1577 1551 1302 989 691 501 688 1772 1807 1640
3 0 0 0 0 0 0 0 4 6 1 0 0 0 0 234 534 496 632 536 327 722 893 921 1134 1111 1113 1038 973 878 733 542 437 722 895 863 767 609 461 591 689 3231 2503
2 3 1 0 0 0 0 0 0 0 0 0 0 0 0 0 0 36 314 567 390 409 534 653 697 712 692 661 605 670 752 743 737 567 484 467 542 729 722 454 100 42 2336
2 2 0 0 0 0 0 0 0 0 0 0 0 0 0 0 0 0 0 72 312 414 151 126 104 226 593 1149 1021 919 772 639 589 585 593 559 748 943 838 549 247 294 819
4 0 0 0 0 0 0 0 0 0 0 0 0 0 0 0 0 0 0 0 11 38 29 140 240 407 465 702 980 1379 1290 862 1182 1083 901 829 826 822 828 806 762 680 634
14 10 10 5 3 0 0 0 0 0 0 0 0 0 0 0 0 0 0 0 0 0 0 0 0 2 55 248 709 1069 901 1044 1398 1548 1441 1407 1075 933 710 652 728 786 788
8 1 8 17 7 12 3 0 0 0 0 0 0 0 0 0 0 0 0 0 0 0 0 0 9 13 19 99 350 822 924 858 1122 941 654 503 789 1261 1268 1069 1031 1152 938
0 4 8 8 11 0 0 0 0 4 4 6 7 1 0 0 0 0 0 0 0 2 0 0 4 7 21 88 627 730 964 863 513 686 683 823 82 935 916 870 917 520 458
0 0 0 0 12 19 12 8 8 0 13 17 11 0 2 0 0 24 24 0 4 3 0 0 0 0 1 25 232 655 665 707 492 211 98 146 302 1051 1158 1120 1093 1031 1068
0 0 0 0 0 16 18 31 19 10 21 11 1 2 21 40 58 31 19 0 0 0 0 0 0 0 0 3 61 0 0 44 144 151 72 14 73 529 752 752 863 925 858
0 0 0 0 0 0 11 31 9 19 26 33 3 5 23 17 41 53 22 0 0 0 0 0 0 0 0 0 3 27 11 8 14 33 52 146 318 502 634 750 807 857 875
0 0 0 0 0 0 0 0 0 0 1 14 24 4 12 9 16 13 1 0 0 0 0 0 0 0 0 0 2 0 7 8 5 3 0 0 13 32 43 207 488 572 697
0 0 0 0 0 0 0 0 0 0 0 0 4 5 5 2 3 7 0 0 0 0 0 0 0 0 0 0 5 3 16 32 19 23 36 5 0 0 2 19 42 49 55
0 0 0 0 0 0 0 0 0 0 0 1 2 0 6 6 2 0 0 0 0 0 0 0 0 0 0 0 9 23 38 27 69 60 15 18 41 45 65 56 30 38 55
0 0 0 0 0 0 0 0 0 0 0 0 0 2 0 0 0 0 0 0 0 0 0 0 0 0 0 0 5 21 77 54 91 102 71 25 52 62 50 42 55 70 61

GFSGL_con_mucape_105.txt.gz
CAPE
667 815 1856 1768 1796 1874 1671 1610 1031 825 722 152 727 1146 1294 1612 1594 1660 1536 1432 1440 1773 1661 1664 1524 2087 2000 1713 1923 1606 1649 1921 1457 1482 1523 1381 2287 2155 2154 3282 2763 3000 2236
316 356 918 1948 1783 1831 1845 2137 1178 1091 950 1043 309 912 1006 1428 1533 1433 1234 1286 1400 1348 1592 1878 1555 2055 1606 2169 1791 2110 2043 2184 2242 1714 2085 2218 2436 1714 1803 2960 2760 2941 2465
94 393 1060 1595 1853 1781 1988 2036 1896 1513 1358 1310 1166 921 1063 1299 1658 1799 1904 1740 1427 1570 1664 1778 1665 1399 1638 1751 1683 1606 1661 2014 2108 1859 1772 1885 1681 1869 2245 1494 1227 1342 1068
2 253 500 954 1149 1312 1852 2248 2434 1990 1852 1873 1586 1802 1450 1674 1370 1424 1586 1698 1864 1693 1790 1775 1937 1810 1752 1748 1873 1638 1625 1850 1829 1826 1954 1691 1642 1728 1216 1206 971 1203 825
83 147 201 383 654 842 1034 1308 1633 2017 2175 1919 2023 2329 2193 1991 1691 1807 1691 1684 1592 1454 1416 1923 2221 2033 1839 2022 2001 1926 1879 1866 2141 2283 2039 1592 1097 958 1489 1325 917 1819 1385
105 281 322 370 399 548 638 1085 1178 1285 1312 1731 1876 1833 2053 2233 1865 1654 1604 1554 1884 1355 1244 1295 1660 2236 2373 2060 1665 1574 1277 1009 720 707 867 988 863 1040 1362 998 1729 1426 1489
34 48 107 146 222 253 343 434 739 852 1040 1078 1249 1488 1851 1895 1830 1475 1006 597 1738 2028 1914 1594 1496 1474 1358 1368 1872 1819 1269 968 800 617 442 198 553 578 610 748 781 1158 1407
30 23 59 109 119 135 152 312 367 500 618 730 899 1128 1434 1524 1624 1771 1703 1431 1192 829 992 1461 1697 1416 1305 1375 1919 2077 1997 1813 1606 1365 1291 1330 1055 789 847 715 816 1308 1693
23 24 40 62 53 84 123 149 233 380 601 574 753 766 911 1154 1368 1360 1365 1346 1438 1407 1240 1042 1165 1362 1588 1905 1832 1743 1829 1987 2115 2080 1991 2009 1797 1444 1377 1286 1541 1728 1213
0 0 0 0 0 1 26 6 11 38 114 394 221 241 417 687 788 987 1050 934 1123 1297 1375 1389 1280 1151 992 1155 1323 1424 1533 1783 2000 1888 1765 1823 1890 1554 1369 1135 960 846 947
0 0 0 0 0 0 0 0 0 13 40 81 94 82 164 149 157 262 489 578 765 886 1054 1246 1428 1415 1376 1291 1211 1072 851 717 848 1243 1537 1587 1519 1554 1560 1408 1151 927 958
0 0 0 0 0 0 0 0 0 0 4 25 53 38 49 56 50 47 197 562 570 557 626 849 1115 1185 1055 1041 1243 1154 1033 978 856 719 556 757 950 1098 1148 1139 1008 919 722
0 0 0 0 0 0 0 0 0 0 0 0 0 0 0 0 0 2 12 44 288 474 499 415 555 803 810 910 995 881 980 901 864 856 813 647 291 421 679 750 669 486 531
0 0 0 0 0 0 0 0 0 0 0 0 0 0 0 0 0 0 0 0 3 96 175 316 203 217 343 508 515 386 417 573 553 520 651 738 717 744 690 645 620 585 553
0 0 0 0 0 0 0 0 0 0 0 0 0 0 0 0 0 0 0 0 0 0 0 0 36 84 290 78 87 211 730 950 976 850 791 508 420 473 547 601 575 571 640
0 0 0 0 0 0 0 0 0 0 0 0 0 0 0 0 0 0 0 0 0 0 0 0 0 0 3 0 0 0 92 558 712 801 731 718 748 714 590 575 712 815 799
0 0 0 0 0 0 0 0 0 0 0 0 0 0 0 0 0 0 0 0 0 0 0 0 0 0 0 1 9 10 11 106 337 544 616 634 715 751 756 665 634 601 566
0 0 0 0 0 0 0 0 0 0 0 0 0 0 0 0 0 0 0 0 0 0 0 0 0 0 0 0 22 12 37 121 138 573 670 632 484 427 409 238 202 48 104
0 0 0 0 0 0 0 0 0 0 0 0 0 0 0 0 0 0 0 0 0 0 0 0 0 1 2 0 0 0 3 5 167 339 389 442 371 344 217 54 22 4 0
0 0 0 0 0 0 0 0 0 0 0 0 0 0 0 0 0 0 0 3 9 2 0 0 0 0 0 0 0 0 0 2 12 5 116 351 333 154 26 0 1 0 0
0 0 0 0 0 0 0 0 0 0 0 0 0 0 0 0 0 0 0 59 63 24 3 0 0 0 0 0 0 0 0 0 2 4 0 3 133 114 46 45 24 21 23
0 0 0 0 0 0 0 0 0 0 0 0 0 1 0 0 0 1 0 1 21 9 2 0 0 0 0 0 0 0 0 1 3 0 0 0 1 0 10 13 123 64 191
0 0 0 0 0 0 0 0 0 0 0 0 0 0 3 1 1 0 0 3 10 7 7 3 0 0 0 0 0 0 0 0 1 3 0 0 0 0 0 0 0 4 10
0 0 0 0 0 0 0 0 0 0 0 0 0 0 0 0 0 0 0 2 11 9 6 5 3 0 0 0 0 0 0 0 2 2 4 0 0 0 3 3 0 2 6
0 0 0 0 0 0 0 0 0 0 0 0 0 0 0 0 0 0 0 0 10 10 6 0 0 0 0 0 0 0 0 0 0 4 1 20 2 0 5 2 0 18 11
0 0 0 0 0 0 0 0 0 0 0 0 0 0 0 0 0 0 0 11 10 9 2 0 0 0 0 0 0 0 0 1 0 6 4 31 33 31 36 35 7 22 29

GFSGL_con_mucape_108.txt.gz
CAPE
569 708 1003 1378 1219 1070 1429 1338 1206 787 694 610 763 718 1277 1381 1317 1498 963 1486 1256 1271 1463 1332 1355 1617 1934 1289 1669 1557 1694 1757 1967 1857 1772 1851 1903 1619 1827 2008 2293 2574 2293
171 250 199 559 978 1563 1611 1183 979 857 645 460 302 930 944 1175 1487 1500 1320 1346 1212 1083 1170 1194 1396 1299 1631 1440 1631 1648 1882 1599 1645 1755 1564 1390 1511 1593 1348 1279 1229 1119 1110
115 149 281 461 1037 1315 1472 1397 1302 863 793 794 701 674 943 920 1286 1337 1283 1157 1063 1184 918 1059 1378 1377 1061 1074 1238 1306 1149 1245 1567 1497 1431 1757 1919 1289 1095 970 864 766 726
18 68 183 325 569 1147 1335 1207 1375 1264 1029 945 1032 732 444 763 921 1427 1465 1594 1598 1396 1285 1453 1604 1603 1515 1428 1455 1479 1332 1252 1466 1529 1713 1760 1726 1473 1040 963 877 414 946
42 29 70 216 301 463 696 877 1000 1126 1382 1368 1291 1127 1237 1320 1390 1292 1070 1212 1219 1312 1510 1458 1561 1726 1921 1885 1866 1700 1683 1605 1355 1625 1478 1151 1099 842 633 1011 679 665 536
108 101 144 156 126 128 218 316 398 864 1292 1419 1567 1615 1816 1868 1769 1534 1388 1503 1480 1260 1324 1407 1089 1177 1510 1710 1963 1724 1755 1661 1228 965 724 420 279 290 440 486 384 399 535
103 77 82 144 179 68 108 96 119 386 676 936 1187 1394 1549 1594 1672 1709 1621 1510 1264 1117 1438 1614 1394 1370 1297 1311 1184 1267 1505 1586 1534 1398 1276 1087 940 953 1149 766 729 890 854
65 88 124 133 84 14 14 82 49 138 276 538 621 819 1005 1077 1332 1434 1407 1419 1400 1232 1143 950 1198 1540 1648 1385 1194 1155 1283 1475 1556 1516 1453 1505 1560 1611 1623 1462 1053 1085 903
98 79 77 77 120 130 86 112 23 105 145 230 255 359 525 726 782 932 1105 1141 1186 1070 1141 1294 1313 1243 1157 1290 1373 1417 1379 1317 1319 1587 1707 1846 1749 1769 1958 2042 1888 1420 819
30 34 44 18 11 0 39 68 139 129 133 97 126 245 259 129 226 490 545 700 781 882 861 963 1122 1144 1135 1254 1247 1183 1066 954 940 998 1345 1504 1692 1703 1617 1539 1585 1269 985
0 0 0 0 0 0 0 0 0 12 34 48 52 47 66 71 68 85 139 278 473 490 558 631 792 1025 1067 1076 1182 1258 1149 1064 973 986 989 942 931 1178 1328 1408 1403 1300 1103
0 0 0 0 0 0 0 0 0 0 0 2 4 33 56 63 38 55 82 80 93 289 461 445 428 503 625 741 853 1081 1009 1018 1015 915 876 848 809 799 797 1031 1134 1184 1144
0 0 0 0 0 0 0 0 0 0 0 0 0 0 3 2 9 1 13 25 34 6 1 69 212 204 184 148 156 289 416 530 522 490 555 643 629 611 666 618 626 667 707
0 0 0 0 0 0 0 0 0 0 0 0 0 0 0 0 0 0 0 0 0 0 0 0 0 1 0 1 52 0 59 41 109 121 326 518 644 625 660 541 350 312 383
0 0 0 0 0 0 0 0 0 0 0 0 0 0 0 0 0 0 0 0 0 0 0 0 0 0 0 0 0 0 0 23 219 319 424 563 592 512 485 418 384 514 508
0 0 0 0 0 0 0 0 0 0 0 0 0 0 0 0 0 0 0 0 0 0 0 0 0 0 0 0 0 0 0 3 4 31 145 235 260 308 378 334 346 400 460
0 0 0 0 0 0 0 0 0 0 0 0 0 0 0 0 0 0 0 0 0 0 0 0 0 0 0 7 0 0 0 0 3 27 198 73 272 400 426 386 393 408 535
0 0 0 0 0 0 0 0 0 0 0 0 0 0 0 0 0 0 0 0 0 0 0 0 0 0 0 0 0 0 0 0 3 1 0 134 83 199 210 198 273 285 233
0 0 0 0 0 0 0 0 0 0 0 0 0 0 0 0 0 0 0 0 0 0 0 0 0 1 0 0 0 0 0 0 0 0 0 0 0 28 34 45 77 78 68
0 0 0 0 0 0 0 0 0 0 0 0 0 0 0 0 0 0 0 0 0 0 0 3 16 19 5 0 0 0 0 0 0 0 0 0 1 5 8 42 26 51 18
0 0 0 0 0 0 0 0 0 0 0 0 0 0 0 0 0 0 9 15 15 4 19 40 51 5 10 3 0 0 0 0 0 0 0 0 0 1 1 4 9 6 17
0 0 0 0 0 0 0 0 0 0 0 0 0 0 0 0 0 0 0 2 11 9 15 5 13 9 8 5 3 0 0 0 0 0 0 0 0 2 3 0 0 0 0
0 0 0 0 0 0 0 0 0 0 0 0 0 0 0 0 0 0 0 0 1 4 0 7 10 7 7 8 10 1 0 0 0 0 0 0 0 0 3 1 0 0 0
0 0 0 0 0 0 0 0 0 0 0 0 0 0 0 0 0 0 0 0 0 0 0 0 0 7 4 2 4 0 0 0 0 0 0 0 0 1 0 3 2 0 0
0 0 0 0 0 0 0 0 0 0 0 0 0 0 0 0 0 0 0 0 0 0 0 0 0 0 8 1 3 1 0 0 0 0 0 0 0 0 2 4 3 0 0
0 0 0 0 0 0 0 0 0 0 0 0 0 0 0 0 0 0 0 0 0 0 0 0 0 0 0 0 3 0 0 0 0 0 0 0 0 3 1 3 5 10 0

GFSGL_con_mucape_111.txt.gz
CAPE
821 1058 1050 933 719 508 205 411 539 644 763 627 809 1019 1186 1087 1032 1073 1275 1087 1270 1170 1227 1330 1160 1266 1740 1408 1525 1535 1795 1825 1603 1523 1590 1433 1489 1409 1324 1222 1061 995 1014
550 632 694 715 903 1114 1087 977 1308 1131 690 582 557 876 819 1044 1195 1299 1459 1218 1145 1204 1044 1024 933 1215 1149 1199 1228 1288 1328 1187 1302 1183 1287 1495 1785 1564 1179 1018 888 718 662
258 157 145 192 367 705 1138 1361 1376 886 828 652 466 193 606 810 1055 1381 1304 1288 1168 1033 1011 941 954 1242 1255 1182 1036 1137 1262 1260 1177 1294 1333 1478 1520 1516 1377 926 628 507 326
6 78 89 165 251 637 1025 1284 1190 1131 1023 749 678 639 501 737 764 886 1295 1255 1185 1140 1266 1273 1224 1441 1571 1480 1580 1617 1528 1433 1480 1359 1123 1336 1234 917 637 308 241 76 205
36 76 84 126 190 391 624 956 867 958 1123 1116 1143 1013 862 539 455 703 917 1223 1160 1213 1213 1256 1421 1378 1500 1605 1890 1844 1814 1811 1780 1558 1380 933 692 580 440 609 416 403 547
122 125 171 144 102 118 185 363 331 605 667 810 1129 1337 1403 1074 1311 1286 1280 1230 1075 1251 1376 1200 1137 1283 1326 1030 1120 1404 1506 1425 1632 1540 1304 1445 1193 1222 1140 1056 1036 747 641
136 88 82 135 120 99 71 88 118 138 175 342 620 763 1102 1340 1514 1532 1651 1661 1645 1541 1437 1124 966 1160 1491 1533 1320 1234 1094 1046 1143 1170 1224 1197 1130 1120 1159 1255 1376 1381 1086
81 123 95 53 45 46 5 9 50 27 63 88 172 322 532 731 921 1191 1366 1500 1490 1528 1446 1254 1064 1008 875 878 1079 1282 1285 1245 1230 1181 1115 1050 977 1044 1461 1582 1493 1531 1569
75 104 103 105 119 107 48 10 28 7 5 65 77 130 147 200 477 686 763 802 970 937 943 993 1014 1114 1142 1124 1176 1143 1069 993 913 838 961 1056 1163 1302 1416 1553 1672 1607 1299
181 126 112 120 121 92 135 134 153 105 53 34 5 35 64 98 111 118 132 197 376 456 665 710 724 786 855 906 880 965 1042 1028 1130 1104 1003 895 888 869 784 887 883 867 806
33 46 56 81 69 11 2 3 25 58 97 109 111 65 121 96 73 24 64 65 83 150 323 418 403 385 424 473 565 682 750 860 896 920 887 832 771 764 786 753 702 696 743
0 0 0 0 0 0 0 0 0 0 0 3 26 44 79 76 66 58 59 23 26 48 60 85 115 134 187 244 228 285 295 354 376 483 520 526 426 415 465 501 548 559 570
0 0 0 0 0 0 0 0 0 0 0 0 0 0 0 0 2 7 65 78 54 52 46 55 37 14 0 1 5 2 9 22 65 63 50 177 166 108 318 503 550 559 514
0 0 0 0 0 0 0 0 0 0 0 0 0 0 0 0 0 0 0 0 0 0 0 0 0 0 0 0 0 0 0 0 0 1 4 9 85 114 189 185 165 180 264
0 0 0 0 0 0 0 0 0 0 0 0 0 0 0 0 0 0 0 0 0 0 0 0 0 0 0 0 0 0 0 0 0 1 12 15 10 40 75 106 142 171 197
0 0 0 0 0 0 0 0 0 0 0 0 0 0 0 0 0 0 0 0 0 0 0 0 0 0 0 0 0 0 0 0 0 0 0 0 2 9 36 111 154 198 230
0 0 0 0 0 0 0 0 0 0 0 0 0 0 0 0 0 0 0 0 0 0 0 0 0 0 0 0 0 0 0 0 0 0 0 0 0 0 7 46 90 331 500
0 0 0 0 0 0 0 0 0 0 0 0 0 0 0 0 0 0 0 0 0 0 0 0 0 0 0 0 0 0 0 0 0 0 0 0 14 13 1 1 1 0 4
0 0 0 0 0 0 0 0 0 0 0 0 0 0 0 0 0 0 0 0 0 0 0 0 0 0 1 5 0 0 0 0 0 0 0 0 0 0 6 3 3 4 12
0 0 0 0 0 0 0 0 0 0 0 0 0 0 0 0 0 0 0 0 0 17 14 1 2 12 25 22 8 3 2 0 0 0 0 0 0 0 0 0 0 0 1
0 0 0 0 0 0 0 0 0 0 0 0 0 0 0 0 0 0 0 0 0 0 0 0 2 1 5 10 6 14 3 2 1 0 0 0 0 0 0 0 0 0 0
0 0 0 0 0 0 0 0 0 0 0 0 0 0 0 0 0 0 0 0 0 0 0 0 0 0 3 5 7 3 8 2 1 1 0 0 0 0 0 0 0 0 0
0 0 0 0 0 0 0 0 0 0 0 0 0 0 0 0 0 0 0 0 0 0 0 0 0 0 2 0 3 2 2 3 2 1 0 0 0 0 0 0 0 0 0
0 0 0 0 0 0 0 0 0 0 0 0 0 0 0 0 0 0 0 0 0 0 0 0 0 0 0 0 0 0 0 0 3 2 1 1 0 0 0 0 0 0 0
0 0 0 0 0 0 0 0 0 0 0 0 0 0 0 0 0 0 0 0 0 0 0 0 0 0 0 0 0 0 0 0 0 0 0 0 0 0 0 0 0 0 0
0 0 0 0 0 0 0 0 0 0 0 0 0 0 0 0 0 0 0 0 0 0 0 0 0 0 0 0 0 0 0 0 0 0 0 0 0 0 0 0 0 0 0

GFSGL_con_mucape_114.txt.gz
CAPE
646 678 682 613 539 409 344 385 528 581 707 705 648 649 884 912 836 981 1076 1157 1016 1086 1155 1332 1290 1050 1687 1318 1339 1294 1516 1517 1719 1583 1073 1311 1650 2042 1862 1346 1006 1074 762
545 899 762 692 602 717 658 292 237 367 487 587 555 577 730 933 913 936 1071 1185 1102 1069 1079 1005 1136 1160 1294 1159 1174 1388 1421 1231 1360 1478 1334 1350 1793 1712 1418 1456 833 638 545
295 462 418 432 398 457 621 858 874 1008 854 603 551 419 578 737 747 943 1135 1281 1192 1119 948 963 905 1125 1304 1163 1168 1193 1284 1316 1272 1431 1356 1156 1324 1085 1158 882 680 576 270
140 280 170 70 111 265 509 774 1062 1192 975 712 645 549 452 340 544 756 902 1171 1144 1032 957 1037 1063 1225 1461 1535 1329 1478 1650 1624 1567 1611 1470 1425 1166 895 752 804 754 571 479
65 63 6 39 50 174 397 607 829 1001 1027 982 927 914 870 699 602 395 571 1090 1174 1186 1205 1165 1211 1125 1193 1297 1550 2027 1541 1681 1639 1508 1480 1300 1286 1302 1109 1028 1061 1099 1086
64 20 47 109 71 95 242 387 565 719 692 759 831 979 1163 1213 1045 911 814 1022 1195 1135 1010 1151 1239 1265 1163 1123 1287 1235 917 1631 1779 1272 1169 942 1004 1045 969 1099 1137 1127 1128
15 28 95 145 106 52 108 157 225 225 244 373 440 514 604 775 1038 1269 1336 1441 1472 1443 1472 1445 1298 971 889 1035 1086 1059 1379 1382 1187 1410 1184 1005 866 809 774 739 826 1269 1337
138 126 157 88 115 159 81 62 61 61 80 106 127 137 144 244 350 527 793 1012 1110 1118 1148 1216 1306 1205 986 922 931 885 897 914 863 809 861 823 691 704 818 858 875 814 904
200 164 182 170 110 107 19 20 18 12 8 50 87 95 77 86 121 123 141 285 461 521 642 720 768 794 885 876 847 895 931 970 994 998 1003 984 949 853 760 702 664 626 988
268 224 113 134 161 122 96 83 88 99 101 63 0 12 42 22 14 35 38 44 56 122 296 372 499 556 597 634 664 700 713 709 716 809 870 884 811 738 691 641 625 715 882
155 189 189 213 180 155 84 78 61 72 93 132 101 48 17 1 6 4 35 14 25 42 48 174 183 240 308 293 270 313 344 358 390 406 428 575 656 563 457 357 269 334 558
107 72 102 160 207 162 23 9 5 0 0 3 12 57 46 15 13 64 72 35 27 18 46 26 8 12 32 44 45 35 16 19 26 33 44 66 77 55 116 173 500 387 398
0 0 0 0 0 0 0 0 0 0 0 0 0 0 0 0 0 0 0 2 32 71 44 20 18 5 3 8 11 10 0 0 0 0 0 0 2 3 37 161 242 252 396
0 0 0 0 0 0 0 0 0 0 0 0 0 0 0 0 0 0 0 0 0 0 0 0 0 18 0 0 0 0 0 0 0 2 9 12 18 18 93 83 139 131 142
0 0 0 0 0 0 0 0 0 0 0 0 0 0 0 0 0 0 0 0 0 0 0 0 0 0 0 0 0 0 0 7 6 0 0 1 0 0 4 13 18 24 60
0 0 0 0 0 0 0 0 0 0 0 0 0 0 0 0 0 0 0 0 0 0 0 0 0 0 0 0 0 0 1 0 0 0 7 2 0 5 8 18 10 29 45
0 0 0 0 0 0 0 0 0 0 0 0 0 0 0 0 0 0 0 0 0 0 0 0 0 0 0 0 1 0 0 0 0 0 0 0 0 0 21 19 21 19 9
0 0 0 0 0 0 0 0 0 0 0 0 0 0 0 0 0 0 0 0 0 0 0 0 1 3 0 0 0 1 0 0 0 0 0 0 0 0 0 0 0 15 12
0 0 0 0 0 0 0 0 0 0 0 0 0 0 0 0 0 0 0 0 0 0 0 7 26 9 0 3 6 4 4 2 0 0 0 0 0 0 0 0 0 0 0
0 0 0 0 0 0 0 0 0 0 0 0 0 0 0 0 0 0 0 0 0 0 0 0 3 0 0 1 3 2 5 3 4 0 0 0 0 0 0 0 0 0 0
0 0 0 0 0 0 0 0 0 0 0 0 0 0 0 0 0 0 0 0 0 0 0 0 0 0 0 0 0 0 0 2 4 1 0 0 0 0 0 0 0 0 0
0 0 0 0 0 0 0 0 0 0 0 0 0 0 0 0 0 0 0 0 0 0 0 0 0 0 0 0 0 0 0 0 0 1 0 0 0 0 0 0 0 0 0
0 0 0 0 0 0 0 0 0 0 0 0 0 0 0 0 0 0 0 0 0 0 0 0 0 0 0 0 0 0 0 0 0 0 0 0 0 0 0 0 0 0 0
0 0 0 0 0 0 0 0 0 0 0 0 0 0 0 0 0 0 0 0 0 0 0 0 0 0 0 0 0 0 0 0 0 0 0 0 0 0 0 0 0 0 0
4 0 0 0 0 0 0 0 0 0 0 0 0 0 0 0 0 0 0 0 0 0 0 0 0 0 0 0 0 0 0 0 0 0 0 0 0 0 0 0 0 0 0
0 0 0 0 0 0 0 0 0 0 0 0 0 0 0 0 0 0 0 0 0 0 0 0 0 0 0 0 0 0 0 0 0 0 0 0 0 0 0 0 0 0 0

GFSGL_con_mucape_117.txt.gz
CAPE
1223 1543 1626 1206 931 1047 994 1156 1391 1650 1775 1774 1909 2039 2167 2275 2243 2373 2406 2260 2271 2295 2411 2658 2642 2606 2357 2373 2413 2247 2246 2268 1557 1274 2105 2046 2664 3045 2915 2407 1319 538 658
1055 1384 1214 1137 1310 1386 1183 802 970 1260 1473 1651 1799 1673 1704 1984 1993 2083 1960 1602 2193 2116 2125 2354 2353 1803 2505 2572 2124 2595 2377 2495 2236 2518 2616 2245 2664 2750 2647 2333 1577 863 1518
803 824 682 729 864 1257 1581 1769 1413 1597 1784 1503 1354 1397 1455 1666 1938 1947 2072 1772 1779 2034 2090 2152 2169 2108 2600 2040 2430 2248 2281 2435 2625 2458 2525 2439 2607 2485 2256 2055 2069 2189 1175
272 174 300 317 313 264 643 1669 1983 2120 1954 1606 1393 1199 913 995 1283 1512 1851 2002 1923 1847 1905 1846 1836 2038 2265 2459 2394 2597 2449 2378 2415 2613 2353 2031 2371 2408 2035 1906 1725 1731 1876
98 83 87 198 137 255 312 633 1614 2110 2002 1695 1561 1276 848 712 646 965 1234 1489 1610 1509 1714 2003 1821 1477 1199 1346 2346 2926 2456 1636 1464 1591 1487 1708 1440 1782 1929 1569 1597 1523 1924
108 89 60 84 85 73 153 343 579 968 1325 1481 1567 1787 1984 1337 986 769 730 1137 1664 2005 2072 2117 2067 1463 1419 1121 929 955 1251 2569 2819 1745 1789 1859 2337 2037 1227 1243 1050 805 435
45 60 76 29 92 79 123 205 356 449 538 656 613 608 637 693 819 1062 1142 1973 2268 2349 2472 2507 2383 1507 1216 1962 1530 886 871 899 1133 2249 2518 2472 2162 1961 1979 1954 1883 1887 1675
9 1 51 35 72 132 105 120 125 82 112 148 193 281 358 315 333 399 535 1276 1648 1712 1684 1703 1769 1843 1536 1082 1729 1972 2010 2004 1823 1360 1688 1998 2064 2066 2097 1979 1934 1781 1680
65 97 81 91 75 125 112 153 32 36 40 85 107 121 191 127 129 134 146 393 732 811 935 907 912 1480 838 690 919 1741 1909 1916 1247 859 759 819 811 806 816 822 1448 1666 1547
143 145 188 196 214 235 137 60 7 25 21 37 37 39 28 36 33 48 61 63 39 68 324 456 368 359 398 377 373 373 1130 1371 1088 1067 1202 1122 1116 1318 808 651 1186 1441 1332
174 227 240 204 190 238 221 170 109 81 73 76 98 72 10 0 0 8 19 12 15 20 14 31 84 103 90 51 49 69 84 110 120 117 104 308 482 702 853 1130 1480 1217 943
198 174 162 191 214 215 168 181 87 26 28 57 33 20 19 25 21 4 1 0 0 6 9 51 38 48 11 0 0 0 0 1 0 3 0 0 0 0 2 91 411 630 828
69 117 99 31 59 47 63 16 24 1 0 0 0 0 0 0 0 0 0 0 0 2 3 3 44 19 14 0 0 0 0 0 0 0 0 0 3 15 49 84 108 440 746
0 0 0 0 0 0 0 0 0 0 0 0 0 0 0 0 0 0 0 0 0 0 0 0 0 0 0 0 3 0 0 0 0 0 1 0 0 0 0 5 15 44 78
0 0 0 0 0 0 0 0 0 0 0 0 0 0 0 0 0 0 0 0 0 0 0 0 0 0 0 0 0 0 0 0 0 0 0 0 0 0 0 0 0 3 25
0 0 0 0 0 0 0 0 0 0 0 0 0 0 0 0 0 0 0 0 0 0 0 0 0 0 0 0 0 0 2 1 0 0 0 0 0 0 0 0 0 0 0
0 0 0 0 0 0 0 0 0 0 0 0 0 0 0 0 0 0 0 0 0 0 0 0 0 0 0 0 0 4 11 18 10 4 2 0 0 0 0 0 0 0 0
0 0 0 0 0 0 0 0 0 0 0 0 0 0 0 0 0 0 0 0 0 0 0 1 8 3 10 10 5 2 2 4 5 1 0 0 0 5 2 1 0 0 0
0 0 0 0 0 0 0 0 0 0 0 0 0 0 0 0 0 0 0 0 0 0 0 0 0 1 7 17 20 13 3 1 0 2 1 1 0 0 0 0 2 0 0
0 0 0 0 0 0 0 0 0 0 0 0 0 0 0 0 0 0 0 0 0 0 0 0 0 0 0 9 0 0 0 0 0 0 0 0 1 0 0 0 0 0 0
0 0 0 0 0 0 0 0 0 0 0 0 0 0 0 0 0 0 0 0 0 0 0 0 0 0 0 0 0 0 0 0 0 0 0 0 0 0 0 0 0 0 0
0 0 0 0 0 0 0 0 0 0 0 0 0 0 0 0 0 0 0 0 0 0 0 0 0 0 0 0 0 0 0 0 0 0 0 0 0 0 0 0 0 0 0
0 0 0 0 0 0 0 0 0 0 0 0 0 0 0 0 0 0 0 0 0 0 0 0 0 0 0 0 0 0 0 0 0 0 0 0 0 0 0 0 0 0 0
1 3 0 0 0 0 0 0 0 0 0 0 0 0 0 0 0 0 0 0 0 0 0 0 0 0 0 0 0 0 0 0 0 0 0 0 0 0 0 0 0 0 0
16 7 0 0 0 0 0 0 0 0 0 0 0 0 0 0 0 0 0 0 0 0 0 0 0 0 0 0 0 0 0 0 0 0 0 0 0 0 0 0 0 0 0
4 8 7 1 0 0 0 0 0 0 0 0 0 0 0 0 0 0 0 0 0 0 0 0 0 0 0 0 0 0 0 0 0 0 0 0 0 0 0 0 0 0 0

GFSGL_con_mucape_120.txt.gz
CAPE
1535 1230 1463 1257 1449 1784 1348 1658 2189 1887 1757 1781 1751 1547 1561 1705 1994 2424 1882 1927 2396 2344 2343 2382 2408 2760 1941 1998 1947 1907 1811 1689 1518 1110 1212 1834 2625 2187 2468 2679 1301 936 743
1477 1570 1200 1273 1131 1192 1570 1580 1932 2426 2519 1986 1944 1727 1692 1672 1890 1964 1625 1125 1836 1808 1903 2063 2205 1653 2346 2366 1836 2195 2340 2262 2060 2041 1959 1802 1778 2506 2902 3071 2224 749 1378
1577 1293 1164 1170 1234 1253 1290 1153 1456 1787 2076 2100 2271 2174 1442 1569 1879 1756 1743 1692 1657 1543 1557 1814 1891 2162 2528 2115 2394 2119 1580 1956 2101 1991 1885 1701 1658 1914 2155 1894 1851 1852 671
1351 1305 1457 1421 1396 1295 1650 1683 2074 1750 1910 2277 2241 2053 1825 1809 1980 1784 1819 1766 1621 1333 1346 1499 1650 1835 2003 2056 2071 2175 2155 2091 2016 1721 1320 1243 1092 1361 2151 1444 1062 882 863
592 747 865 781 988 1078 1133 1618 2017 1845 1278 1485 2107 2086 1806 1564 1398 1853 1807 1760 1543 1362 1252 1466 1531 1298 1050 1298 1509 1858 2322 1925 1004 666 634 640 834 1633 1856 1119 939 465 965
287 299 280 359 405 410 554 634 1282 1940 1981 2077 2104 1982 2030 1409 807 515 971 1839 1706 1813 1777 1714 1816 1299 1285 1119 1001 936 1135 2823 2561 1944 1350 1545 2091 1852 1177 1017 1429 1121 1017
49 205 179 245 324 393 342 419 768 1089 1529 1853 1875 1863 1881 1099 795 858 961 1821 2057 1949 2000 1908 1640 764 1215 1638 1262 1211 1000 800 855 2403 2385 2197 2403 2082 2534 2517 2957 2389 2222
8 82 95 75 75 115 256 301 314 405 509 831 1040 1165 701 348 323 319 393 1929 2084 2002 1877 1864 2048 2003 1295 1378 2064 2238 1974 1844 1997 1995 2264 2222 2580 2593 2486 2609 2519 2542 2398
16 17 61 66 71 77 72 69 161 233 307 355 375 532 194 147 157 164 348 997 1309 1319 1151 1125 837 1149 1064 889 648 1823 2196 2097 1350 1017 970 773 691 669 654 925 1420 1907 1556
5 9 39 71 57 35 58 61 112 99 72 221 121 100 81 90 101 101 57 140 135 214 183 171 262 277 368 186 203 186 518 1012 626 618 305 693 1102 1577 1300 1471 2100 1817 2097
12 86 97 102 64 112 88 74 100 69 82 63 38 24 35 29 10 12 21 25 32 34 26 11 6 26 18 37 60 50 10 14 14 10 3 48 179 334 523 1779 1565 1184 1218
116 111 116 108 143 110 125 136 136 160 135 85 50 20 46 98 101 51 59 12 3 6 1 0 0 0 13 4 18 31 21 14 0 0 2 2 12 17 19 90 216 398 606
156 108 110 72 15 158 183 181 233 176 70 17 16 9 4 0 0 0 0 0 0 0 0 0 0 0 0 0 5 4 3 5 1 0 0 5 0 0 3 33 15 33 410
18 56 2 29 1 7 0 0 5 12 8 4 0 1 0 0 0 0 0 0 0 0 0 0 0 0 0 0 0 0 0 0 0 0 0 0 0 0 0 0 0 0 0
0 0 0 0 0 0 0 0 0 0 0 0 0 0 0 0 0 0 0 0 0 0 0 0 0 0 0 0 0 0 0 2 7 0 0 0 0 0 0 0 0 0 0
0 0 0 0 0 0 0 0 0 0 0 0 0 0 0 0 0 0 0 0 0 0 0 0 0 0 0 0 0 0 0 0 7 6 0 2 2 1 0 0 0 0 0
0 0 0 0 0 0 0 0 0 0 0 0 0 0 0 0 0 0 0 0 0 0 0 0 0 0 0 0 0 0 1 3 16 11 11 6 4 8 7 3 0 0 0
0 0 0 0 0 0 0 0 0 0 0 0 0 0 0 0 0 0 0 0 0 0 0 0 0 0 0 0 0 0 1 3 6 7 10 11 15 15 12 11 9 6 4
0 0 0 0 0 0 0 0 0 0 0 0 0 0 0 0 0 0 0 0 0 0 0 0 0 0 0 1 7 11 11 13 10 13 17 16 12 10 20 15 13 3 2
0 0 0 0 0 0 0 0 0 0 0 0 0 0 0 0 0 0 0 0 0 0 0 0 0 0 0 0 0 0 0 0 0 0 0 0 0 0 0 3 4 5 3
0 0 0 0 0 0 0 0 0 0 0 0 0 0 0 0 0 0 0 0 0 0 0 0 0 0 0 0 0 0 0 0 0 0 0 0 0 0 0 0 0 0 0
0 0 0 0 0 0 0 0 0 0 0 0 0 0 0 0 0 0 0 0 0 0 0 0 0 0 0 0 0 0 0 0 0 0 0 0 0 0 0 0 0 0 0
0 0 0 0 0 0 0 0 0 0 0 0 0 0 0 0 0 0 0 0 0 0 0 0 0 0 0 0 0 0 0 0 0 0 0 0 0 0 0 0 0 0 0
1 0 0 0 0 0 0 0 0 0 0 0 0 0 0 0 0 0 0 0 0 0 0 0 0 0 0 0 0 0 0 0 0 0 0 0 0 0 0 0 0 0 0
4 2 0 0 0 0 0 0 0 0 0 0 0 0 0 0 0 0 0 0 0 0 0 0 0 0 0 0 0 0 0 0 0 0 0 0 0 0 0 0 0 0 0
0 0 1 0 10 1 0 0 0 0 0 0 0 3 7 7 10 13 3 0 0 0 0 0 0 0 0 0 0 0 0 0 0 0 0 0 0 0 0 0 0 0 0

GFSGL_con_mucape_123.txt.gz
CAPE
1289 1362 1207 1110 1249 1742 1308 1493 1838 2029 1671 1583 1577 1656 1665 1675 1847 2422 2585 2495 2344 2256 2135 2331 2044 3199 2292 1711 2109 1754 1409 1690 1891 980 875 2256 2465 2079 2473 2999 2309 2218 1108
1570 1516 1098 1102 1122 1418 1653 1719 1818 1978 1997 1972 1767 1866 1818 1754 1850 1907 1809 1292 1689 1752 1556 1944 1703 1433 2858 4123 1737 3720 2503 2806 1584 3564 2594 2089 3310 1892 2446 3756 2196 1198 1389
1603 1599 1571 1252 1035 1215 1571 1538 1701 1853 2300 1846 1974 1781 1876 1755 1986 2014 2114 1980 1717 1420 1321 1284 1370 1590 2860 2053 2569 2506 1548 1712 1916 944 1500 1645 1745 2099 2347 3507 3422 2543 1428
1906 1827 2363 1734 1375 1027 1512 1565 1657 1882 1876 1853 2068 1919 1814 1843 1952 1880 1755 1908 1711 1464 1273 1316 1226 1323 1514 2254 2418 2985 2876 2352 2010 1495 1118 1045 760 2597 2443 1181 930 955 629
1820 2183 1847 2282 2260 1593 1593 1768 1563 1648 1606 1868 2096 1795 1586 1644 1288 2003 1645 1362 1572 1472 1174 1186 1551 1196 992 1490 1464 3093 3361 2341 1455 1164 734 695 1257 1883 1524 1015 1003 907 1566
1584 1449 1452 1487 1399 1554 1680 1766 1935 1923 1823 1986 1879 1935 1911 1402 551 599 993 2049 1669 1763 1843 1711 1725 1347 1287 919 792 871 1061 2363 2725 1723 1425 1613 3303 1980 1064 2054 1766 1719 1648
571 562 631 820 873 922 1039 987 1369 1903 2078 1978 1847 1601 1438 1186 927 642 604 1472 2003 1647 2028 2184 1873 801 1358 1933 1279 1076 1184 991 840 2660 2328 2770 3153 3095 3097 3383 3148 2900 2105
79 119 124 139 239 616 622 773 861 1084 1588 1754 1611 1543 1119 896 556 321 417 708 2139 1974 1803 1848 2113 1495 976 911 1674 1948 1834 2053 1566 1626 2798 2619 2520 2258 2731 2590 2954 2824 2223
0 14 56 22 27 45 116 236 354 576 939 847 751 753 432 277 230 183 226 1331 1473 1496 798 570 674 610 550 495 451 1075 1389 1738 1501 986 968 909 728 678 914 1310 1285 1815 1473
1 9 15 11 11 40 49 62 96 213 334 216 346 404 154 106 110 107 155 1245 793 1042 525 83 63 92 118 83 58 53 82 164 99 77 74 200 477 1431 1136 1360 2536 2094 2000
0 0 1 21 36 25 38 35 32 53 72 83 111 84 64 13 20 19 43 51 46 51 21 18 9 3 4 1 2 7 18 27 22 0 22 49 209 529 855 1329 1499 789 515
1 3 8 40 35 64 43 63 45 61 108 54 129 82 52 43 3 10 20 49 40 15 9 3 0 0 0 0 0 0 0 6 24 17 16 14 20 5 7 30 418 777 233
0 23 57 24 71 59 64 62 73 67 107 145 59 80 57 25 15 8 16 6 4 0 0 0 0 0 0 0 0 0 0 0 0 1 5 3 1 0 47 20 27 258 452
4 101 47 15 35 38 72 88 83 75 104 108 85 35 17 0 0 0 0 0 0 0 0 0 0 0 0 0 0 0 0 0 0 0 0 0 0 0 0 0 0 0 0
13 62 0 3 0 0 0 0 0 0 0 0 5 0 10 13 3 0 0 0 0 0 0 0 0 0 0 0 0 0 0 0 0 5 6 0 0 0 0 0 0 0 0
15 0 0 0 0 0 0 0 0 0 0 0 0 0 0 0 0 0 0 0 0 0 0 0 0 0 0 0 0 0 0 0 0 0 0 1 2 0 0 0 0 1 0
2 0 0 0 0 0 0 0 0 0 0 0 0 0 0 0 0 0 0 0 0 0 0 0 0 0 0 0 0 0 0 0 0 0 1 2 1 0 0 1 0 0 0
0 0 0 0 0 0 0 0 0 0 0 0 0 0 0 0 0 0 0 0 0 0 0 0 0 0 0 0 0 0 0 0 0 0 2 1 3 8 8 8 5 4 2
0 0 0 0 0 0 0 0 0 0 0 0 0 0 0 0 0 0 0 0 0 0 0 0 0 0 0 0 0 0 0 0 0 0 0 0 1 1 2 3 4 0 0
0 0 0 0 0 0 0 0 0 0 0 0 0 0 0 0 0 0 0 0 0 0 0 0 0 0 0 0 0 0 0 0 0 0 0 0 0 0 0 0 0 0 0
0 0 0 0 0 0 0 0 0 0 0 0 0 0 0 0 0 0 0 0 0 0 0 0 0 0 0 0 0 0 0 0 0 0 0 0 0 0 0 0 0 0 0
0 0 0 0 0 0 0 0 0 0 0 0 0 0 0 0 0 0 0 0 0 0 0 0 0 0 0 0 0 0 0 0 0 0 0 0 0 0 0 0 0 0 0
0 0 0 0 0 0 0 0 0 0 0 0 0 0 0 0 0 0 0 0 0 0 0 0 0 0 0 0 0 0 0 0 0 0 0 0 0 0 0 0 0 0 0
0 1 0 0 0 0 0 0 0 0 0 0 0 0 0 0 0 0 0 0 0 0 0 0 0 0 0 0 0 0 0 0 0 0 0 0 0 0 0 0 0 0 0
1 4 1 0 0 0 0 0 0 0 0 0 0 0 0 0 0 0 0 7 4 0 0 0 0 0 0 0 0 0 0 0 0 0 0 0 0 0 0 0 0 0 0
2 3 11 1 1 6 0 0 0 0 0 0 0 0 0 0 10 23 23 24 17 14 12 0 0 0 0 0 0 0 0 0 0 0 0 0 0 0 0 0 0 0 0

GFSGL_con_mucape_126.txt.gz
CAPE
1822 2073 2284 2261 2453 2551 2223 2447 2634 2767 3052 3024 2876 2340 2837 2294 2926 3077 2657 2595 2578 2704 3171 2755 2938 3320 3074 2488 2441 2171 1823 2533 2025 2367 1923 2091 3571 2693 2929 3436 2523 2260 765
1653 2285 2432 2524 2816 2342 2397 2757 2960 3421 3006 2737 3015 2942 2249 3021 2302 2702 2949 2247 2204 2615 2713 3084 2836 1516 3128 3418 3058 2779 2735 3080 1825 2030 2779 1967 2331 1771 3139 3365 2664 1439 1707
2084 1811 1948 2078 2366 2657 2586 1892 2473 3029 2591 2456 2684 2838 2861 2563 2197 2782 2703 2452 2677 2217 2225 2687 2529 2638 2915 2771 2765 2769 2565 2299 2474 2135 1973 1764 2078 1919 586 2374 2672 1635 700
1385 1365 2075 2171 2441 2001 2717 2561 2664 2535 2610 2592 2834 2663 2771 2572 2985 1721 1799 2434 2423 2127 1937 1724 2424 2030 2564 2412 2426 2352 2023 2226 2476 2060 1284 1977 1767 2186 1800 2007 1190 1764 1467
1505 1984 1806 2521 2418 2347 2509 2629 2496 2822 2603 2419 2284 2065 1995 2265 1073 815 1799 1815 2445 2540 2196 2065 1975 996 743 1493 1852 2300 2318 2517 1751 1383 1444 1461 1743 2067 1767 2288 1977 1688 1843
2148 1474 1457 2246 2405 2047 2310 2353 2402 2521 2452 2067 2594 1524 1422 912 807 420 609 2136 1935 1338 1590 2083 2495 915 1356 717 566 559 550 2280 2532 2086 1846 1428 1690 2145 1928 2233 1966 1999 1784
980 977 1071 1283 1605 1637 1557 1820 2093 2338 2174 2057 1706 1162 810 672 520 463 414 1490 2104 1423 1121 2490 1847 881 661 1168 1487 989 988 1152 1160 1225 1739 2241 1942 2169 2277 2223 2106 1929 1659
288 308 291 319 267 367 622 622 934 1653 2107 2087 1699 1032 860 479 442 424 391 435 1719 1869 1370 1164 760 589 514 537 925 1710 1825 1765 1687 1288 1730 1771 1633 1564 1938 1546 1524 1752 1817
94 54 67 129 134 78 166 316 393 1190 986 923 827 1142 552 430 296 157 108 963 1947 910 439 308 306 227 194 157 120 179 464 618 398 496 463 106 62 77 216 742 1177 1223 1132
101 42 72 81 51 36 66 82 145 195 269 420 372 439 351 241 116 68 298 403 1127 658 89 44 37 55 57 37 10 3 0 0 13 45 39 18 109 491 606 478 949 919 971
0 0 0 0 3 6 7 9 100 116 170 216 286 308 321 57 17 31 107 107 99 110 68 16 10 0 0 0 0 0 0 0 0 0 19 205 407 98 106 791 321 187 138
9 0 1 0 0 0 2 2 6 20 39 34 72 92 78 76 48 17 10 6 19 18 15 9 13 3 0 0 0 0 0 0 0 0 0 1 9 23 37 36 57 414 518
156 50 6 0 2 14 3 6 7 18 11 14 10 26 34 25 39 35 28 30 39 52 46 15 0 0 0 0 0 0 0 0 4 0 0 0 0 0 0 0 0 6 0
165 73 2 51 2 23 16 3 20 47 17 1 14 5 2 19 22 2 26 35 5 2 0 0 0 0 0 0 0 0 0 0 0 2 6 3 0 0 0 0 0 0 0
60 63 27 39 0 17 4 19 1 8 51 15 46 47 26 2 0 0 0 0 0 0 0 0 0 0 0 0 0 0 0 0 0 0 0 0 0 0 0 0 0 0 0
122 71 11 10 0 0 0 0 0 0 0 0 0 0 0 0 0 0 0 0 0 0 0 0 0 0 0 0 0 0 0 0 0 0 0 0 0 0 0 0 0 0 0
8 11 1 0 0 0 0 0 0 0 0 0 0 0 0 0 0 0 0 0 0 0 0 0 0 0 0 0 0 0 0 0 0 0 0 0 0 0 0 0 0 0 0
7 0 0 0 0 0 0 0 0 0 0 0 0 0 0 0 0 0 0 0 0 0 0 0 0 0 0 0 0 0 0 0 0 0 0 0 0 0 0 0 0 0 0
0 0 0 1 0 0 0 0 0 0 0 0 0 0 0 0 0 0 0 0 0 0 0 0 0 0 0 0 0 0 0 0 0 0 0 0 0 0 0 0 0 0 0
0 0 0 0 0 0 2 0 0 0 0 0 0 0 0 0 0 0 0 0 0 0 0 0 0 0 0 0 0 0 0 0 0 0 0 0 0 0 0 0 0 0 0
0 0 0 0 0 0 0 0 0 0 0 0 0 0 0 0 0 0 0 0 0 0 0 0 0 0 0 0 0 0 0 0 0 0 0 0 0 0 0 0 0 0 0
0 0 0 0 0 1 0 0 0 0 0 0 0 0 0 0 0 0 0 0 0 0 0 0 0 0 0 0 0 0 0 0 0 0 0 0 0 0 0 0 0 0 0
3 0 0 0 0 0 0 0 0 0 0 0 0 0 0 0 0 0 0 0 0 0 0 0 0 0 0 0 0 0 0 0 0 0 0 0 0 0 0 0 0 0 0
17 10 6 0 0 0 0 0 0 0 0 0 0 0 0 0 0 0 0 0 0 0 0 0 0 0 0 0 0 0 0 0 0 0 0 0 0 0 0 0 0 0 0
31 15 12 13 7 0 0 0 0 0 0 0 0 0 0 0 0 0 0 10 7 0 0 0 0 0 0 0 0 0 0 0 0 0 0 0 0 0 0 0 0 0 0
17 18 30 14 3 4 16 4 0 0 0 0 0 3 18 13 0 9 44 47 28 10 24 16 5 0 0 0 0 0 0 0 0 0 0 0 0 0 0 0 0 0 0

GFSGL_con_mucape_129.txt.gz
CAPE
1599 1187 977 1101 1233 1356 1122 1131 1293 1344 568 525 779 964 1235 1546 1445 1415 1190 1373 1161 1178 1600 1359 1543 1491 1867 1354 1907 1395 1713 1824 1225 801 1107 1465 1507 1692 1610 2160 1694 1262 743
1445 1303 1372 1192 1371 1382 1249 1310 1412 1205 1247 1218 1121 1465 1290 1399 1078 1575 1219 1537 1339 1105 1518 1246 1471 1463 1356 1809 1377 1404 1606 1346 1249 1111 1251 1451 1197 1510 772 1767 2072 1224 984
940 1366 1418 1102 1545 1419 1263 1474 1407 1668 1313 1408 1444 1333 1103 1160 1369 1551 1219 1230 1327 1560 1546 1492 1469 942 1377 1421 1359 1122 1127 1034 1619 1266 1140 1478 1529 1342 1394 1511 1509 1399 1390
348 823 862 857 1249 1293 1273 1372 847 1435 1148 1251 1252 993 1003 1123 1164 1250 1295 1140 869 1364 1483 1161 1111 1164 1039 1410 1183 1020 823 756 1040 642 772 1149 1359 1527 1413 1628 1146 1648 1376
210 628 663 879 967 866 1295 1101 1135 894 1474 1216 1403 1209 976 936 1028 777 704 1198 946 968 944 922 742 705 866 976 1246 845 705 1144 976 954 647 899 1219 1410 1453 1667 1515 1528 1067
312 360 82 394 717 829 1089 1229 1075 1314 1455 1096 1014 952 727 726 681 541 370 727 528 647 399 448 675 588 627 956 635 395 511 599 935 856 1004 946 1125 999 1424 1385 1399 1112 1073
689 520 615 664 728 633 615 939 994 1105 1086 881 855 597 518 531 502 350 281 429 505 541 346 167 862 470 356 538 817 1016 995 1095 763 585 701 708 1128 1131 1240 749 662 851 895
322 279 263 435 456 417 390 415 548 632 802 911 655 611 459 369 358 109 286 306 602 721 670 604 409 270 205 229 240 336 466 486 401 326 305 364 16 0 146 549 547 599 491
201 157 151 158 165 262 299 197 267 341 414 600 577 649 402 383 182 154 103 560 531 285 154 137 110 76 51 26 4 0 0 6 2 0 0 0 0 0 4 79 267 206 240
100 49 58 111 77 75 103 86 139 172 363 605 300 468 451 245 197 88 344 478 338 216 104 56 56 49 38 28 12 0 0 0 0 0 0 0 17 3 53 60 0 0 0
9 1 0 0 56 57 29 40 78 116 165 173 108 114 143 173 91 76 139 120 205 70 62 35 4 0 0 0 0 0 0 0 0 0 0 0 0 0 1 8 8 2 11
14 0 0 0 0 0 1 0 9 27 36 68 79 78 84 111 83 81 115 109 85 52 40 27 1 1 0 0 0 0 0 0 0 0 0 0 0 0 0 1 1 0 0
77 64 17 0 0 4 9 0 0 5 7 25 6 2 5 20 35 38 34 35 0 17 10 12 12 15 0 0 0 0 0 0 0 0 0 0 0 0 0 0 0 0 0
97 72 23 40 2 6 3 9 9 3 2 1 0 5 0 0 2 23 15 24 52 7 4 3 0 7 0 0 0 0 0 0 0 0 0 0 0 0 0 0 0 0 0
41 49 75 32 14 9 13 3 1 0 3 1 2 0 1 8 2 4 8 63 45 1 0 0 0 0 0 0 0 0 0 0 0 0 0 0 0 0 0 0 0 0 0
27 48 28 17 20 5 18 18 0 3 0 0 0 0 4 0 0 0 0 0 0 0 0 0 0 0 0 0 0 0 0 0 0 0 0 0 0 0 0 0 0 0 0
26 39 59 17 4 10 7 5 13 0 0 0 0 0 0 0 0 0 0 0 0 0 0 0 0 0 0 0 0 0 0 0 0 0 0 0 0 0 0 0 0 0 0
0 0 8 29 0 0 0 0 0 0 0 0 0 0 0 0 0 0 0 0 0 0 0 0 0 0 0 0 0 0 0 0 0 0 0 0 0 0 0 0 0 0 0
0 0 0 0 0 0 0 0 0 0 0 0 0 0 0 0 0 0 0 0 0 0 0 0 0 0 0 0 0 0 0 0 0 0 0 0 0 0 0 0 0 0 0
1 8 0 0 0 0 0 0 0 0 0 0 0 0 0 0 0 0 0 0 0 0 0 0 0 0 0 0 0 0 0 0 0 0 0 0 0 0 0 0 0 0 0
0 0 0 0 0 0 0 0 0 0 0 0 0 0 0 0 0 0 0 0 0 0 0 0 0 0 0 0 0 0 0 0 0 0 0 0 0 0 0 0 0 0 0
0 0 0 0 0 0 0 0 0 0 0 0 0 0 0 0 0 0 0 0 0 0 0 0 0 0 0 0 0 0 0 0 0 0 0 0 0 0 0 0 0 0 0
0 0 0 0 0 1 0 0 0 0 0 0 0 0 0 0 0 0 0 0 0 0 0 0 0 0 0 0 0 0 0 0 0 0 0 0 0 0 0 0 0 0 0
16 15 10 3 8 5 0 2 0 0 0 0 0 0 0 0 0 0 0 0 0 0 0 0 0 0 0 0 0 0 0 0 0 0 0 0 0 0 0 0 0 0 0
8 11 23 6 6 0 0 0 2 3 2 1 0 0 0 0 0 0 0 0 0 0 0 0 0 0 0 0 0 0 0 0 0 0 0 0 0 0 0 0 0 0 0
29 23 23 25 38 3 7 2 0 1 1 1 0 0 0 0 0 0 0 0 0 0 0 0 0 0 0 0 0 0 0 0 0 0 0 0 0 0 0 0 0 0 0

GFSGL_con_mucape_132.txt.gz
CAPE
768 825 1018 978 1016 970 1102 931 970 887 959 1111 1025 936 1167 1221 1127 908 820 1042 785 961 1144 1005 1108 938 867 1410 874 1156 1099 1123 685 796 1151 1055 1170 817 633 1472 1246 933 872
1129 983 842 743 1015 1048 1060 847 965 972 823 429 597 832 804 1166 1107 993 852 1262 1193 844 834 1094 906 986 977 1112 1030 981 938 1090 1308 804 1106 1266 1247 1219 1258 1081 1263 1268 1224
915 1377 1113 837 833 1026 1054 952 883 913 961 803 879 1054 1099 1093 1047 1023 1022 873 928 972 1226 1134 1022 800 1032 949 916 720 745 902 955 535 444 1023 1160 1142 1199 1188 1138 1205 960
591 815 1065 1042 1073 1226 1090 1140 1065 1040 1023 1180 1125 852 875 824 905 1118 1194 889 1011 1006 952 1183 938 833 614 725 849 642 521 455 528 443 418 809 1111 1158 1153 1341 1014 897 695
333 428 536 647 933 992 1264 1140 999 939 945 1004 1023 1019 742 766 665 890 706 726 617 714 688 572 554 668 776 775 896 799 504 612 774 988 912 800 964 949 1166 1217 971 789 682
23 170 166 373 581 822 1265 1254 1190 1036 849 1040 1081 774 778 666 711 654 590 484 660 500 413 543 491 476 599 714 566 392 486 704 804 620 715 656 631 846 1220 880 636 768 622
15 63 73 177 300 403 507 666 870 985 1167 1003 904 663 557 657 482 463 317 628 381 371 262 344 271 292 396 513 655 687 716 833 647 517 515 430 577 524 150 216 306 557 390
23 19 65 115 272 270 292 300 353 516 665 784 712 639 489 355 319 289 231 500 591 414 346 431 463 362 284 314 387 468 484 426 280 131 43 0 0 0 3 126 359 297 188
147 69 171 189 204 253 288 211 187 224 276 318 272 258 359 273 269 226 295 399 417 394 362 287 209 158 128 75 11 7 6 3 0 0 0 0 0 47 35 152 83 65 0
93 84 60 52 61 82 112 157 186 135 177 182 197 131 204 214 245 189 262 307 289 184 155 132 98 73 54 45 27 23 4 0 0 0 0 0 0 0 0 0 0 0 0
67 65 7 0 0 0 3 21 84 64 129 112 92 112 192 205 109 132 263 233 168 144 118 63 33 10 0 12 3 0 0 0 0 0 0 0 0 0 0 0 0 0 0
15 12 13 3 0 0 3 14 33 22 99 219 139 64 110 58 65 47 113 127 89 96 80 41 7 0 0 0 0 0 0 0 0 0 0 0 0 0 0 0 0 0 0
4 5 0 0 0 4 20 7 7 0 40 58 32 5 1 13 35 45 31 82 88 49 45 17 0 0 2 4 0 0 0 0 0 0 0 0 0 0 0 0 0 0 0
51 44 26 72 7 0 4 1 4 4 7 2 10 7 4 3 10 9 28 52 38 18 19 37 24 20 11 1 0 0 0 0 0 0 0 0 0 0 0 0 0 0 0
75 109 84 101 8 7 9 9 8 0 0 3 4 0 0 0 4 0 3 7 13 12 30 11 2 1 2 0 0 0 0 0 0 0 0 0 0 0 0 0 0 0 0
129 94 63 71 28 24 8 12 9 3 1 0 0 0 0 0 2 0 0 0 0 4 22 10 0 0 0 0 0 0 0 0 0 0 0 0 0 0 0 0 0 0 0
8 8 12 34 64 16 15 30 22 13 1 9 0 0 0 2 0 0 0 0 0 0 0 0 0 0 0 0 0 0 0 0 0 0 0 0 0 0 0 0 0 0 0
0 0 0 0 0 5 22 5 12 20 26 9 0 0 0 0 0 0 0 0 0 0 0 0 0 0 0 0 0 0 0 0 0 0 0 0 0 0 0 0 0 0 0
0 0 0 0 2 7 3 3 0 0 0 0 0 0 0 0 0 0 0 0 0 0 0 0 0 0 0 0 0 0 0 0 0 0 0 0 0 0 0 0 0 0 0
0 0 4 0 0 0 0 0 0 0 0 0 0 0 0 0 0 0 0 0 0 0 0 0 0 0 0 0 0 0 0 0 0 0 0 0 0 0 0 0 0 0 0
0 0 0 0 0 0 0 0 0 0 0 0 0 0 0 0 0 0 0 0 0 0 0 0 0 0 0 0 0 0 0 0 0 0 0 0 0 0 0 0 0 0 0
0 0 0 0 0 0 0 0 0 0 0 0 0 0 0 0 0 0 0 0 0 0 0 0 0 0 0 0 0 0 0 0 0 0 0 0 0 0 0 0 0 0 0
0 0 0 0 0 0 0 0 0 0 0 0 0 0 0 0 0 0 0 0 0 0 0 0 0 0 0 0 0 0 0 0 0 0 0 0 0 0 0 0 0 0 0
0 2 8 8 2 0 0 0 0 0 0 0 0 0 0 0 0 0 0 0 0 0 0 0 0 0 0 0 0 0 0 0 0 0 0 0 0 0 0 0 0 0 0
14 6 5 6 4 9 1 0 0 0 0 0 0 0 0 0 0 0 0 0 0 0 0 0 0 0 0 0 0 0 0 0 0 0 0 0 0 0 0 0 0 0 0
37 13 10 2 1 7 4 0 7 2 6 3 0 2 0 0 0 0 0 0 0 0 0 0 0 0 0 0 0 0 0 0 0 0 0 0 0 0 0 0 0 0 0